<?xml version="1.0" encoding="utf-8"?>
<gpx xmlns:xsi="http://www.w3.org/2001/XMLSchema-instance" xmlns:xsd="http://www.w3.org/2001/XMLSchema" version="1.1" creator="Shapelink.com" xmlns="http://www.topografix.com/GPX/1/1" xmlns:gpxtpx="http://www.garmin.com/xmlschemas/TrackPointExtension/v1">
  <metadata>
    <name>Gåing 3.03 km, 2013-04-01</name>
    <desc></desc>
    <author><name>Mikael Blom</name></author> 
    <time>2013-04-01T17:47:51Z</time>
  </metadata>
  <trk>
    <name>Gåing 3.03 km, 2013-04-01</name>
    <trkseg>
      <trkpt lat="59.9780487" lon="17.7391482">
        <ele>39.5513</ele>
        <time>2013-04-01T17:47:51Z</time>
      </trkpt>
      <trkpt lat="59.9780358" lon="17.7391454">
        <ele>39.5513</ele>
        <time>2013-04-01T17:47:52Z</time>
      </trkpt>
      <trkpt lat="59.97803" lon="17.7391434">
        <ele>39.5513</ele>
        <time>2013-04-01T17:47:53Z</time>
      </trkpt>
      <trkpt lat="59.9780975" lon="17.7390969">
        <ele>30.8995</ele>
        <time>2013-04-01T17:47:54Z</time>
      </trkpt>
      <trkpt lat="59.9781191" lon="17.7390746">
        <ele>26.0929</ele>
        <time>2013-04-01T17:47:55Z</time>
      </trkpt>
      <trkpt lat="59.9781119" lon="17.7390693">
        <ele>24.1703</ele>
        <time>2013-04-01T17:47:56Z</time>
      </trkpt>
      <trkpt lat="59.9780813" lon="17.7390752">
        <ele>26.5736</ele>
        <time>2013-04-01T17:47:57Z</time>
      </trkpt>
      <trkpt lat="59.9780575" lon="17.739076">
        <ele>28.4962</ele>
        <time>2013-04-01T17:47:58Z</time>
      </trkpt>
      <trkpt lat="59.9780617" lon="17.7390653">
        <ele>26.0929</ele>
        <time>2013-04-01T17:47:59Z</time>
      </trkpt>
      <trkpt lat="59.9780627" lon="17.7390574">
        <ele>24.651</ele>
        <time>2013-04-01T17:48:00Z</time>
      </trkpt>
      <trkpt lat="59.9780457" lon="17.7390548">
        <ele>25.6123</ele>
        <time>2013-04-01T17:48:01Z</time>
      </trkpt>
      <trkpt lat="59.9780223" lon="17.7390504">
        <ele>28.0155</ele>
        <time>2013-04-01T17:48:02Z</time>
      </trkpt>
      <trkpt lat="59.9780291" lon="17.7390388">
        <ele>26.0929</ele>
        <time>2013-04-01T17:48:03Z</time>
      </trkpt>
      <trkpt lat="59.9780288" lon="17.7390265">
        <ele>24.651</ele>
        <time>2013-04-01T17:48:04Z</time>
      </trkpt>
      <trkpt lat="59.9780353" lon="17.7390084">
        <ele>21.767</ele>
        <time>2013-04-01T17:48:05Z</time>
      </trkpt>
      <trkpt lat="59.9780456" lon="17.7389894">
        <ele>17.9218</ele>
        <time>2013-04-01T17:48:06Z</time>
      </trkpt>
      <trkpt lat="59.9780514" lon="17.7389718">
        <ele>15.0377</ele>
        <time>2013-04-01T17:48:07Z</time>
      </trkpt>
      <trkpt lat="59.9780544" lon="17.7389554">
        <ele>12.1538</ele>
        <time>2013-04-01T17:48:08Z</time>
      </trkpt>
      <trkpt lat="59.9780543" lon="17.7389409">
        <ele>10.2312</ele>
        <time>2013-04-01T17:48:09Z</time>
      </trkpt>
      <trkpt lat="59.9780529" lon="17.7389283">
        <ele>8.78918</ele>
        <time>2013-04-01T17:48:10Z</time>
      </trkpt>
      <trkpt lat="59.9780493" lon="17.738918">
        <ele>7.34717</ele>
        <time>2013-04-01T17:48:11Z</time>
      </trkpt>
      <trkpt lat="59.9780447" lon="17.7389095">
        <ele>5.90527</ele>
        <time>2013-04-01T17:48:12Z</time>
      </trkpt>
      <trkpt lat="59.9780392" lon="17.7389017">
        <ele>4.94385</ele>
        <time>2013-04-01T17:48:13Z</time>
      </trkpt>
      <trkpt lat="59.9780322" lon="17.7388937">
        <ele>3.98267</ele>
        <time>2013-04-01T17:48:14Z</time>
      </trkpt>
      <trkpt lat="59.9780248" lon="17.7388851">
        <ele>3.02124</ele>
        <time>2013-04-01T17:48:15Z</time>
      </trkpt>
      <trkpt lat="59.9780171" lon="17.7388765">
        <ele>2.54065</ele>
        <time>2013-04-01T17:48:16Z</time>
      </trkpt>
      <trkpt lat="59.9780086" lon="17.7388679">
        <ele>1.57935</ele>
        <time>2013-04-01T17:48:17Z</time>
      </trkpt>
      <trkpt lat="59.9779994" lon="17.7388592">
        <ele>1.09863</ele>
        <time>2013-04-01T17:48:18Z</time>
      </trkpt>
      <trkpt lat="59.9779898" lon="17.7388516">
        <ele>0.618042</ele>
        <time>2013-04-01T17:48:19Z</time>
      </trkpt>
      <trkpt lat="59.9779796" lon="17.7388446">
        <ele>0.618042</ele>
        <time>2013-04-01T17:48:20Z</time>
      </trkpt>
      <trkpt lat="59.9779687" lon="17.7388376">
        <ele>0.137451</ele>
        <time>2013-04-01T17:48:21Z</time>
      </trkpt>
      <trkpt lat="59.9779577" lon="17.7388316">
        <ele>0</ele>
        <time>2013-04-01T17:48:22Z</time>
      </trkpt>
      <trkpt lat="59.9779461" lon="17.7388268">
        <ele>0</ele>
        <time>2013-04-01T17:48:23Z</time>
      </trkpt>
      <trkpt lat="59.9779342" lon="17.7388218">
        <ele>0</ele>
        <time>2013-04-01T17:48:24Z</time>
      </trkpt>
      <trkpt lat="59.9779226" lon="17.7388171">
        <ele>0</ele>
        <time>2013-04-01T17:48:25Z</time>
      </trkpt>
      <trkpt lat="59.977911" lon="17.7388125">
        <ele>0</ele>
        <time>2013-04-01T17:48:26Z</time>
      </trkpt>
      <trkpt lat="59.9778998" lon="17.7388071">
        <ele>0</ele>
        <time>2013-04-01T17:48:27Z</time>
      </trkpt>
      <trkpt lat="59.9778881" lon="17.7388029">
        <ele>0</ele>
        <time>2013-04-01T17:48:28Z</time>
      </trkpt>
      <trkpt lat="59.9778762" lon="17.7387995">
        <ele>0</ele>
        <time>2013-04-01T17:48:29Z</time>
      </trkpt>
      <trkpt lat="59.9778643" lon="17.7387978">
        <ele>0</ele>
        <time>2013-04-01T17:48:30Z</time>
      </trkpt>
      <trkpt lat="59.9778523" lon="17.7387964">
        <ele>0</ele>
        <time>2013-04-01T17:48:31Z</time>
      </trkpt>
      <trkpt lat="59.9778401" lon="17.7387942">
        <ele>0</ele>
        <time>2013-04-01T17:48:32Z</time>
      </trkpt>
      <trkpt lat="59.9778279" lon="17.7387915">
        <ele>0</ele>
        <time>2013-04-01T17:48:33Z</time>
      </trkpt>
      <trkpt lat="59.9778156" lon="17.73879">
        <ele>0</ele>
        <time>2013-04-01T17:48:34Z</time>
      </trkpt>
      <trkpt lat="59.9778027" lon="17.7387892">
        <ele>0</ele>
        <time>2013-04-01T17:48:35Z</time>
      </trkpt>
      <trkpt lat="59.9777893" lon="17.7387884">
        <ele>0</ele>
        <time>2013-04-01T17:48:36Z</time>
      </trkpt>
      <trkpt lat="59.9777762" lon="17.7387866">
        <ele>0</ele>
        <time>2013-04-01T17:48:37Z</time>
      </trkpt>
      <trkpt lat="59.9777633" lon="17.7387845">
        <ele>0</ele>
        <time>2013-04-01T17:48:38Z</time>
      </trkpt>
      <trkpt lat="59.9777503" lon="17.7387831">
        <ele>0</ele>
        <time>2013-04-01T17:48:39Z</time>
      </trkpt>
      <trkpt lat="59.9777373" lon="17.7387824">
        <ele>0</ele>
        <time>2013-04-01T17:48:40Z</time>
      </trkpt>
      <trkpt lat="59.9777246" lon="17.7387836">
        <ele>0</ele>
        <time>2013-04-01T17:48:41Z</time>
      </trkpt>
      <trkpt lat="59.9777115" lon="17.7387869">
        <ele>0</ele>
        <time>2013-04-01T17:48:42Z</time>
      </trkpt>
      <trkpt lat="59.9776992" lon="17.7387906">
        <ele>0</ele>
        <time>2013-04-01T17:48:43Z</time>
      </trkpt>
      <trkpt lat="59.9776867" lon="17.7387995">
        <ele>0</ele>
        <time>2013-04-01T17:48:44Z</time>
      </trkpt>
      <trkpt lat="59.9776716" lon="17.7388099">
        <ele>0.137451</ele>
        <time>2013-04-01T17:48:45Z</time>
      </trkpt>
      <trkpt lat="59.9776576" lon="17.7388166">
        <ele>0.137451</ele>
        <time>2013-04-01T17:48:46Z</time>
      </trkpt>
      <trkpt lat="59.9776439" lon="17.7388244">
        <ele>0.137451</ele>
        <time>2013-04-01T17:48:47Z</time>
      </trkpt>
      <trkpt lat="59.9776308" lon="17.7388325">
        <ele>0.618042</ele>
        <time>2013-04-01T17:48:48Z</time>
      </trkpt>
      <trkpt lat="59.9776177" lon="17.7388397">
        <ele>0.618042</ele>
        <time>2013-04-01T17:48:49Z</time>
      </trkpt>
      <trkpt lat="59.9776048" lon="17.7388459">
        <ele>0.618042</ele>
        <time>2013-04-01T17:48:50Z</time>
      </trkpt>
      <trkpt lat="59.9775916" lon="17.7388529">
        <ele>0.618042</ele>
        <time>2013-04-01T17:48:51Z</time>
      </trkpt>
      <trkpt lat="59.9775783" lon="17.7388616">
        <ele>1.09863</ele>
        <time>2013-04-01T17:48:52Z</time>
      </trkpt>
      <trkpt lat="59.9775642" lon="17.7388703">
        <ele>1.09863</ele>
        <time>2013-04-01T17:48:53Z</time>
      </trkpt>
      <trkpt lat="59.9775498" lon="17.7388784">
        <ele>1.09863</ele>
        <time>2013-04-01T17:48:54Z</time>
      </trkpt>
      <trkpt lat="59.977535" lon="17.7388855">
        <ele>1.09863</ele>
        <time>2013-04-01T17:48:55Z</time>
      </trkpt>
      <trkpt lat="59.9775209" lon="17.7388928">
        <ele>1.57935</ele>
        <time>2013-04-01T17:48:56Z</time>
      </trkpt>
      <trkpt lat="59.9775068" lon="17.7388998">
        <ele>1.57935</ele>
        <time>2013-04-01T17:48:57Z</time>
      </trkpt>
      <trkpt lat="59.9774934" lon="17.7389071">
        <ele>1.57935</ele>
        <time>2013-04-01T17:48:58Z</time>
      </trkpt>
      <trkpt lat="59.9774806" lon="17.7389164">
        <ele>1.57935</ele>
        <time>2013-04-01T17:48:59Z</time>
      </trkpt>
      <trkpt lat="59.9774685" lon="17.7389268">
        <ele>2.06006</ele>
        <time>2013-04-01T17:49:00Z</time>
      </trkpt>
      <trkpt lat="59.9774566" lon="17.7389373">
        <ele>2.06006</ele>
        <time>2013-04-01T17:49:01Z</time>
      </trkpt>
      <trkpt lat="59.9774442" lon="17.7389466">
        <ele>2.06006</ele>
        <time>2013-04-01T17:49:02Z</time>
      </trkpt>
      <trkpt lat="59.9774318" lon="17.7389558">
        <ele>2.06006</ele>
        <time>2013-04-01T17:49:03Z</time>
      </trkpt>
      <trkpt lat="59.9774199" lon="17.7389648">
        <ele>2.54065</ele>
        <time>2013-04-01T17:49:04Z</time>
      </trkpt>
      <trkpt lat="59.9774079" lon="17.7389739">
        <ele>2.54065</ele>
        <time>2013-04-01T17:49:05Z</time>
      </trkpt>
      <trkpt lat="59.9773958" lon="17.7389819">
        <ele>2.54065</ele>
        <time>2013-04-01T17:49:06Z</time>
      </trkpt>
      <trkpt lat="59.9773836" lon="17.738991">
        <ele>2.54065</ele>
        <time>2013-04-01T17:49:07Z</time>
      </trkpt>
      <trkpt lat="59.977367" lon="17.7389978">
        <ele>3.50195</ele>
        <time>2013-04-01T17:49:08Z</time>
      </trkpt>
      <trkpt lat="59.9773511" lon="17.7390047">
        <ele>4.46326</ele>
        <time>2013-04-01T17:49:09Z</time>
      </trkpt>
      <trkpt lat="59.9773378" lon="17.7390143">
        <ele>4.46326</ele>
        <time>2013-04-01T17:49:10Z</time>
      </trkpt>
      <trkpt lat="59.9773224" lon="17.7390243">
        <ele>4.94385</ele>
        <time>2013-04-01T17:49:11Z</time>
      </trkpt>
      <trkpt lat="59.9773081" lon="17.7390364">
        <ele>5.42456</ele>
        <time>2013-04-01T17:49:12Z</time>
      </trkpt>
      <trkpt lat="59.9772939" lon="17.7390477">
        <ele>6.38586</ele>
        <time>2013-04-01T17:49:13Z</time>
      </trkpt>
      <trkpt lat="59.9772794" lon="17.7390586">
        <ele>6.86646</ele>
        <time>2013-04-01T17:49:14Z</time>
      </trkpt>
      <trkpt lat="59.9772655" lon="17.7390695">
        <ele>7.34717</ele>
        <time>2013-04-01T17:49:15Z</time>
      </trkpt>
      <trkpt lat="59.9772537" lon="17.7390752">
        <ele>6.86646</ele>
        <time>2013-04-01T17:49:16Z</time>
      </trkpt>
      <trkpt lat="59.9772392" lon="17.7390751">
        <ele>6.86646</ele>
        <time>2013-04-01T17:49:17Z</time>
      </trkpt>
      <trkpt lat="59.9772241" lon="17.7390771">
        <ele>6.86646</ele>
        <time>2013-04-01T17:49:18Z</time>
      </trkpt>
      <trkpt lat="59.977207" lon="17.7390808">
        <ele>7.82788</ele>
        <time>2013-04-01T17:49:19Z</time>
      </trkpt>
      <trkpt lat="59.9771914" lon="17.7390863">
        <ele>8.78918</ele>
        <time>2013-04-01T17:49:20Z</time>
      </trkpt>
      <trkpt lat="59.9771779" lon="17.7390938">
        <ele>8.78918</ele>
        <time>2013-04-01T17:49:21Z</time>
      </trkpt>
      <trkpt lat="59.9771623" lon="17.7391">
        <ele>9.75061</ele>
        <time>2013-04-01T17:49:22Z</time>
      </trkpt>
      <trkpt lat="59.9771474" lon="17.7391071">
        <ele>10.2312</ele>
        <time>2013-04-01T17:49:23Z</time>
      </trkpt>
      <trkpt lat="59.9771325" lon="17.7391148">
        <ele>10.7118</ele>
        <time>2013-04-01T17:49:24Z</time>
      </trkpt>
      <trkpt lat="59.977118" lon="17.7391228">
        <ele>11.1925</ele>
        <time>2013-04-01T17:49:25Z</time>
      </trkpt>
      <trkpt lat="59.9771085" lon="17.7391348">
        <ele>11.1925</ele>
        <time>2013-04-01T17:49:26Z</time>
      </trkpt>
      <trkpt lat="59.9770986" lon="17.7391461">
        <ele>10.7118</ele>
        <time>2013-04-01T17:49:27Z</time>
      </trkpt>
      <trkpt lat="59.9770879" lon="17.7391565">
        <ele>10.7118</ele>
        <time>2013-04-01T17:49:28Z</time>
      </trkpt>
      <trkpt lat="59.9770776" lon="17.7391669">
        <ele>10.2312</ele>
        <time>2013-04-01T17:49:29Z</time>
      </trkpt>
      <trkpt lat="59.9770638" lon="17.7391724">
        <ele>10.7118</ele>
        <time>2013-04-01T17:49:30Z</time>
      </trkpt>
      <trkpt lat="59.9770474" lon="17.7391749">
        <ele>11.1925</ele>
        <time>2013-04-01T17:49:31Z</time>
      </trkpt>
      <trkpt lat="59.9770308" lon="17.7391782">
        <ele>11.6732</ele>
        <time>2013-04-01T17:49:32Z</time>
      </trkpt>
      <trkpt lat="59.9770184" lon="17.7391848">
        <ele>11.6732</ele>
        <time>2013-04-01T17:49:33Z</time>
      </trkpt>
      <trkpt lat="59.9770069" lon="17.7391923">
        <ele>11.6732</ele>
        <time>2013-04-01T17:49:34Z</time>
      </trkpt>
      <trkpt lat="59.9769946" lon="17.7391993">
        <ele>11.6732</ele>
        <time>2013-04-01T17:49:35Z</time>
      </trkpt>
      <trkpt lat="59.9769812" lon="17.7392046">
        <ele>11.6732</ele>
        <time>2013-04-01T17:49:36Z</time>
      </trkpt>
      <trkpt lat="59.9769692" lon="17.7392112">
        <ele>11.6732</ele>
        <time>2013-04-01T17:49:37Z</time>
      </trkpt>
      <trkpt lat="59.9769578" lon="17.7392192">
        <ele>11.6732</ele>
        <time>2013-04-01T17:49:38Z</time>
      </trkpt>
      <trkpt lat="59.9769467" lon="17.739228">
        <ele>11.6732</ele>
        <time>2013-04-01T17:49:39Z</time>
      </trkpt>
      <trkpt lat="59.976936" lon="17.739237">
        <ele>11.1925</ele>
        <time>2013-04-01T17:49:40Z</time>
      </trkpt>
      <trkpt lat="59.9769247" lon="17.7392455">
        <ele>11.1925</ele>
        <time>2013-04-01T17:49:41Z</time>
      </trkpt>
      <trkpt lat="59.9769123" lon="17.7392513">
        <ele>11.1925</ele>
        <time>2013-04-01T17:49:42Z</time>
      </trkpt>
      <trkpt lat="59.9768993" lon="17.7392533">
        <ele>11.1925</ele>
        <time>2013-04-01T17:49:43Z</time>
      </trkpt>
      <trkpt lat="59.9768866" lon="17.7392539">
        <ele>10.7118</ele>
        <time>2013-04-01T17:49:44Z</time>
      </trkpt>
      <trkpt lat="59.9768739" lon="17.7392569">
        <ele>10.7118</ele>
        <time>2013-04-01T17:49:45Z</time>
      </trkpt>
      <trkpt lat="59.9768612" lon="17.7392607">
        <ele>10.7118</ele>
        <time>2013-04-01T17:49:46Z</time>
      </trkpt>
      <trkpt lat="59.9768488" lon="17.7392645">
        <ele>10.2312</ele>
        <time>2013-04-01T17:49:47Z</time>
      </trkpt>
      <trkpt lat="59.9768365" lon="17.7392692">
        <ele>10.2312</ele>
        <time>2013-04-01T17:49:48Z</time>
      </trkpt>
      <trkpt lat="59.9768246" lon="17.7392745">
        <ele>10.2312</ele>
        <time>2013-04-01T17:49:49Z</time>
      </trkpt>
      <trkpt lat="59.9768128" lon="17.7392798">
        <ele>9.75061</ele>
        <time>2013-04-01T17:49:50Z</time>
      </trkpt>
      <trkpt lat="59.9768009" lon="17.739285">
        <ele>9.75061</ele>
        <time>2013-04-01T17:49:51Z</time>
      </trkpt>
      <trkpt lat="59.9767889" lon="17.7392901">
        <ele>9.75061</ele>
        <time>2013-04-01T17:49:52Z</time>
      </trkpt>
      <trkpt lat="59.976777" lon="17.7392958">
        <ele>9.75061</ele>
        <time>2013-04-01T17:49:53Z</time>
      </trkpt>
      <trkpt lat="59.9767662" lon="17.739301">
        <ele>9.2699</ele>
        <time>2013-04-01T17:49:54Z</time>
      </trkpt>
      <trkpt lat="59.9767558" lon="17.739306">
        <ele>9.2699</ele>
        <time>2013-04-01T17:49:55Z</time>
      </trkpt>
      <trkpt lat="59.9767449" lon="17.7393119">
        <ele>9.2699</ele>
        <time>2013-04-01T17:49:56Z</time>
      </trkpt>
      <trkpt lat="59.9767338" lon="17.7393187">
        <ele>9.2699</ele>
        <time>2013-04-01T17:49:57Z</time>
      </trkpt>
      <trkpt lat="59.9767221" lon="17.7393248">
        <ele>9.2699</ele>
        <time>2013-04-01T17:49:58Z</time>
      </trkpt>
      <trkpt lat="59.9767075" lon="17.7393296">
        <ele>9.2699</ele>
        <time>2013-04-01T17:49:59Z</time>
      </trkpt>
      <trkpt lat="59.9766942" lon="17.7393325">
        <ele>9.75061</ele>
        <time>2013-04-01T17:50:00Z</time>
      </trkpt>
      <trkpt lat="59.9766822" lon="17.7393361">
        <ele>10.2312</ele>
        <time>2013-04-01T17:50:01Z</time>
      </trkpt>
      <trkpt lat="59.9766712" lon="17.7393451">
        <ele>10.2312</ele>
        <time>2013-04-01T17:50:02Z</time>
      </trkpt>
      <trkpt lat="59.9766604" lon="17.7393547">
        <ele>10.2312</ele>
        <time>2013-04-01T17:50:03Z</time>
      </trkpt>
      <trkpt lat="59.9766476" lon="17.7393636">
        <ele>10.7118</ele>
        <time>2013-04-01T17:50:04Z</time>
      </trkpt>
      <trkpt lat="59.9766361" lon="17.7393736">
        <ele>10.7118</ele>
        <time>2013-04-01T17:50:05Z</time>
      </trkpt>
      <trkpt lat="59.9766272" lon="17.7393849">
        <ele>10.7118</ele>
        <time>2013-04-01T17:50:06Z</time>
      </trkpt>
      <trkpt lat="59.9766159" lon="17.7393937">
        <ele>11.1925</ele>
        <time>2013-04-01T17:50:07Z</time>
      </trkpt>
      <trkpt lat="59.9766045" lon="17.7394041">
        <ele>11.1925</ele>
        <time>2013-04-01T17:50:08Z</time>
      </trkpt>
      <trkpt lat="59.976595" lon="17.739415">
        <ele>11.1925</ele>
        <time>2013-04-01T17:50:09Z</time>
      </trkpt>
      <trkpt lat="59.9765837" lon="17.7394258">
        <ele>11.1925</ele>
        <time>2013-04-01T17:50:10Z</time>
      </trkpt>
      <trkpt lat="59.976572" lon="17.7394368">
        <ele>11.1925</ele>
        <time>2013-04-01T17:50:11Z</time>
      </trkpt>
      <trkpt lat="59.9765606" lon="17.739449">
        <ele>11.1925</ele>
        <time>2013-04-01T17:50:12Z</time>
      </trkpt>
      <trkpt lat="59.9765496" lon="17.7394627">
        <ele>11.1925</ele>
        <time>2013-04-01T17:50:13Z</time>
      </trkpt>
      <trkpt lat="59.9765388" lon="17.7394775">
        <ele>11.1925</ele>
        <time>2013-04-01T17:50:14Z</time>
      </trkpt>
      <trkpt lat="59.9765283" lon="17.7394917">
        <ele>11.1925</ele>
        <time>2013-04-01T17:50:15Z</time>
      </trkpt>
      <trkpt lat="59.9765175" lon="17.7395064">
        <ele>11.6732</ele>
        <time>2013-04-01T17:50:16Z</time>
      </trkpt>
      <trkpt lat="59.9765071" lon="17.7395211">
        <ele>11.6732</ele>
        <time>2013-04-01T17:50:17Z</time>
      </trkpt>
      <trkpt lat="59.9764976" lon="17.7395361">
        <ele>11.6732</ele>
        <time>2013-04-01T17:50:18Z</time>
      </trkpt>
      <trkpt lat="59.9764883" lon="17.7395518">
        <ele>11.6732</ele>
        <time>2013-04-01T17:50:19Z</time>
      </trkpt>
      <trkpt lat="59.9764789" lon="17.7395671">
        <ele>11.6732</ele>
        <time>2013-04-01T17:50:20Z</time>
      </trkpt>
      <trkpt lat="59.9764696" lon="17.7395812">
        <ele>11.6732</ele>
        <time>2013-04-01T17:50:21Z</time>
      </trkpt>
      <trkpt lat="59.9764595" lon="17.7395961">
        <ele>11.6732</ele>
        <time>2013-04-01T17:50:22Z</time>
      </trkpt>
      <trkpt lat="59.9764495" lon="17.7396117">
        <ele>11.6732</ele>
        <time>2013-04-01T17:50:23Z</time>
      </trkpt>
      <trkpt lat="59.9764398" lon="17.7396282">
        <ele>11.6732</ele>
        <time>2013-04-01T17:50:24Z</time>
      </trkpt>
      <trkpt lat="59.9764315" lon="17.739643">
        <ele>11.6732</ele>
        <time>2013-04-01T17:50:25Z</time>
      </trkpt>
      <trkpt lat="59.9764223" lon="17.7396585">
        <ele>11.6732</ele>
        <time>2013-04-01T17:50:26Z</time>
      </trkpt>
      <trkpt lat="59.9764132" lon="17.739676">
        <ele>11.6732</ele>
        <time>2013-04-01T17:50:27Z</time>
      </trkpt>
      <trkpt lat="59.9764057" lon="17.7396936">
        <ele>11.6732</ele>
        <time>2013-04-01T17:50:28Z</time>
      </trkpt>
      <trkpt lat="59.9763978" lon="17.7397142">
        <ele>11.6732</ele>
        <time>2013-04-01T17:50:29Z</time>
      </trkpt>
      <trkpt lat="59.9763926" lon="17.7397313">
        <ele>11.1925</ele>
        <time>2013-04-01T17:50:30Z</time>
      </trkpt>
      <trkpt lat="59.9763881" lon="17.7397452">
        <ele>11.1925</ele>
        <time>2013-04-01T17:50:31Z</time>
      </trkpt>
      <trkpt lat="59.9763816" lon="17.7397659">
        <ele>11.1925</ele>
        <time>2013-04-01T17:50:32Z</time>
      </trkpt>
      <trkpt lat="59.9763744" lon="17.7397884">
        <ele>11.1925</ele>
        <time>2013-04-01T17:50:33Z</time>
      </trkpt>
      <trkpt lat="59.9763681" lon="17.73981">
        <ele>11.1925</ele>
        <time>2013-04-01T17:50:34Z</time>
      </trkpt>
      <trkpt lat="59.9763626" lon="17.7398273">
        <ele>11.1925</ele>
        <time>2013-04-01T17:50:35Z</time>
      </trkpt>
      <trkpt lat="59.9763569" lon="17.7398449">
        <ele>11.1925</ele>
        <time>2013-04-01T17:50:36Z</time>
      </trkpt>
      <trkpt lat="59.9763508" lon="17.7398646">
        <ele>10.7118</ele>
        <time>2013-04-01T17:50:37Z</time>
      </trkpt>
      <trkpt lat="59.9763437" lon="17.7398848">
        <ele>10.7118</ele>
        <time>2013-04-01T17:50:38Z</time>
      </trkpt>
      <trkpt lat="59.9763377" lon="17.7398998">
        <ele>10.7118</ele>
        <time>2013-04-01T17:50:39Z</time>
      </trkpt>
      <trkpt lat="59.9763316" lon="17.7399177">
        <ele>10.7118</ele>
        <time>2013-04-01T17:50:40Z</time>
      </trkpt>
      <trkpt lat="59.9763257" lon="17.7399377">
        <ele>10.7118</ele>
        <time>2013-04-01T17:50:41Z</time>
      </trkpt>
      <trkpt lat="59.9763191" lon="17.7399582">
        <ele>10.7118</ele>
        <time>2013-04-01T17:50:42Z</time>
      </trkpt>
      <trkpt lat="59.9763129" lon="17.7399773">
        <ele>10.7118</ele>
        <time>2013-04-01T17:50:43Z</time>
      </trkpt>
      <trkpt lat="59.9763087" lon="17.7399915">
        <ele>10.7118</ele>
        <time>2013-04-01T17:50:44Z</time>
      </trkpt>
      <trkpt lat="59.9763064" lon="17.7400018">
        <ele>10.2312</ele>
        <time>2013-04-01T17:50:45Z</time>
      </trkpt>
      <trkpt lat="59.9763033" lon="17.7400154">
        <ele>9.75061</ele>
        <time>2013-04-01T17:50:46Z</time>
      </trkpt>
      <trkpt lat="59.9762989" lon="17.7400298">
        <ele>9.75061</ele>
        <time>2013-04-01T17:50:47Z</time>
      </trkpt>
      <trkpt lat="59.9762946" lon="17.7400446">
        <ele>9.2699</ele>
        <time>2013-04-01T17:50:48Z</time>
      </trkpt>
      <trkpt lat="59.9762901" lon="17.740061">
        <ele>9.2699</ele>
        <time>2013-04-01T17:50:49Z</time>
      </trkpt>
      <trkpt lat="59.9762854" lon="17.7400778">
        <ele>8.78918</ele>
        <time>2013-04-01T17:50:50Z</time>
      </trkpt>
      <trkpt lat="59.9762811" lon="17.7400945">
        <ele>8.78918</ele>
        <time>2013-04-01T17:50:51Z</time>
      </trkpt>
      <trkpt lat="59.9762769" lon="17.7401125">
        <ele>8.30859</ele>
        <time>2013-04-01T17:50:52Z</time>
      </trkpt>
      <trkpt lat="59.9762725" lon="17.7401298">
        <ele>8.30859</ele>
        <time>2013-04-01T17:50:53Z</time>
      </trkpt>
      <trkpt lat="59.9762655" lon="17.7401534">
        <ele>8.30859</ele>
        <time>2013-04-01T17:50:54Z</time>
      </trkpt>
      <trkpt lat="59.9762612" lon="17.7401707">
        <ele>8.30859</ele>
        <time>2013-04-01T17:50:55Z</time>
      </trkpt>
      <trkpt lat="59.9762565" lon="17.74019">
        <ele>7.82788</ele>
        <time>2013-04-01T17:50:56Z</time>
      </trkpt>
      <trkpt lat="59.9762546" lon="17.7402048">
        <ele>7.82788</ele>
        <time>2013-04-01T17:50:57Z</time>
      </trkpt>
      <trkpt lat="59.9762516" lon="17.740222">
        <ele>7.34717</ele>
        <time>2013-04-01T17:50:58Z</time>
      </trkpt>
      <trkpt lat="59.9762472" lon="17.7402392">
        <ele>6.86646</ele>
        <time>2013-04-01T17:50:59Z</time>
      </trkpt>
      <trkpt lat="59.9762429" lon="17.7402566">
        <ele>6.38586</ele>
        <time>2013-04-01T17:51:00Z</time>
      </trkpt>
      <trkpt lat="59.9762372" lon="17.7402753">
        <ele>6.38586</ele>
        <time>2013-04-01T17:51:01Z</time>
      </trkpt>
      <trkpt lat="59.9762322" lon="17.7402923">
        <ele>5.90527</ele>
        <time>2013-04-01T17:51:02Z</time>
      </trkpt>
      <trkpt lat="59.9762274" lon="17.7403075">
        <ele>5.42456</ele>
        <time>2013-04-01T17:51:03Z</time>
      </trkpt>
      <trkpt lat="59.9762232" lon="17.7403225">
        <ele>5.42456</ele>
        <time>2013-04-01T17:51:04Z</time>
      </trkpt>
      <trkpt lat="59.9762195" lon="17.740338">
        <ele>4.94385</ele>
        <time>2013-04-01T17:51:05Z</time>
      </trkpt>
      <trkpt lat="59.9762155" lon="17.7403541">
        <ele>4.46326</ele>
        <time>2013-04-01T17:51:06Z</time>
      </trkpt>
      <trkpt lat="59.9762113" lon="17.7403708">
        <ele>4.46326</ele>
        <time>2013-04-01T17:51:07Z</time>
      </trkpt>
      <trkpt lat="59.9762089" lon="17.7403827">
        <ele>3.50195</ele>
        <time>2013-04-01T17:51:08Z</time>
      </trkpt>
      <trkpt lat="59.976204" lon="17.7404013">
        <ele>3.50195</ele>
        <time>2013-04-01T17:51:09Z</time>
      </trkpt>
      <trkpt lat="59.9762015" lon="17.7404167">
        <ele>3.02124</ele>
        <time>2013-04-01T17:51:10Z</time>
      </trkpt>
      <trkpt lat="59.9761961" lon="17.7404383">
        <ele>3.02124</ele>
        <time>2013-04-01T17:51:11Z</time>
      </trkpt>
      <trkpt lat="59.976191" lon="17.7404565">
        <ele>2.54065</ele>
        <time>2013-04-01T17:51:12Z</time>
      </trkpt>
      <trkpt lat="59.9761845" lon="17.7404763">
        <ele>2.54065</ele>
        <time>2013-04-01T17:51:13Z</time>
      </trkpt>
      <trkpt lat="59.9761798" lon="17.7404943">
        <ele>2.06006</ele>
        <time>2013-04-01T17:51:14Z</time>
      </trkpt>
      <trkpt lat="59.9761733" lon="17.7405188">
        <ele>2.54065</ele>
        <time>2013-04-01T17:51:15Z</time>
      </trkpt>
      <trkpt lat="59.9761672" lon="17.7405427">
        <ele>2.54065</ele>
        <time>2013-04-01T17:51:16Z</time>
      </trkpt>
      <trkpt lat="59.9761628" lon="17.7405623">
        <ele>2.06006</ele>
        <time>2013-04-01T17:51:17Z</time>
      </trkpt>
      <trkpt lat="59.9761593" lon="17.7405798">
        <ele>2.06006</ele>
        <time>2013-04-01T17:51:18Z</time>
      </trkpt>
      <trkpt lat="59.9761559" lon="17.7405976">
        <ele>1.57935</ele>
        <time>2013-04-01T17:51:19Z</time>
      </trkpt>
      <trkpt lat="59.9761523" lon="17.7406157">
        <ele>1.09863</ele>
        <time>2013-04-01T17:51:20Z</time>
      </trkpt>
      <trkpt lat="59.9761491" lon="17.7406322">
        <ele>1.09863</ele>
        <time>2013-04-01T17:51:21Z</time>
      </trkpt>
      <trkpt lat="59.9761457" lon="17.7406483">
        <ele>0.618042</ele>
        <time>2013-04-01T17:51:22Z</time>
      </trkpt>
      <trkpt lat="59.9761425" lon="17.7406644">
        <ele>0.137451</ele>
        <time>2013-04-01T17:51:23Z</time>
      </trkpt>
      <trkpt lat="59.9761393" lon="17.7406809">
        <ele>0.137451</ele>
        <time>2013-04-01T17:51:24Z</time>
      </trkpt>
      <trkpt lat="59.9761355" lon="17.7406984">
        <ele>0</ele>
        <time>2013-04-01T17:51:25Z</time>
      </trkpt>
      <trkpt lat="59.9761317" lon="17.7407166">
        <ele>0</ele>
        <time>2013-04-01T17:51:26Z</time>
      </trkpt>
      <trkpt lat="59.9761285" lon="17.7407352">
        <ele>0</ele>
        <time>2013-04-01T17:51:27Z</time>
      </trkpt>
      <trkpt lat="59.9761248" lon="17.7407551">
        <ele>0</ele>
        <time>2013-04-01T17:51:28Z</time>
      </trkpt>
      <trkpt lat="59.9761212" lon="17.7407751">
        <ele>0</ele>
        <time>2013-04-01T17:51:29Z</time>
      </trkpt>
      <trkpt lat="59.9761171" lon="17.7407952">
        <ele>0</ele>
        <time>2013-04-01T17:51:30Z</time>
      </trkpt>
      <trkpt lat="59.9761128" lon="17.7408154">
        <ele>0</ele>
        <time>2013-04-01T17:51:31Z</time>
      </trkpt>
      <trkpt lat="59.9761083" lon="17.7408348">
        <ele>0</ele>
        <time>2013-04-01T17:51:32Z</time>
      </trkpt>
      <trkpt lat="59.9761036" lon="17.740855">
        <ele>0</ele>
        <time>2013-04-01T17:51:33Z</time>
      </trkpt>
      <trkpt lat="59.9760992" lon="17.7408748">
        <ele>0</ele>
        <time>2013-04-01T17:51:34Z</time>
      </trkpt>
      <trkpt lat="59.9760947" lon="17.7408937">
        <ele>0</ele>
        <time>2013-04-01T17:51:35Z</time>
      </trkpt>
      <trkpt lat="59.9760907" lon="17.7409126">
        <ele>0</ele>
        <time>2013-04-01T17:51:36Z</time>
      </trkpt>
      <trkpt lat="59.976087" lon="17.7409332">
        <ele>0</ele>
        <time>2013-04-01T17:51:37Z</time>
      </trkpt>
      <trkpt lat="59.9760828" lon="17.7409551">
        <ele>0</ele>
        <time>2013-04-01T17:51:38Z</time>
      </trkpt>
      <trkpt lat="59.976078" lon="17.7409762">
        <ele>0</ele>
        <time>2013-04-01T17:51:39Z</time>
      </trkpt>
      <trkpt lat="59.976073" lon="17.7409973">
        <ele>0</ele>
        <time>2013-04-01T17:51:40Z</time>
      </trkpt>
      <trkpt lat="59.9760692" lon="17.741018">
        <ele>0</ele>
        <time>2013-04-01T17:51:41Z</time>
      </trkpt>
      <trkpt lat="59.9760654" lon="17.7410387">
        <ele>0</ele>
        <time>2013-04-01T17:51:42Z</time>
      </trkpt>
      <trkpt lat="59.9760614" lon="17.7410575">
        <ele>0</ele>
        <time>2013-04-01T17:51:43Z</time>
      </trkpt>
      <trkpt lat="59.9760564" lon="17.7410781">
        <ele>0</ele>
        <time>2013-04-01T17:51:44Z</time>
      </trkpt>
      <trkpt lat="59.9760519" lon="17.7410994">
        <ele>0</ele>
        <time>2013-04-01T17:51:45Z</time>
      </trkpt>
      <trkpt lat="59.9760465" lon="17.7411244">
        <ele>0</ele>
        <time>2013-04-01T17:51:46Z</time>
      </trkpt>
      <trkpt lat="59.9760403" lon="17.7411513">
        <ele>0</ele>
        <time>2013-04-01T17:51:47Z</time>
      </trkpt>
      <trkpt lat="59.9760336" lon="17.7411781">
        <ele>0</ele>
        <time>2013-04-01T17:51:48Z</time>
      </trkpt>
      <trkpt lat="59.9760267" lon="17.7412042">
        <ele>0</ele>
        <time>2013-04-01T17:51:49Z</time>
      </trkpt>
      <trkpt lat="59.9760208" lon="17.7412305">
        <ele>0</ele>
        <time>2013-04-01T17:51:50Z</time>
      </trkpt>
      <trkpt lat="59.9760159" lon="17.7412552">
        <ele>0</ele>
        <time>2013-04-01T17:51:51Z</time>
      </trkpt>
      <trkpt lat="59.9760093" lon="17.7412801">
        <ele>0</ele>
        <time>2013-04-01T17:51:52Z</time>
      </trkpt>
      <trkpt lat="59.9760015" lon="17.7413058">
        <ele>0</ele>
        <time>2013-04-01T17:51:53Z</time>
      </trkpt>
      <trkpt lat="59.9759938" lon="17.7413329">
        <ele>0.137451</ele>
        <time>2013-04-01T17:51:54Z</time>
      </trkpt>
      <trkpt lat="59.9759866" lon="17.7413599">
        <ele>0.137451</ele>
        <time>2013-04-01T17:51:55Z</time>
      </trkpt>
      <trkpt lat="59.9759786" lon="17.7413905">
        <ele>0.618042</ele>
        <time>2013-04-01T17:51:56Z</time>
      </trkpt>
      <trkpt lat="59.9759752" lon="17.7414096">
        <ele>0.618042</ele>
        <time>2013-04-01T17:51:57Z</time>
      </trkpt>
      <trkpt lat="59.9759709" lon="17.7414304">
        <ele>0.618042</ele>
        <time>2013-04-01T17:51:58Z</time>
      </trkpt>
      <trkpt lat="59.9759674" lon="17.7414522">
        <ele>0.137451</ele>
        <time>2013-04-01T17:51:59Z</time>
      </trkpt>
      <trkpt lat="59.9759653" lon="17.7414736">
        <ele>0.137451</ele>
        <time>2013-04-01T17:52:00Z</time>
      </trkpt>
      <trkpt lat="59.9759637" lon="17.7414942">
        <ele>0</ele>
        <time>2013-04-01T17:52:01Z</time>
      </trkpt>
      <trkpt lat="59.9759596" lon="17.7415195">
        <ele>0</ele>
        <time>2013-04-01T17:52:02Z</time>
      </trkpt>
      <trkpt lat="59.9759561" lon="17.7415446">
        <ele>0</ele>
        <time>2013-04-01T17:52:03Z</time>
      </trkpt>
      <trkpt lat="59.9759534" lon="17.7415696">
        <ele>0</ele>
        <time>2013-04-01T17:52:04Z</time>
      </trkpt>
      <trkpt lat="59.9759519" lon="17.7415938">
        <ele>0</ele>
        <time>2013-04-01T17:52:05Z</time>
      </trkpt>
      <trkpt lat="59.9759485" lon="17.7416196">
        <ele>0</ele>
        <time>2013-04-01T17:52:06Z</time>
      </trkpt>
      <trkpt lat="59.9759442" lon="17.7416429">
        <ele>0</ele>
        <time>2013-04-01T17:52:07Z</time>
      </trkpt>
      <trkpt lat="59.9759384" lon="17.7416651">
        <ele>0</ele>
        <time>2013-04-01T17:52:08Z</time>
      </trkpt>
      <trkpt lat="59.9759342" lon="17.7416881">
        <ele>0</ele>
        <time>2013-04-01T17:52:09Z</time>
      </trkpt>
      <trkpt lat="59.9759305" lon="17.7417112">
        <ele>0</ele>
        <time>2013-04-01T17:52:10Z</time>
      </trkpt>
      <trkpt lat="59.9759255" lon="17.7417336">
        <ele>0</ele>
        <time>2013-04-01T17:52:11Z</time>
      </trkpt>
      <trkpt lat="59.9759228" lon="17.741751">
        <ele>0</ele>
        <time>2013-04-01T17:52:12Z</time>
      </trkpt>
      <trkpt lat="59.9759208" lon="17.7417692">
        <ele>0</ele>
        <time>2013-04-01T17:52:13Z</time>
      </trkpt>
      <trkpt lat="59.9759182" lon="17.7417916">
        <ele>0</ele>
        <time>2013-04-01T17:52:14Z</time>
      </trkpt>
      <trkpt lat="59.9759155" lon="17.7418128">
        <ele>0</ele>
        <time>2013-04-01T17:52:15Z</time>
      </trkpt>
      <trkpt lat="59.9759138" lon="17.7418297">
        <ele>0</ele>
        <time>2013-04-01T17:52:16Z</time>
      </trkpt>
      <trkpt lat="59.975912" lon="17.7418468">
        <ele>0</ele>
        <time>2013-04-01T17:52:17Z</time>
      </trkpt>
      <trkpt lat="59.9759118" lon="17.7418667">
        <ele>0</ele>
        <time>2013-04-01T17:52:18Z</time>
      </trkpt>
      <trkpt lat="59.9759107" lon="17.7418827">
        <ele>0</ele>
        <time>2013-04-01T17:52:19Z</time>
      </trkpt>
      <trkpt lat="59.9759092" lon="17.7418955">
        <ele>0</ele>
        <time>2013-04-01T17:52:20Z</time>
      </trkpt>
      <trkpt lat="59.9759073" lon="17.7419071">
        <ele>0</ele>
        <time>2013-04-01T17:52:21Z</time>
      </trkpt>
      <trkpt lat="59.9759041" lon="17.7419215">
        <ele>0</ele>
        <time>2013-04-01T17:52:22Z</time>
      </trkpt>
      <trkpt lat="59.9759015" lon="17.74194">
        <ele>0</ele>
        <time>2013-04-01T17:52:23Z</time>
      </trkpt>
      <trkpt lat="59.9758958" lon="17.7419673">
        <ele>0</ele>
        <time>2013-04-01T17:52:24Z</time>
      </trkpt>
      <trkpt lat="59.9758907" lon="17.7419893">
        <ele>0</ele>
        <time>2013-04-01T17:52:25Z</time>
      </trkpt>
      <trkpt lat="59.9758886" lon="17.7420003">
        <ele>0</ele>
        <time>2013-04-01T17:52:26Z</time>
      </trkpt>
      <trkpt lat="59.9758858" lon="17.7420198">
        <ele>0</ele>
        <time>2013-04-01T17:52:27Z</time>
      </trkpt>
      <trkpt lat="59.975884" lon="17.7420359">
        <ele>0</ele>
        <time>2013-04-01T17:52:28Z</time>
      </trkpt>
      <trkpt lat="59.9758817" lon="17.7420505">
        <ele>0</ele>
        <time>2013-04-01T17:52:29Z</time>
      </trkpt>
      <trkpt lat="59.9758806" lon="17.7420661">
        <ele>0</ele>
        <time>2013-04-01T17:52:30Z</time>
      </trkpt>
      <trkpt lat="59.9758782" lon="17.7420821">
        <ele>0</ele>
        <time>2013-04-01T17:52:31Z</time>
      </trkpt>
      <trkpt lat="59.9758753" lon="17.7420985">
        <ele>0</ele>
        <time>2013-04-01T17:52:32Z</time>
      </trkpt>
      <trkpt lat="59.9758653" lon="17.7421239">
        <ele>0</ele>
        <time>2013-04-01T17:52:33Z</time>
      </trkpt>
      <trkpt lat="59.975859" lon="17.7421429">
        <ele>0</ele>
        <time>2013-04-01T17:52:34Z</time>
      </trkpt>
      <trkpt lat="59.9758529" lon="17.7421617">
        <ele>0</ele>
        <time>2013-04-01T17:52:35Z</time>
      </trkpt>
      <trkpt lat="59.9758503" lon="17.7421702">
        <ele>0</ele>
        <time>2013-04-01T17:52:36Z</time>
      </trkpt>
      <trkpt lat="59.975844" lon="17.7421889">
        <ele>0</ele>
        <time>2013-04-01T17:52:37Z</time>
      </trkpt>
      <trkpt lat="59.9758372" lon="17.7422052">
        <ele>0</ele>
        <time>2013-04-01T17:52:38Z</time>
      </trkpt>
      <trkpt lat="59.9758304" lon="17.742222">
        <ele>0</ele>
        <time>2013-04-01T17:52:39Z</time>
      </trkpt>
      <trkpt lat="59.9758226" lon="17.7422391">
        <ele>0</ele>
        <time>2013-04-01T17:52:40Z</time>
      </trkpt>
      <trkpt lat="59.9758166" lon="17.7422582">
        <ele>0</ele>
        <time>2013-04-01T17:52:41Z</time>
      </trkpt>
      <trkpt lat="59.9758107" lon="17.7422817">
        <ele>0</ele>
        <time>2013-04-01T17:52:42Z</time>
      </trkpt>
      <trkpt lat="59.9758017" lon="17.7423065">
        <ele>0</ele>
        <time>2013-04-01T17:52:43Z</time>
      </trkpt>
      <trkpt lat="59.9757959" lon="17.7423335">
        <ele>0</ele>
        <time>2013-04-01T17:52:44Z</time>
      </trkpt>
      <trkpt lat="59.9757907" lon="17.7423529">
        <ele>0</ele>
        <time>2013-04-01T17:52:45Z</time>
      </trkpt>
      <trkpt lat="59.975787" lon="17.742368">
        <ele>0</ele>
        <time>2013-04-01T17:52:46Z</time>
      </trkpt>
      <trkpt lat="59.9757799" lon="17.7423878">
        <ele>0</ele>
        <time>2013-04-01T17:52:47Z</time>
      </trkpt>
      <trkpt lat="59.9757744" lon="17.7424094">
        <ele>0</ele>
        <time>2013-04-01T17:52:48Z</time>
      </trkpt>
      <trkpt lat="59.9757672" lon="17.7424309">
        <ele>0</ele>
        <time>2013-04-01T17:52:49Z</time>
      </trkpt>
      <trkpt lat="59.975761" lon="17.7424483">
        <ele>0</ele>
        <time>2013-04-01T17:52:50Z</time>
      </trkpt>
      <trkpt lat="59.975755" lon="17.7424658">
        <ele>0</ele>
        <time>2013-04-01T17:52:51Z</time>
      </trkpt>
      <trkpt lat="59.9757499" lon="17.7424808">
        <ele>0</ele>
        <time>2013-04-01T17:52:52Z</time>
      </trkpt>
      <trkpt lat="59.9757439" lon="17.7424935">
        <ele>0</ele>
        <time>2013-04-01T17:52:53Z</time>
      </trkpt>
      <trkpt lat="59.9757363" lon="17.7425093">
        <ele>0</ele>
        <time>2013-04-01T17:52:54Z</time>
      </trkpt>
      <trkpt lat="59.975727" lon="17.7425261">
        <ele>0</ele>
        <time>2013-04-01T17:52:55Z</time>
      </trkpt>
      <trkpt lat="59.9757181" lon="17.7425409">
        <ele>0</ele>
        <time>2013-04-01T17:52:56Z</time>
      </trkpt>
      <trkpt lat="59.9757093" lon="17.7425655">
        <ele>0</ele>
        <time>2013-04-01T17:52:57Z</time>
      </trkpt>
      <trkpt lat="59.9757006" lon="17.742593">
        <ele>0</ele>
        <time>2013-04-01T17:52:58Z</time>
      </trkpt>
      <trkpt lat="59.9756924" lon="17.7426199">
        <ele>0</ele>
        <time>2013-04-01T17:52:59Z</time>
      </trkpt>
      <trkpt lat="59.9756859" lon="17.7426468">
        <ele>0</ele>
        <time>2013-04-01T17:53:00Z</time>
      </trkpt>
      <trkpt lat="59.9756778" lon="17.7426753">
        <ele>0</ele>
        <time>2013-04-01T17:53:01Z</time>
      </trkpt>
      <trkpt lat="59.9756742" lon="17.7426888">
        <ele>0</ele>
        <time>2013-04-01T17:53:02Z</time>
      </trkpt>
      <trkpt lat="59.9756693" lon="17.7426996">
        <ele>0</ele>
        <time>2013-04-01T17:53:03Z</time>
      </trkpt>
      <trkpt lat="59.9756638" lon="17.7427115">
        <ele>0</ele>
        <time>2013-04-01T17:53:04Z</time>
      </trkpt>
      <trkpt lat="59.9756597" lon="17.7427271">
        <ele>0</ele>
        <time>2013-04-01T17:53:05Z</time>
      </trkpt>
      <trkpt lat="59.9756556" lon="17.7427471">
        <ele>0</ele>
        <time>2013-04-01T17:53:06Z</time>
      </trkpt>
      <trkpt lat="59.9756494" lon="17.7427678">
        <ele>0</ele>
        <time>2013-04-01T17:53:07Z</time>
      </trkpt>
      <trkpt lat="59.9756436" lon="17.7427887">
        <ele>0</ele>
        <time>2013-04-01T17:53:08Z</time>
      </trkpt>
      <trkpt lat="59.9756377" lon="17.7428089">
        <ele>0</ele>
        <time>2013-04-01T17:53:09Z</time>
      </trkpt>
      <trkpt lat="59.9756311" lon="17.7428334">
        <ele>0</ele>
        <time>2013-04-01T17:53:10Z</time>
      </trkpt>
      <trkpt lat="59.9756251" lon="17.7428527">
        <ele>0</ele>
        <time>2013-04-01T17:53:11Z</time>
      </trkpt>
      <trkpt lat="59.9756239" lon="17.7428743">
        <ele>0</ele>
        <time>2013-04-01T17:53:12Z</time>
      </trkpt>
      <trkpt lat="59.9756188" lon="17.7428965">
        <ele>0</ele>
        <time>2013-04-01T17:53:13Z</time>
      </trkpt>
      <trkpt lat="59.9756104" lon="17.7429171">
        <ele>0</ele>
        <time>2013-04-01T17:53:14Z</time>
      </trkpt>
      <trkpt lat="59.9756002" lon="17.7429398">
        <ele>0</ele>
        <time>2013-04-01T17:53:15Z</time>
      </trkpt>
      <trkpt lat="59.9755938" lon="17.74296">
        <ele>0</ele>
        <time>2013-04-01T17:53:16Z</time>
      </trkpt>
      <trkpt lat="59.9755875" lon="17.7429819">
        <ele>0</ele>
        <time>2013-04-01T17:53:17Z</time>
      </trkpt>
      <trkpt lat="59.9755795" lon="17.7430087">
        <ele>0</ele>
        <time>2013-04-01T17:53:18Z</time>
      </trkpt>
      <trkpt lat="59.9755731" lon="17.7430331">
        <ele>0</ele>
        <time>2013-04-01T17:53:19Z</time>
      </trkpt>
      <trkpt lat="59.9755706" lon="17.743048">
        <ele>0</ele>
        <time>2013-04-01T17:53:20Z</time>
      </trkpt>
      <trkpt lat="59.9755665" lon="17.7430596">
        <ele>0</ele>
        <time>2013-04-01T17:53:21Z</time>
      </trkpt>
      <trkpt lat="59.9755618" lon="17.7430758">
        <ele>0</ele>
        <time>2013-04-01T17:53:22Z</time>
      </trkpt>
      <trkpt lat="59.9755571" lon="17.7430943">
        <ele>0</ele>
        <time>2013-04-01T17:53:23Z</time>
      </trkpt>
      <trkpt lat="59.9755527" lon="17.7431151">
        <ele>0</ele>
        <time>2013-04-01T17:53:24Z</time>
      </trkpt>
      <trkpt lat="59.9755493" lon="17.7431295">
        <ele>0</ele>
        <time>2013-04-01T17:53:25Z</time>
      </trkpt>
      <trkpt lat="59.9755458" lon="17.7431483">
        <ele>0</ele>
        <time>2013-04-01T17:53:26Z</time>
      </trkpt>
      <trkpt lat="59.9755411" lon="17.7431675">
        <ele>0</ele>
        <time>2013-04-01T17:53:27Z</time>
      </trkpt>
      <trkpt lat="59.9755365" lon="17.7431874">
        <ele>0</ele>
        <time>2013-04-01T17:53:28Z</time>
      </trkpt>
      <trkpt lat="59.9755323" lon="17.7432091">
        <ele>0</ele>
        <time>2013-04-01T17:53:29Z</time>
      </trkpt>
      <trkpt lat="59.9755302" lon="17.7432306">
        <ele>0</ele>
        <time>2013-04-01T17:53:30Z</time>
      </trkpt>
      <trkpt lat="59.9755275" lon="17.7432565">
        <ele>0</ele>
        <time>2013-04-01T17:53:31Z</time>
      </trkpt>
      <trkpt lat="59.9755315" lon="17.7432791">
        <ele>0</ele>
        <time>2013-04-01T17:53:32Z</time>
      </trkpt>
      <trkpt lat="59.9755331" lon="17.743303">
        <ele>0</ele>
        <time>2013-04-01T17:53:33Z</time>
      </trkpt>
      <trkpt lat="59.9755295" lon="17.7433275">
        <ele>0</ele>
        <time>2013-04-01T17:53:34Z</time>
      </trkpt>
      <trkpt lat="59.9755198" lon="17.7433564">
        <ele>0</ele>
        <time>2013-04-01T17:53:35Z</time>
      </trkpt>
      <trkpt lat="59.9755135" lon="17.7433837">
        <ele>0</ele>
        <time>2013-04-01T17:53:36Z</time>
      </trkpt>
      <trkpt lat="59.9755141" lon="17.7434076">
        <ele>0</ele>
        <time>2013-04-01T17:53:37Z</time>
      </trkpt>
      <trkpt lat="59.9755114" lon="17.7434294">
        <ele>0</ele>
        <time>2013-04-01T17:53:38Z</time>
      </trkpt>
      <trkpt lat="59.9755125" lon="17.7434491">
        <ele>0</ele>
        <time>2013-04-01T17:53:39Z</time>
      </trkpt>
      <trkpt lat="59.9755134" lon="17.7434656">
        <ele>0</ele>
        <time>2013-04-01T17:53:40Z</time>
      </trkpt>
      <trkpt lat="59.9755095" lon="17.7434863">
        <ele>0</ele>
        <time>2013-04-01T17:53:41Z</time>
      </trkpt>
      <trkpt lat="59.9755074" lon="17.7435014">
        <ele>0</ele>
        <time>2013-04-01T17:53:42Z</time>
      </trkpt>
      <trkpt lat="59.9755051" lon="17.7435208">
        <ele>0</ele>
        <time>2013-04-01T17:53:43Z</time>
      </trkpt>
      <trkpt lat="59.9754971" lon="17.7435445">
        <ele>0</ele>
        <time>2013-04-01T17:53:44Z</time>
      </trkpt>
      <trkpt lat="59.9754877" lon="17.7435641">
        <ele>0</ele>
        <time>2013-04-01T17:53:45Z</time>
      </trkpt>
      <trkpt lat="59.9754835" lon="17.743572">
        <ele>0</ele>
        <time>2013-04-01T17:53:46Z</time>
      </trkpt>
      <trkpt lat="59.9754761" lon="17.7435837">
        <ele>0</ele>
        <time>2013-04-01T17:53:47Z</time>
      </trkpt>
      <trkpt lat="59.9754711" lon="17.7436014">
        <ele>0</ele>
        <time>2013-04-01T17:53:48Z</time>
      </trkpt>
      <trkpt lat="59.975467" lon="17.7436323">
        <ele>0</ele>
        <time>2013-04-01T17:53:49Z</time>
      </trkpt>
      <trkpt lat="59.9754717" lon="17.7436467">
        <ele>0</ele>
        <time>2013-04-01T17:53:50Z</time>
      </trkpt>
      <trkpt lat="59.9754701" lon="17.7436704">
        <ele>0</ele>
        <time>2013-04-01T17:53:51Z</time>
      </trkpt>
      <trkpt lat="59.9754636" lon="17.7436935">
        <ele>0</ele>
        <time>2013-04-01T17:53:52Z</time>
      </trkpt>
      <trkpt lat="59.9754588" lon="17.7437085">
        <ele>0</ele>
        <time>2013-04-01T17:53:53Z</time>
      </trkpt>
      <trkpt lat="59.9754586" lon="17.7437275">
        <ele>0</ele>
        <time>2013-04-01T17:53:54Z</time>
      </trkpt>
      <trkpt lat="59.975458" lon="17.7437486">
        <ele>0</ele>
        <time>2013-04-01T17:53:55Z</time>
      </trkpt>
      <trkpt lat="59.9754554" lon="17.7437698">
        <ele>0</ele>
        <time>2013-04-01T17:53:56Z</time>
      </trkpt>
      <trkpt lat="59.9754534" lon="17.7437947">
        <ele>0</ele>
        <time>2013-04-01T17:53:57Z</time>
      </trkpt>
      <trkpt lat="59.9754507" lon="17.7438236">
        <ele>0</ele>
        <time>2013-04-01T17:53:58Z</time>
      </trkpt>
      <trkpt lat="59.9754505" lon="17.7438491">
        <ele>0</ele>
        <time>2013-04-01T17:53:59Z</time>
      </trkpt>
      <trkpt lat="59.975444" lon="17.7438682">
        <ele>0</ele>
        <time>2013-04-01T17:54:00Z</time>
      </trkpt>
      <trkpt lat="59.97544" lon="17.7438843">
        <ele>0</ele>
        <time>2013-04-01T17:54:01Z</time>
      </trkpt>
      <trkpt lat="59.9754385" lon="17.7439007">
        <ele>0</ele>
        <time>2013-04-01T17:54:02Z</time>
      </trkpt>
      <trkpt lat="59.975439" lon="17.7439216">
        <ele>0</ele>
        <time>2013-04-01T17:54:03Z</time>
      </trkpt>
      <trkpt lat="59.9754354" lon="17.7439443">
        <ele>0</ele>
        <time>2013-04-01T17:54:04Z</time>
      </trkpt>
      <trkpt lat="59.9754307" lon="17.7439608">
        <ele>0</ele>
        <time>2013-04-01T17:54:05Z</time>
      </trkpt>
      <trkpt lat="59.9754284" lon="17.7439849">
        <ele>0</ele>
        <time>2013-04-01T17:54:06Z</time>
      </trkpt>
      <trkpt lat="59.9754178" lon="17.7440198">
        <ele>0</ele>
        <time>2013-04-01T17:54:07Z</time>
      </trkpt>
      <trkpt lat="59.9754089" lon="17.7440485">
        <ele>0</ele>
        <time>2013-04-01T17:54:08Z</time>
      </trkpt>
      <trkpt lat="59.9753977" lon="17.7440768">
        <ele>0</ele>
        <time>2013-04-01T17:54:09Z</time>
      </trkpt>
      <trkpt lat="59.9753889" lon="17.7441008">
        <ele>0</ele>
        <time>2013-04-01T17:54:10Z</time>
      </trkpt>
      <trkpt lat="59.9753842" lon="17.7441294">
        <ele>0</ele>
        <time>2013-04-01T17:54:11Z</time>
      </trkpt>
      <trkpt lat="59.9753816" lon="17.7441537">
        <ele>0</ele>
        <time>2013-04-01T17:54:12Z</time>
      </trkpt>
      <trkpt lat="59.9753727" lon="17.744184">
        <ele>0</ele>
        <time>2013-04-01T17:54:13Z</time>
      </trkpt>
      <trkpt lat="59.9753645" lon="17.7442048">
        <ele>0</ele>
        <time>2013-04-01T17:54:14Z</time>
      </trkpt>
      <trkpt lat="59.9753616" lon="17.7442184">
        <ele>0</ele>
        <time>2013-04-01T17:54:15Z</time>
      </trkpt>
      <trkpt lat="59.9753587" lon="17.7442328">
        <ele>0</ele>
        <time>2013-04-01T17:54:16Z</time>
      </trkpt>
      <trkpt lat="59.9753556" lon="17.7442501">
        <ele>0</ele>
        <time>2013-04-01T17:54:17Z</time>
      </trkpt>
      <trkpt lat="59.9753533" lon="17.7442723">
        <ele>0</ele>
        <time>2013-04-01T17:54:18Z</time>
      </trkpt>
      <trkpt lat="59.9753482" lon="17.7442863">
        <ele>0</ele>
        <time>2013-04-01T17:54:19Z</time>
      </trkpt>
      <trkpt lat="59.9753415" lon="17.744298">
        <ele>0</ele>
        <time>2013-04-01T17:54:20Z</time>
      </trkpt>
      <trkpt lat="59.9753354" lon="17.7443058">
        <ele>0</ele>
        <time>2013-04-01T17:54:21Z</time>
      </trkpt>
      <trkpt lat="59.9753281" lon="17.7443174">
        <ele>0</ele>
        <time>2013-04-01T17:54:22Z</time>
      </trkpt>
      <trkpt lat="59.9753253" lon="17.7443358">
        <ele>0</ele>
        <time>2013-04-01T17:54:23Z</time>
      </trkpt>
      <trkpt lat="59.9753188" lon="17.7443593">
        <ele>0</ele>
        <time>2013-04-01T17:54:24Z</time>
      </trkpt>
      <trkpt lat="59.9753111" lon="17.7443822">
        <ele>0</ele>
        <time>2013-04-01T17:54:25Z</time>
      </trkpt>
      <trkpt lat="59.9753029" lon="17.7443998">
        <ele>0</ele>
        <time>2013-04-01T17:54:26Z</time>
      </trkpt>
      <trkpt lat="59.9752944" lon="17.7444216">
        <ele>0</ele>
        <time>2013-04-01T17:54:27Z</time>
      </trkpt>
      <trkpt lat="59.9752831" lon="17.7444478">
        <ele>0</ele>
        <time>2013-04-01T17:54:28Z</time>
      </trkpt>
      <trkpt lat="59.9752788" lon="17.7444738">
        <ele>0</ele>
        <time>2013-04-01T17:54:29Z</time>
      </trkpt>
      <trkpt lat="59.9752778" lon="17.7444981">
        <ele>0</ele>
        <time>2013-04-01T17:54:30Z</time>
      </trkpt>
      <trkpt lat="59.9752695" lon="17.7445179">
        <ele>0</ele>
        <time>2013-04-01T17:54:31Z</time>
      </trkpt>
      <trkpt lat="59.9752619" lon="17.7445347">
        <ele>0.137451</ele>
        <time>2013-04-01T17:54:32Z</time>
      </trkpt>
      <trkpt lat="59.9752541" lon="17.7445489">
        <ele>0.137451</ele>
        <time>2013-04-01T17:54:33Z</time>
      </trkpt>
      <trkpt lat="59.9752466" lon="17.7445702">
        <ele>0.137451</ele>
        <time>2013-04-01T17:54:34Z</time>
      </trkpt>
      <trkpt lat="59.9752373" lon="17.744592">
        <ele>0.618042</ele>
        <time>2013-04-01T17:54:35Z</time>
      </trkpt>
      <trkpt lat="59.9752291" lon="17.7446127">
        <ele>1.09863</ele>
        <time>2013-04-01T17:54:36Z</time>
      </trkpt>
      <trkpt lat="59.9752228" lon="17.7446292">
        <ele>1.09863</ele>
        <time>2013-04-01T17:54:37Z</time>
      </trkpt>
      <trkpt lat="59.9752167" lon="17.7446456">
        <ele>1.09863</ele>
        <time>2013-04-01T17:54:38Z</time>
      </trkpt>
      <trkpt lat="59.9752088" lon="17.7446674">
        <ele>1.09863</ele>
        <time>2013-04-01T17:54:39Z</time>
      </trkpt>
      <trkpt lat="59.9751986" lon="17.7446944">
        <ele>1.57935</ele>
        <time>2013-04-01T17:54:40Z</time>
      </trkpt>
      <trkpt lat="59.9751889" lon="17.7447186">
        <ele>2.06006</ele>
        <time>2013-04-01T17:54:41Z</time>
      </trkpt>
      <trkpt lat="59.9751813" lon="17.7447378">
        <ele>2.06006</ele>
        <time>2013-04-01T17:54:42Z</time>
      </trkpt>
      <trkpt lat="59.9751742" lon="17.7447596">
        <ele>2.54065</ele>
        <time>2013-04-01T17:54:43Z</time>
      </trkpt>
      <trkpt lat="59.9751664" lon="17.7447846">
        <ele>2.54065</ele>
        <time>2013-04-01T17:54:44Z</time>
      </trkpt>
      <trkpt lat="59.9751565" lon="17.7448095">
        <ele>2.54065</ele>
        <time>2013-04-01T17:54:45Z</time>
      </trkpt>
      <trkpt lat="59.9751468" lon="17.7448328">
        <ele>3.02124</ele>
        <time>2013-04-01T17:54:46Z</time>
      </trkpt>
      <trkpt lat="59.9751406" lon="17.7448515">
        <ele>3.02124</ele>
        <time>2013-04-01T17:54:47Z</time>
      </trkpt>
      <trkpt lat="59.9751337" lon="17.7448735">
        <ele>3.50195</ele>
        <time>2013-04-01T17:54:48Z</time>
      </trkpt>
      <trkpt lat="59.9751282" lon="17.7448955">
        <ele>3.50195</ele>
        <time>2013-04-01T17:54:49Z</time>
      </trkpt>
      <trkpt lat="59.9751255" lon="17.7449149">
        <ele>3.50195</ele>
        <time>2013-04-01T17:54:50Z</time>
      </trkpt>
      <trkpt lat="59.975119" lon="17.7449373">
        <ele>3.50195</ele>
        <time>2013-04-01T17:54:51Z</time>
      </trkpt>
      <trkpt lat="59.9751127" lon="17.744956">
        <ele>3.50195</ele>
        <time>2013-04-01T17:54:52Z</time>
      </trkpt>
      <trkpt lat="59.975109" lon="17.7449679">
        <ele>3.50195</ele>
        <time>2013-04-01T17:54:53Z</time>
      </trkpt>
      <trkpt lat="59.9751043" lon="17.7449841">
        <ele>3.50195</ele>
        <time>2013-04-01T17:54:54Z</time>
      </trkpt>
      <trkpt lat="59.975101" lon="17.7449992">
        <ele>3.02124</ele>
        <time>2013-04-01T17:54:55Z</time>
      </trkpt>
      <trkpt lat="59.9750957" lon="17.7450177">
        <ele>3.02124</ele>
        <time>2013-04-01T17:54:56Z</time>
      </trkpt>
      <trkpt lat="59.9750894" lon="17.7450396">
        <ele>3.02124</ele>
        <time>2013-04-01T17:54:57Z</time>
      </trkpt>
      <trkpt lat="59.9750829" lon="17.7450626">
        <ele>3.02124</ele>
        <time>2013-04-01T17:54:58Z</time>
      </trkpt>
      <trkpt lat="59.9750757" lon="17.745084">
        <ele>3.02124</ele>
        <time>2013-04-01T17:54:59Z</time>
      </trkpt>
      <trkpt lat="59.9750681" lon="17.7451048">
        <ele>3.50195</ele>
        <time>2013-04-01T17:55:00Z</time>
      </trkpt>
      <trkpt lat="59.9750618" lon="17.7451229">
        <ele>3.50195</ele>
        <time>2013-04-01T17:55:01Z</time>
      </trkpt>
      <trkpt lat="59.9750558" lon="17.7451405">
        <ele>3.50195</ele>
        <time>2013-04-01T17:55:02Z</time>
      </trkpt>
      <trkpt lat="59.9750494" lon="17.7451592">
        <ele>3.50195</ele>
        <time>2013-04-01T17:55:03Z</time>
      </trkpt>
      <trkpt lat="59.9750426" lon="17.7451773">
        <ele>3.50195</ele>
        <time>2013-04-01T17:55:04Z</time>
      </trkpt>
      <trkpt lat="59.9750349" lon="17.7451949">
        <ele>3.50195</ele>
        <time>2013-04-01T17:55:05Z</time>
      </trkpt>
      <trkpt lat="59.9750281" lon="17.7452113">
        <ele>3.50195</ele>
        <time>2013-04-01T17:55:06Z</time>
      </trkpt>
      <trkpt lat="59.9750229" lon="17.7452291">
        <ele>3.50195</ele>
        <time>2013-04-01T17:55:07Z</time>
      </trkpt>
      <trkpt lat="59.9750171" lon="17.7452472">
        <ele>3.50195</ele>
        <time>2013-04-01T17:55:08Z</time>
      </trkpt>
      <trkpt lat="59.9750094" lon="17.7452683">
        <ele>3.50195</ele>
        <time>2013-04-01T17:55:09Z</time>
      </trkpt>
      <trkpt lat="59.9750003" lon="17.7452905">
        <ele>3.50195</ele>
        <time>2013-04-01T17:55:10Z</time>
      </trkpt>
      <trkpt lat="59.9749915" lon="17.7453128">
        <ele>3.50195</ele>
        <time>2013-04-01T17:55:11Z</time>
      </trkpt>
      <trkpt lat="59.9749837" lon="17.7453347">
        <ele>3.50195</ele>
        <time>2013-04-01T17:55:12Z</time>
      </trkpt>
      <trkpt lat="59.974977" lon="17.7453549">
        <ele>3.98267</ele>
        <time>2013-04-01T17:55:13Z</time>
      </trkpt>
      <trkpt lat="59.9749737" lon="17.7453679">
        <ele>3.50195</ele>
        <time>2013-04-01T17:55:14Z</time>
      </trkpt>
      <trkpt lat="59.9749633" lon="17.7453962">
        <ele>3.98267</ele>
        <time>2013-04-01T17:55:15Z</time>
      </trkpt>
      <trkpt lat="59.974954" lon="17.7454197">
        <ele>4.46326</ele>
        <time>2013-04-01T17:55:16Z</time>
      </trkpt>
      <trkpt lat="59.9749493" lon="17.7454307">
        <ele>3.98267</ele>
        <time>2013-04-01T17:55:17Z</time>
      </trkpt>
      <trkpt lat="59.9749449" lon="17.7454405">
        <ele>3.50195</ele>
        <time>2013-04-01T17:55:18Z</time>
      </trkpt>
      <trkpt lat="59.9749385" lon="17.7454561">
        <ele>3.50195</ele>
        <time>2013-04-01T17:55:19Z</time>
      </trkpt>
      <trkpt lat="59.9749304" lon="17.745475">
        <ele>3.50195</ele>
        <time>2013-04-01T17:55:20Z</time>
      </trkpt>
      <trkpt lat="59.9749223" lon="17.7454938">
        <ele>3.98267</ele>
        <time>2013-04-01T17:55:21Z</time>
      </trkpt>
      <trkpt lat="59.9749135" lon="17.7455136">
        <ele>3.98267</ele>
        <time>2013-04-01T17:55:22Z</time>
      </trkpt>
      <trkpt lat="59.9749045" lon="17.745533">
        <ele>3.98267</ele>
        <time>2013-04-01T17:55:23Z</time>
      </trkpt>
      <trkpt lat="59.9748952" lon="17.7455523">
        <ele>3.98267</ele>
        <time>2013-04-01T17:55:24Z</time>
      </trkpt>
      <trkpt lat="59.9748852" lon="17.7455718">
        <ele>4.46326</ele>
        <time>2013-04-01T17:55:25Z</time>
      </trkpt>
      <trkpt lat="59.9748744" lon="17.7455925">
        <ele>4.46326</ele>
        <time>2013-04-01T17:55:26Z</time>
      </trkpt>
      <trkpt lat="59.974865" lon="17.7456128">
        <ele>4.94385</ele>
        <time>2013-04-01T17:55:27Z</time>
      </trkpt>
      <trkpt lat="59.9748557" lon="17.745633">
        <ele>4.94385</ele>
        <time>2013-04-01T17:55:28Z</time>
      </trkpt>
      <trkpt lat="59.9748442" lon="17.7456575">
        <ele>5.42456</ele>
        <time>2013-04-01T17:55:29Z</time>
      </trkpt>
      <trkpt lat="59.9748343" lon="17.7456767">
        <ele>5.42456</ele>
        <time>2013-04-01T17:55:30Z</time>
      </trkpt>
      <trkpt lat="59.974824" lon="17.745698">
        <ele>5.90527</ele>
        <time>2013-04-01T17:55:31Z</time>
      </trkpt>
      <trkpt lat="59.9748182" lon="17.7457103">
        <ele>5.42456</ele>
        <time>2013-04-01T17:55:32Z</time>
      </trkpt>
      <trkpt lat="59.9748116" lon="17.7457239">
        <ele>5.42456</ele>
        <time>2013-04-01T17:55:33Z</time>
      </trkpt>
      <trkpt lat="59.9748037" lon="17.7457408">
        <ele>5.42456</ele>
        <time>2013-04-01T17:55:34Z</time>
      </trkpt>
      <trkpt lat="59.9747961" lon="17.7457573">
        <ele>5.42456</ele>
        <time>2013-04-01T17:55:35Z</time>
      </trkpt>
      <trkpt lat="59.9747878" lon="17.7457735">
        <ele>5.42456</ele>
        <time>2013-04-01T17:55:36Z</time>
      </trkpt>
      <trkpt lat="59.974779" lon="17.7457914">
        <ele>5.42456</ele>
        <time>2013-04-01T17:55:37Z</time>
      </trkpt>
      <trkpt lat="59.97477" lon="17.7458092">
        <ele>5.42456</ele>
        <time>2013-04-01T17:55:38Z</time>
      </trkpt>
      <trkpt lat="59.9747597" lon="17.7458263">
        <ele>5.42456</ele>
        <time>2013-04-01T17:55:39Z</time>
      </trkpt>
      <trkpt lat="59.9747485" lon="17.7458439">
        <ele>5.42456</ele>
        <time>2013-04-01T17:55:40Z</time>
      </trkpt>
      <trkpt lat="59.974739" lon="17.74586">
        <ele>5.90527</ele>
        <time>2013-04-01T17:55:41Z</time>
      </trkpt>
      <trkpt lat="59.9747273" lon="17.7458723">
        <ele>5.90527</ele>
        <time>2013-04-01T17:55:42Z</time>
      </trkpt>
      <trkpt lat="59.9747122" lon="17.745875">
        <ele>6.86646</ele>
        <time>2013-04-01T17:55:43Z</time>
      </trkpt>
      <trkpt lat="59.9747009" lon="17.7458932">
        <ele>7.34717</ele>
        <time>2013-04-01T17:55:44Z</time>
      </trkpt>
      <trkpt lat="59.974691" lon="17.7459092">
        <ele>7.34717</ele>
        <time>2013-04-01T17:55:45Z</time>
      </trkpt>
      <trkpt lat="59.9746784" lon="17.7459258">
        <ele>6.86646</ele>
        <time>2013-04-01T17:55:46Z</time>
      </trkpt>
      <trkpt lat="59.9746717" lon="17.7459505">
        <ele>5.90527</ele>
        <time>2013-04-01T17:55:47Z</time>
      </trkpt>
      <trkpt lat="59.974669" lon="17.7459841">
        <ele>5.42456</ele>
        <time>2013-04-01T17:55:48Z</time>
      </trkpt>
      <trkpt lat="59.9746644" lon="17.7460065">
        <ele>4.94385</ele>
        <time>2013-04-01T17:55:49Z</time>
      </trkpt>
      <trkpt lat="59.9746563" lon="17.7460247">
        <ele>4.94385</ele>
        <time>2013-04-01T17:55:50Z</time>
      </trkpt>
      <trkpt lat="59.974646" lon="17.7460381">
        <ele>4.46326</ele>
        <time>2013-04-01T17:55:51Z</time>
      </trkpt>
      <trkpt lat="59.974635" lon="17.7460549">
        <ele>4.46326</ele>
        <time>2013-04-01T17:55:52Z</time>
      </trkpt>
      <trkpt lat="59.9746251" lon="17.7460727">
        <ele>4.46326</ele>
        <time>2013-04-01T17:55:53Z</time>
      </trkpt>
      <trkpt lat="59.974617" lon="17.7460943">
        <ele>3.98267</ele>
        <time>2013-04-01T17:55:54Z</time>
      </trkpt>
      <trkpt lat="59.9746091" lon="17.7461123">
        <ele>3.98267</ele>
        <time>2013-04-01T17:55:55Z</time>
      </trkpt>
      <trkpt lat="59.9746012" lon="17.7461294">
        <ele>3.98267</ele>
        <time>2013-04-01T17:55:56Z</time>
      </trkpt>
      <trkpt lat="59.9745932" lon="17.7461409">
        <ele>3.50195</ele>
        <time>2013-04-01T17:55:57Z</time>
      </trkpt>
      <trkpt lat="59.9745872" lon="17.7461489">
        <ele>3.02124</ele>
        <time>2013-04-01T17:55:58Z</time>
      </trkpt>
      <trkpt lat="59.9745799" lon="17.7461603">
        <ele>2.54065</ele>
        <time>2013-04-01T17:55:59Z</time>
      </trkpt>
      <trkpt lat="59.9745698" lon="17.7461813">
        <ele>2.54065</ele>
        <time>2013-04-01T17:56:00Z</time>
      </trkpt>
      <trkpt lat="59.9745616" lon="17.7461956">
        <ele>2.06006</ele>
        <time>2013-04-01T17:56:01Z</time>
      </trkpt>
      <trkpt lat="59.9745547" lon="17.7462065">
        <ele>2.06006</ele>
        <time>2013-04-01T17:56:02Z</time>
      </trkpt>
      <trkpt lat="59.9745473" lon="17.7462174">
        <ele>1.57935</ele>
        <time>2013-04-01T17:56:03Z</time>
      </trkpt>
      <trkpt lat="59.9745385" lon="17.7462314">
        <ele>1.57935</ele>
        <time>2013-04-01T17:56:04Z</time>
      </trkpt>
      <trkpt lat="59.9745289" lon="17.7462442">
        <ele>1.09863</ele>
        <time>2013-04-01T17:56:05Z</time>
      </trkpt>
      <trkpt lat="59.9745204" lon="17.7462558">
        <ele>1.09863</ele>
        <time>2013-04-01T17:56:06Z</time>
      </trkpt>
      <trkpt lat="59.9745139" lon="17.7462616">
        <ele>0.618042</ele>
        <time>2013-04-01T17:56:07Z</time>
      </trkpt>
      <trkpt lat="59.9745045" lon="17.7462759">
        <ele>0.618042</ele>
        <time>2013-04-01T17:56:08Z</time>
      </trkpt>
      <trkpt lat="59.9744953" lon="17.7462901">
        <ele>0.618042</ele>
        <time>2013-04-01T17:56:09Z</time>
      </trkpt>
      <trkpt lat="59.974487" lon="17.7463007">
        <ele>0.137451</ele>
        <time>2013-04-01T17:56:10Z</time>
      </trkpt>
      <trkpt lat="59.9744755" lon="17.7463167">
        <ele>0.137451</ele>
        <time>2013-04-01T17:56:11Z</time>
      </trkpt>
      <trkpt lat="59.9744661" lon="17.7463278">
        <ele>0.137451</ele>
        <time>2013-04-01T17:56:12Z</time>
      </trkpt>
      <trkpt lat="59.9744579" lon="17.7463361">
        <ele>0.137451</ele>
        <time>2013-04-01T17:56:13Z</time>
      </trkpt>
      <trkpt lat="59.9744505" lon="17.7463444">
        <ele>0</ele>
        <time>2013-04-01T17:56:14Z</time>
      </trkpt>
      <trkpt lat="59.9744418" lon="17.7463588">
        <ele>0</ele>
        <time>2013-04-01T17:56:15Z</time>
      </trkpt>
      <trkpt lat="59.9744361" lon="17.7463651">
        <ele>0</ele>
        <time>2013-04-01T17:56:16Z</time>
      </trkpt>
      <trkpt lat="59.9744243" lon="17.7463847">
        <ele>0</ele>
        <time>2013-04-01T17:56:17Z</time>
      </trkpt>
      <trkpt lat="59.974415" lon="17.7463976">
        <ele>0</ele>
        <time>2013-04-01T17:56:18Z</time>
      </trkpt>
      <trkpt lat="59.974407" lon="17.7464081">
        <ele>0</ele>
        <time>2013-04-01T17:56:19Z</time>
      </trkpt>
      <trkpt lat="59.9743993" lon="17.7464182">
        <ele>0</ele>
        <time>2013-04-01T17:56:20Z</time>
      </trkpt>
      <trkpt lat="59.9743921" lon="17.7464271">
        <ele>0</ele>
        <time>2013-04-01T17:56:21Z</time>
      </trkpt>
      <trkpt lat="59.9743848" lon="17.7464364">
        <ele>0</ele>
        <time>2013-04-01T17:56:22Z</time>
      </trkpt>
      <trkpt lat="59.9743756" lon="17.7464464">
        <ele>0</ele>
        <time>2013-04-01T17:56:23Z</time>
      </trkpt>
      <trkpt lat="59.9743657" lon="17.7464561">
        <ele>0</ele>
        <time>2013-04-01T17:56:24Z</time>
      </trkpt>
      <trkpt lat="59.9743564" lon="17.7464659">
        <ele>0</ele>
        <time>2013-04-01T17:56:25Z</time>
      </trkpt>
      <trkpt lat="59.9743469" lon="17.7464753">
        <ele>0</ele>
        <time>2013-04-01T17:56:26Z</time>
      </trkpt>
      <trkpt lat="59.9743376" lon="17.7464868">
        <ele>0</ele>
        <time>2013-04-01T17:56:27Z</time>
      </trkpt>
      <trkpt lat="59.9743292" lon="17.7464982">
        <ele>0</ele>
        <time>2013-04-01T17:56:28Z</time>
      </trkpt>
      <trkpt lat="59.9743201" lon="17.7465096">
        <ele>0</ele>
        <time>2013-04-01T17:56:29Z</time>
      </trkpt>
      <trkpt lat="59.9743109" lon="17.7465228">
        <ele>0</ele>
        <time>2013-04-01T17:56:30Z</time>
      </trkpt>
      <trkpt lat="59.974302" lon="17.7465365">
        <ele>0</ele>
        <time>2013-04-01T17:56:31Z</time>
      </trkpt>
      <trkpt lat="59.9742936" lon="17.7465482">
        <ele>0</ele>
        <time>2013-04-01T17:56:32Z</time>
      </trkpt>
      <trkpt lat="59.9742847" lon="17.7465601">
        <ele>0</ele>
        <time>2013-04-01T17:56:33Z</time>
      </trkpt>
      <trkpt lat="59.9742764" lon="17.7465707">
        <ele>0</ele>
        <time>2013-04-01T17:56:34Z</time>
      </trkpt>
      <trkpt lat="59.974267" lon="17.7465831">
        <ele>0</ele>
        <time>2013-04-01T17:56:35Z</time>
      </trkpt>
      <trkpt lat="59.9742575" lon="17.7465948">
        <ele>0</ele>
        <time>2013-04-01T17:56:36Z</time>
      </trkpt>
      <trkpt lat="59.9742481" lon="17.746607">
        <ele>0</ele>
        <time>2013-04-01T17:56:37Z</time>
      </trkpt>
      <trkpt lat="59.9742377" lon="17.7466229">
        <ele>0</ele>
        <time>2013-04-01T17:56:38Z</time>
      </trkpt>
      <trkpt lat="59.9742279" lon="17.7466374">
        <ele>0</ele>
        <time>2013-04-01T17:56:39Z</time>
      </trkpt>
      <trkpt lat="59.9742199" lon="17.7466479">
        <ele>0</ele>
        <time>2013-04-01T17:56:40Z</time>
      </trkpt>
      <trkpt lat="59.9742118" lon="17.7466577">
        <ele>0</ele>
        <time>2013-04-01T17:56:41Z</time>
      </trkpt>
      <trkpt lat="59.9742034" lon="17.7466682">
        <ele>0</ele>
        <time>2013-04-01T17:56:42Z</time>
      </trkpt>
      <trkpt lat="59.9741958" lon="17.7466796">
        <ele>0</ele>
        <time>2013-04-01T17:56:43Z</time>
      </trkpt>
      <trkpt lat="59.974188" lon="17.7466912">
        <ele>0</ele>
        <time>2013-04-01T17:56:44Z</time>
      </trkpt>
      <trkpt lat="59.9741797" lon="17.7466991">
        <ele>0</ele>
        <time>2013-04-01T17:56:45Z</time>
      </trkpt>
      <trkpt lat="59.9741705" lon="17.746708">
        <ele>0</ele>
        <time>2013-04-01T17:56:46Z</time>
      </trkpt>
      <trkpt lat="59.9741603" lon="17.7467199">
        <ele>0</ele>
        <time>2013-04-01T17:56:47Z</time>
      </trkpt>
      <trkpt lat="59.9741497" lon="17.7467308">
        <ele>0</ele>
        <time>2013-04-01T17:56:48Z</time>
      </trkpt>
      <trkpt lat="59.9741398" lon="17.7467417">
        <ele>0</ele>
        <time>2013-04-01T17:56:49Z</time>
      </trkpt>
      <trkpt lat="59.974131" lon="17.7467537">
        <ele>0</ele>
        <time>2013-04-01T17:56:50Z</time>
      </trkpt>
      <trkpt lat="59.9741222" lon="17.746767">
        <ele>0</ele>
        <time>2013-04-01T17:56:51Z</time>
      </trkpt>
      <trkpt lat="59.9741124" lon="17.7467815">
        <ele>0</ele>
        <time>2013-04-01T17:56:52Z</time>
      </trkpt>
      <trkpt lat="59.9741031" lon="17.7467945">
        <ele>0</ele>
        <time>2013-04-01T17:56:53Z</time>
      </trkpt>
      <trkpt lat="59.974094" lon="17.7468069">
        <ele>0</ele>
        <time>2013-04-01T17:56:54Z</time>
      </trkpt>
      <trkpt lat="59.9740842" lon="17.7468197">
        <ele>0</ele>
        <time>2013-04-01T17:56:55Z</time>
      </trkpt>
      <trkpt lat="59.9740743" lon="17.7468327">
        <ele>0</ele>
        <time>2013-04-01T17:56:56Z</time>
      </trkpt>
      <trkpt lat="59.9740645" lon="17.7468453">
        <ele>0</ele>
        <time>2013-04-01T17:56:57Z</time>
      </trkpt>
      <trkpt lat="59.9740539" lon="17.7468585">
        <ele>0</ele>
        <time>2013-04-01T17:56:58Z</time>
      </trkpt>
      <trkpt lat="59.9740435" lon="17.7468743">
        <ele>0</ele>
        <time>2013-04-01T17:56:59Z</time>
      </trkpt>
      <trkpt lat="59.9740322" lon="17.7468934">
        <ele>0</ele>
        <time>2013-04-01T17:57:00Z</time>
      </trkpt>
      <trkpt lat="59.9740211" lon="17.74691">
        <ele>0</ele>
        <time>2013-04-01T17:57:01Z</time>
      </trkpt>
      <trkpt lat="59.9740101" lon="17.7469229">
        <ele>0</ele>
        <time>2013-04-01T17:57:02Z</time>
      </trkpt>
      <trkpt lat="59.9740003" lon="17.7469349">
        <ele>0</ele>
        <time>2013-04-01T17:57:03Z</time>
      </trkpt>
      <trkpt lat="59.9739899" lon="17.7469487">
        <ele>0</ele>
        <time>2013-04-01T17:57:04Z</time>
      </trkpt>
      <trkpt lat="59.9739793" lon="17.7469622">
        <ele>0</ele>
        <time>2013-04-01T17:57:05Z</time>
      </trkpt>
      <trkpt lat="59.9739676" lon="17.7469799">
        <ele>0</ele>
        <time>2013-04-01T17:57:06Z</time>
      </trkpt>
      <trkpt lat="59.97396" lon="17.7469875">
        <ele>0</ele>
        <time>2013-04-01T17:57:07Z</time>
      </trkpt>
      <trkpt lat="59.9739508" lon="17.7469938">
        <ele>0</ele>
        <time>2013-04-01T17:57:08Z</time>
      </trkpt>
      <trkpt lat="59.973942" lon="17.746997">
        <ele>0</ele>
        <time>2013-04-01T17:57:09Z</time>
      </trkpt>
      <trkpt lat="59.973929" lon="17.7470094">
        <ele>0</ele>
        <time>2013-04-01T17:57:10Z</time>
      </trkpt>
      <trkpt lat="59.9739153" lon="17.7470202">
        <ele>0</ele>
        <time>2013-04-01T17:57:11Z</time>
      </trkpt>
      <trkpt lat="59.9739016" lon="17.747032">
        <ele>0</ele>
        <time>2013-04-01T17:57:12Z</time>
      </trkpt>
      <trkpt lat="59.9738896" lon="17.747044">
        <ele>0</ele>
        <time>2013-04-01T17:57:13Z</time>
      </trkpt>
      <trkpt lat="59.9738776" lon="17.7470572">
        <ele>0</ele>
        <time>2013-04-01T17:57:14Z</time>
      </trkpt>
      <trkpt lat="59.9738658" lon="17.7470704">
        <ele>0</ele>
        <time>2013-04-01T17:57:15Z</time>
      </trkpt>
      <trkpt lat="59.973853" lon="17.7470878">
        <ele>0</ele>
        <time>2013-04-01T17:57:16Z</time>
      </trkpt>
      <trkpt lat="59.9738421" lon="17.7471009">
        <ele>0</ele>
        <time>2013-04-01T17:57:17Z</time>
      </trkpt>
      <trkpt lat="59.9738319" lon="17.7471123">
        <ele>0</ele>
        <time>2013-04-01T17:57:18Z</time>
      </trkpt>
      <trkpt lat="59.9738212" lon="17.7471245">
        <ele>0</ele>
        <time>2013-04-01T17:57:19Z</time>
      </trkpt>
      <trkpt lat="59.9737029" lon="17.7472083">
        <ele>10.7118</ele>
        <time>2013-04-01T17:57:20Z</time>
      </trkpt>
      <trkpt lat="59.9736612" lon="17.7472424">
        <ele>15.5184</ele>
        <time>2013-04-01T17:57:21Z</time>
      </trkpt>
      <trkpt lat="59.9736344" lon="17.7472637">
        <ele>17.9218</ele>
        <time>2013-04-01T17:57:22Z</time>
      </trkpt>
      <trkpt lat="59.9736136" lon="17.74728">
        <ele>19.8444</ele>
        <time>2013-04-01T17:57:23Z</time>
      </trkpt>
      <trkpt lat="59.973596" lon="17.7472966">
        <ele>20.8057</ele>
        <time>2013-04-01T17:57:24Z</time>
      </trkpt>
      <trkpt lat="59.9735802" lon="17.7473144">
        <ele>21.767</ele>
        <time>2013-04-01T17:57:25Z</time>
      </trkpt>
      <trkpt lat="59.9735646" lon="17.7473322">
        <ele>22.7283</ele>
        <time>2013-04-01T17:57:26Z</time>
      </trkpt>
      <trkpt lat="59.9735493" lon="17.7473473">
        <ele>23.209</ele>
        <time>2013-04-01T17:57:27Z</time>
      </trkpt>
      <trkpt lat="59.9735369" lon="17.7473603">
        <ele>23.6896</ele>
        <time>2013-04-01T17:57:28Z</time>
      </trkpt>
      <trkpt lat="59.9735161" lon="17.7473793">
        <ele>25.1317</ele>
        <time>2013-04-01T17:57:29Z</time>
      </trkpt>
      <trkpt lat="59.9734976" lon="17.7473959">
        <ele>26.5736</ele>
        <time>2013-04-01T17:57:30Z</time>
      </trkpt>
      <trkpt lat="59.9734887" lon="17.7474059">
        <ele>26.5736</ele>
        <time>2013-04-01T17:57:31Z</time>
      </trkpt>
      <trkpt lat="59.9734777" lon="17.7474162">
        <ele>26.5736</ele>
        <time>2013-04-01T17:57:32Z</time>
      </trkpt>
      <trkpt lat="59.9734667" lon="17.7474265">
        <ele>26.5736</ele>
        <time>2013-04-01T17:57:33Z</time>
      </trkpt>
      <trkpt lat="59.9734554" lon="17.7474388">
        <ele>27.0543</ele>
        <time>2013-04-01T17:57:34Z</time>
      </trkpt>
      <trkpt lat="59.9734436" lon="17.7474508">
        <ele>27.0543</ele>
        <time>2013-04-01T17:57:35Z</time>
      </trkpt>
      <trkpt lat="59.9734322" lon="17.7474627">
        <ele>27.0543</ele>
        <time>2013-04-01T17:57:36Z</time>
      </trkpt>
      <trkpt lat="59.9734209" lon="17.7474744">
        <ele>27.0543</ele>
        <time>2013-04-01T17:57:37Z</time>
      </trkpt>
      <trkpt lat="59.9734095" lon="17.747486">
        <ele>27.0543</ele>
        <time>2013-04-01T17:57:38Z</time>
      </trkpt>
      <trkpt lat="59.9733985" lon="17.7474974">
        <ele>27.0543</ele>
        <time>2013-04-01T17:57:39Z</time>
      </trkpt>
      <trkpt lat="59.9733878" lon="17.7475072">
        <ele>27.0543</ele>
        <time>2013-04-01T17:57:40Z</time>
      </trkpt>
      <trkpt lat="59.9733773" lon="17.7475187">
        <ele>27.0543</ele>
        <time>2013-04-01T17:57:41Z</time>
      </trkpt>
      <trkpt lat="59.9733669" lon="17.7475301">
        <ele>27.0543</ele>
        <time>2013-04-01T17:57:42Z</time>
      </trkpt>
      <trkpt lat="59.9733565" lon="17.7475429">
        <ele>27.0543</ele>
        <time>2013-04-01T17:57:43Z</time>
      </trkpt>
      <trkpt lat="59.9733458" lon="17.7475563">
        <ele>27.0543</ele>
        <time>2013-04-01T17:57:44Z</time>
      </trkpt>
      <trkpt lat="59.9733354" lon="17.7475679">
        <ele>27.0543</ele>
        <time>2013-04-01T17:57:45Z</time>
      </trkpt>
      <trkpt lat="59.9733244" lon="17.7475789">
        <ele>27.0543</ele>
        <time>2013-04-01T17:57:46Z</time>
      </trkpt>
      <trkpt lat="59.9733131" lon="17.7475902">
        <ele>27.0543</ele>
        <time>2013-04-01T17:57:47Z</time>
      </trkpt>
      <trkpt lat="59.9733022" lon="17.7476021">
        <ele>27.0543</ele>
        <time>2013-04-01T17:57:48Z</time>
      </trkpt>
      <trkpt lat="59.9732908" lon="17.747615">
        <ele>27.0543</ele>
        <time>2013-04-01T17:57:49Z</time>
      </trkpt>
      <trkpt lat="59.973279" lon="17.7476273">
        <ele>27.0543</ele>
        <time>2013-04-01T17:57:50Z</time>
      </trkpt>
      <trkpt lat="59.973267" lon="17.7476398">
        <ele>27.0543</ele>
        <time>2013-04-01T17:57:51Z</time>
      </trkpt>
      <trkpt lat="59.9732557" lon="17.7476517">
        <ele>26.5736</ele>
        <time>2013-04-01T17:57:52Z</time>
      </trkpt>
      <trkpt lat="59.973245" lon="17.7476637">
        <ele>26.5736</ele>
        <time>2013-04-01T17:57:53Z</time>
      </trkpt>
      <trkpt lat="59.9732341" lon="17.747676">
        <ele>26.5736</ele>
        <time>2013-04-01T17:57:54Z</time>
      </trkpt>
      <trkpt lat="59.9732234" lon="17.7476879">
        <ele>26.5736</ele>
        <time>2013-04-01T17:57:55Z</time>
      </trkpt>
      <trkpt lat="59.9732131" lon="17.7477">
        <ele>26.5736</ele>
        <time>2013-04-01T17:57:56Z</time>
      </trkpt>
      <trkpt lat="59.9732034" lon="17.7477118">
        <ele>26.5736</ele>
        <time>2013-04-01T17:57:57Z</time>
      </trkpt>
      <trkpt lat="59.9731939" lon="17.7477242">
        <ele>26.5736</ele>
        <time>2013-04-01T17:57:58Z</time>
      </trkpt>
      <trkpt lat="59.9731839" lon="17.7477372">
        <ele>26.5736</ele>
        <time>2013-04-01T17:57:59Z</time>
      </trkpt>
      <trkpt lat="59.9731736" lon="17.7477516">
        <ele>26.0929</ele>
        <time>2013-04-01T17:58:00Z</time>
      </trkpt>
      <trkpt lat="59.9731639" lon="17.7477652">
        <ele>26.0929</ele>
        <time>2013-04-01T17:58:01Z</time>
      </trkpt>
      <trkpt lat="59.9731546" lon="17.7477777">
        <ele>26.0929</ele>
        <time>2013-04-01T17:58:02Z</time>
      </trkpt>
      <trkpt lat="59.9731436" lon="17.7477943">
        <ele>26.0929</ele>
        <time>2013-04-01T17:58:03Z</time>
      </trkpt>
      <trkpt lat="59.9731338" lon="17.7478054">
        <ele>25.6123</ele>
        <time>2013-04-01T17:58:04Z</time>
      </trkpt>
      <trkpt lat="59.9731223" lon="17.7478197">
        <ele>25.6123</ele>
        <time>2013-04-01T17:58:05Z</time>
      </trkpt>
      <trkpt lat="59.9731124" lon="17.7478313">
        <ele>25.1317</ele>
        <time>2013-04-01T17:58:06Z</time>
      </trkpt>
      <trkpt lat="59.9731026" lon="17.7478431">
        <ele>24.651</ele>
        <time>2013-04-01T17:58:07Z</time>
      </trkpt>
      <trkpt lat="59.9730929" lon="17.7478574">
        <ele>24.651</ele>
        <time>2013-04-01T17:58:08Z</time>
      </trkpt>
      <trkpt lat="59.9730752" lon="17.7478772">
        <ele>26.0929</ele>
        <time>2013-04-01T17:58:09Z</time>
      </trkpt>
      <trkpt lat="59.9730619" lon="17.7479024">
        <ele>27.0543</ele>
        <time>2013-04-01T17:58:10Z</time>
      </trkpt>
      <trkpt lat="59.9730489" lon="17.7479227">
        <ele>28.0155</ele>
        <time>2013-04-01T17:58:11Z</time>
      </trkpt>
      <trkpt lat="59.973037" lon="17.7479371">
        <ele>28.4962</ele>
        <time>2013-04-01T17:58:12Z</time>
      </trkpt>
      <trkpt lat="59.9730278" lon="17.7479459">
        <ele>28.0155</ele>
        <time>2013-04-01T17:58:13Z</time>
      </trkpt>
      <trkpt lat="59.9730184" lon="17.7479565">
        <ele>28.0155</ele>
        <time>2013-04-01T17:58:14Z</time>
      </trkpt>
      <trkpt lat="59.9730085" lon="17.7479699">
        <ele>28.0155</ele>
        <time>2013-04-01T17:58:15Z</time>
      </trkpt>
      <trkpt lat="59.9729986" lon="17.747981">
        <ele>28.0155</ele>
        <time>2013-04-01T17:58:16Z</time>
      </trkpt>
      <trkpt lat="59.9729888" lon="17.7479922">
        <ele>28.0155</ele>
        <time>2013-04-01T17:58:17Z</time>
      </trkpt>
      <trkpt lat="59.9729779" lon="17.7480065">
        <ele>28.0155</ele>
        <time>2013-04-01T17:58:18Z</time>
      </trkpt>
      <trkpt lat="59.972967" lon="17.7480211">
        <ele>28.0155</ele>
        <time>2013-04-01T17:58:19Z</time>
      </trkpt>
      <trkpt lat="59.9729571" lon="17.748038">
        <ele>28.0155</ele>
        <time>2013-04-01T17:58:20Z</time>
      </trkpt>
      <trkpt lat="59.9729475" lon="17.7480539">
        <ele>28.4962</ele>
        <time>2013-04-01T17:58:21Z</time>
      </trkpt>
      <trkpt lat="59.9729368" lon="17.7480714">
        <ele>28.4962</ele>
        <time>2013-04-01T17:58:22Z</time>
      </trkpt>
      <trkpt lat="59.9729278" lon="17.7480858">
        <ele>28.4962</ele>
        <time>2013-04-01T17:58:23Z</time>
      </trkpt>
      <trkpt lat="59.9729197" lon="17.7480994">
        <ele>28.4962</ele>
        <time>2013-04-01T17:58:24Z</time>
      </trkpt>
      <trkpt lat="59.972911" lon="17.7481143">
        <ele>28.4962</ele>
        <time>2013-04-01T17:58:25Z</time>
      </trkpt>
      <trkpt lat="59.9729022" lon="17.74813">
        <ele>28.4962</ele>
        <time>2013-04-01T17:58:26Z</time>
      </trkpt>
      <trkpt lat="59.9728935" lon="17.7481453">
        <ele>28.4962</ele>
        <time>2013-04-01T17:58:27Z</time>
      </trkpt>
      <trkpt lat="59.9728846" lon="17.7481605">
        <ele>28.4962</ele>
        <time>2013-04-01T17:58:28Z</time>
      </trkpt>
      <trkpt lat="59.9728754" lon="17.7481764">
        <ele>28.4962</ele>
        <time>2013-04-01T17:58:29Z</time>
      </trkpt>
      <trkpt lat="59.9728658" lon="17.7481927">
        <ele>28.4962</ele>
        <time>2013-04-01T17:58:30Z</time>
      </trkpt>
      <trkpt lat="59.9728561" lon="17.7482102">
        <ele>28.4962</ele>
        <time>2013-04-01T17:58:31Z</time>
      </trkpt>
      <trkpt lat="59.9728461" lon="17.7482318">
        <ele>28.4962</ele>
        <time>2013-04-01T17:58:32Z</time>
      </trkpt>
      <trkpt lat="59.9728373" lon="17.7482511">
        <ele>28.4962</ele>
        <time>2013-04-01T17:58:33Z</time>
      </trkpt>
      <trkpt lat="59.9728288" lon="17.7482656">
        <ele>28.4962</ele>
        <time>2013-04-01T17:58:34Z</time>
      </trkpt>
      <trkpt lat="59.9728194" lon="17.7482857">
        <ele>28.9769</ele>
        <time>2013-04-01T17:58:35Z</time>
      </trkpt>
      <trkpt lat="59.9728137" lon="17.7483112">
        <ele>29.4575</ele>
        <time>2013-04-01T17:58:36Z</time>
      </trkpt>
      <trkpt lat="59.9728085" lon="17.7483354">
        <ele>29.9381</ele>
        <time>2013-04-01T17:58:37Z</time>
      </trkpt>
      <trkpt lat="59.9728007" lon="17.7483528">
        <ele>29.9381</ele>
        <time>2013-04-01T17:58:38Z</time>
      </trkpt>
      <trkpt lat="59.9727935" lon="17.7483703">
        <ele>30.4188</ele>
        <time>2013-04-01T17:58:39Z</time>
      </trkpt>
      <trkpt lat="59.9727884" lon="17.7483869">
        <ele>31.3801</ele>
        <time>2013-04-01T17:58:40Z</time>
      </trkpt>
      <trkpt lat="59.9727811" lon="17.7484034">
        <ele>31.3801</ele>
        <time>2013-04-01T17:58:41Z</time>
      </trkpt>
      <trkpt lat="59.9727723" lon="17.7484243">
        <ele>31.3801</ele>
        <time>2013-04-01T17:58:42Z</time>
      </trkpt>
      <trkpt lat="59.9727658" lon="17.7484422">
        <ele>32.3416</ele>
        <time>2013-04-01T17:58:43Z</time>
      </trkpt>
      <trkpt lat="59.9727587" lon="17.7484599">
        <ele>32.8223</ele>
        <time>2013-04-01T17:58:44Z</time>
      </trkpt>
      <trkpt lat="59.9727529" lon="17.7484739">
        <ele>33.7834</ele>
        <time>2013-04-01T17:58:45Z</time>
      </trkpt>
      <trkpt lat="59.9727474" lon="17.7484941">
        <ele>34.2642</ele>
        <time>2013-04-01T17:58:46Z</time>
      </trkpt>
      <trkpt lat="59.9727403" lon="17.7485165">
        <ele>34.7449</ele>
        <time>2013-04-01T17:58:47Z</time>
      </trkpt>
      <trkpt lat="59.9727303" lon="17.7485375">
        <ele>34.2642</ele>
        <time>2013-04-01T17:58:48Z</time>
      </trkpt>
      <trkpt lat="59.9727208" lon="17.7485571">
        <ele>34.2642</ele>
        <time>2013-04-01T17:58:49Z</time>
      </trkpt>
      <trkpt lat="59.9727126" lon="17.7485716">
        <ele>33.7834</ele>
        <time>2013-04-01T17:58:50Z</time>
      </trkpt>
      <trkpt lat="59.9727065" lon="17.7485852">
        <ele>34.2642</ele>
        <time>2013-04-01T17:58:51Z</time>
      </trkpt>
      <trkpt lat="59.9726972" lon="17.7486038">
        <ele>33.7834</ele>
        <time>2013-04-01T17:58:52Z</time>
      </trkpt>
      <trkpt lat="59.9726879" lon="17.74862">
        <ele>33.3029</ele>
        <time>2013-04-01T17:58:53Z</time>
      </trkpt>
      <trkpt lat="59.9726794" lon="17.7486334">
        <ele>32.8223</ele>
        <time>2013-04-01T17:58:54Z</time>
      </trkpt>
      <trkpt lat="59.9726701" lon="17.7486498">
        <ele>32.8223</ele>
        <time>2013-04-01T17:58:55Z</time>
      </trkpt>
      <trkpt lat="59.9726602" lon="17.7486758">
        <ele>32.3416</ele>
        <time>2013-04-01T17:58:56Z</time>
      </trkpt>
      <trkpt lat="59.9726511" lon="17.7486966">
        <ele>32.3416</ele>
        <time>2013-04-01T17:58:57Z</time>
      </trkpt>
      <trkpt lat="59.9726423" lon="17.7487122">
        <ele>31.8607</ele>
        <time>2013-04-01T17:58:58Z</time>
      </trkpt>
      <trkpt lat="59.9726334" lon="17.7487306">
        <ele>31.8607</ele>
        <time>2013-04-01T17:58:59Z</time>
      </trkpt>
      <trkpt lat="59.972625" lon="17.7487474">
        <ele>31.8607</ele>
        <time>2013-04-01T17:59:00Z</time>
      </trkpt>
      <trkpt lat="59.9726169" lon="17.7487658">
        <ele>31.3801</ele>
        <time>2013-04-01T17:59:01Z</time>
      </trkpt>
      <trkpt lat="59.9726096" lon="17.7487829">
        <ele>31.3801</ele>
        <time>2013-04-01T17:59:02Z</time>
      </trkpt>
      <trkpt lat="59.972602" lon="17.7488044">
        <ele>31.3801</ele>
        <time>2013-04-01T17:59:03Z</time>
      </trkpt>
      <trkpt lat="59.972594" lon="17.7488292">
        <ele>31.3801</ele>
        <time>2013-04-01T17:59:04Z</time>
      </trkpt>
      <trkpt lat="59.9725863" lon="17.7488425">
        <ele>31.3801</ele>
        <time>2013-04-01T17:59:05Z</time>
      </trkpt>
      <trkpt lat="59.9725774" lon="17.7488566">
        <ele>31.3801</ele>
        <time>2013-04-01T17:59:06Z</time>
      </trkpt>
      <trkpt lat="59.9725675" lon="17.7488717">
        <ele>30.8995</ele>
        <time>2013-04-01T17:59:07Z</time>
      </trkpt>
      <trkpt lat="59.9725577" lon="17.7488887">
        <ele>30.8995</ele>
        <time>2013-04-01T17:59:08Z</time>
      </trkpt>
      <trkpt lat="59.9725488" lon="17.7489074">
        <ele>30.8995</ele>
        <time>2013-04-01T17:59:09Z</time>
      </trkpt>
      <trkpt lat="59.9725407" lon="17.7489275">
        <ele>31.3801</ele>
        <time>2013-04-01T17:59:10Z</time>
      </trkpt>
      <trkpt lat="59.9725322" lon="17.7489478">
        <ele>31.8607</ele>
        <time>2013-04-01T17:59:11Z</time>
      </trkpt>
      <trkpt lat="59.9725231" lon="17.7489684">
        <ele>31.8607</ele>
        <time>2013-04-01T17:59:12Z</time>
      </trkpt>
      <trkpt lat="59.9725153" lon="17.7489811">
        <ele>32.3416</ele>
        <time>2013-04-01T17:59:13Z</time>
      </trkpt>
      <trkpt lat="59.9725085" lon="17.7489991">
        <ele>32.3416</ele>
        <time>2013-04-01T17:59:14Z</time>
      </trkpt>
      <trkpt lat="59.9725009" lon="17.749022">
        <ele>32.3416</ele>
        <time>2013-04-01T17:59:15Z</time>
      </trkpt>
      <trkpt lat="59.9724906" lon="17.7490487">
        <ele>31.8607</ele>
        <time>2013-04-01T17:59:16Z</time>
      </trkpt>
      <trkpt lat="59.9724806" lon="17.7490721">
        <ele>31.8607</ele>
        <time>2013-04-01T17:59:17Z</time>
      </trkpt>
      <trkpt lat="59.9724709" lon="17.7490958">
        <ele>31.3801</ele>
        <time>2013-04-01T17:59:18Z</time>
      </trkpt>
      <trkpt lat="59.9724651" lon="17.7490992">
        <ele>31.8607</ele>
        <time>2013-04-01T17:59:19Z</time>
      </trkpt>
      <trkpt lat="59.9724578" lon="17.7491182">
        <ele>31.3801</ele>
        <time>2013-04-01T17:59:20Z</time>
      </trkpt>
      <trkpt lat="59.9724504" lon="17.7491437">
        <ele>31.3801</ele>
        <time>2013-04-01T17:59:21Z</time>
      </trkpt>
      <trkpt lat="59.9724413" lon="17.7491745">
        <ele>31.8607</ele>
        <time>2013-04-01T17:59:22Z</time>
      </trkpt>
      <trkpt lat="59.9724298" lon="17.7492013">
        <ele>30.8995</ele>
        <time>2013-04-01T17:59:23Z</time>
      </trkpt>
      <trkpt lat="59.9724155" lon="17.7492235">
        <ele>30.4188</ele>
        <time>2013-04-01T17:59:24Z</time>
      </trkpt>
      <trkpt lat="59.9724071" lon="17.7492359">
        <ele>31.3801</ele>
        <time>2013-04-01T17:59:25Z</time>
      </trkpt>
      <trkpt lat="59.9723988" lon="17.7492546">
        <ele>31.8607</ele>
        <time>2013-04-01T17:59:26Z</time>
      </trkpt>
      <trkpt lat="59.9723921" lon="17.7492732">
        <ele>32.3416</ele>
        <time>2013-04-01T17:59:27Z</time>
      </trkpt>
      <trkpt lat="59.9723851" lon="17.7492896">
        <ele>32.3416</ele>
        <time>2013-04-01T17:59:28Z</time>
      </trkpt>
      <trkpt lat="59.9723776" lon="17.7493069">
        <ele>32.3416</ele>
        <time>2013-04-01T17:59:29Z</time>
      </trkpt>
      <trkpt lat="59.9723678" lon="17.7493285">
        <ele>31.8607</ele>
        <time>2013-04-01T17:59:30Z</time>
      </trkpt>
      <trkpt lat="59.9723595" lon="17.7493576">
        <ele>31.8607</ele>
        <time>2013-04-01T17:59:31Z</time>
      </trkpt>
      <trkpt lat="59.9723506" lon="17.749382">
        <ele>31.3801</ele>
        <time>2013-04-01T17:59:32Z</time>
      </trkpt>
      <trkpt lat="59.9723434" lon="17.7493962">
        <ele>30.8995</ele>
        <time>2013-04-01T17:59:33Z</time>
      </trkpt>
      <trkpt lat="59.9723361" lon="17.749408">
        <ele>30.4188</ele>
        <time>2013-04-01T17:59:34Z</time>
      </trkpt>
      <trkpt lat="59.9723277" lon="17.7494244">
        <ele>29.9381</ele>
        <time>2013-04-01T17:59:35Z</time>
      </trkpt>
      <trkpt lat="59.9723164" lon="17.7494462">
        <ele>28.9769</ele>
        <time>2013-04-01T17:59:36Z</time>
      </trkpt>
      <trkpt lat="59.9723062" lon="17.7494597">
        <ele>28.9769</ele>
        <time>2013-04-01T17:59:37Z</time>
      </trkpt>
      <trkpt lat="59.9722997" lon="17.7494657">
        <ele>28.9769</ele>
        <time>2013-04-01T17:59:38Z</time>
      </trkpt>
      <trkpt lat="59.9722926" lon="17.7494796">
        <ele>28.4962</ele>
        <time>2013-04-01T17:59:39Z</time>
      </trkpt>
      <trkpt lat="59.9722833" lon="17.7494958">
        <ele>28.0155</ele>
        <time>2013-04-01T17:59:40Z</time>
      </trkpt>
      <trkpt lat="59.9722724" lon="17.7495141">
        <ele>28.0155</ele>
        <time>2013-04-01T17:59:41Z</time>
      </trkpt>
      <trkpt lat="59.9722582" lon="17.749527">
        <ele>28.9769</ele>
        <time>2013-04-01T17:59:42Z</time>
      </trkpt>
      <trkpt lat="59.9722497" lon="17.749533">
        <ele>29.9381</ele>
        <time>2013-04-01T17:59:43Z</time>
      </trkpt>
      <trkpt lat="59.9722417" lon="17.7495487">
        <ele>29.9381</ele>
        <time>2013-04-01T17:59:44Z</time>
      </trkpt>
      <trkpt lat="59.9722429" lon="17.7495726">
        <ele>28.9769</ele>
        <time>2013-04-01T17:59:45Z</time>
      </trkpt>
      <trkpt lat="59.9722289" lon="17.7496285">
        <ele>27.5349</ele>
        <time>2013-04-01T17:59:46Z</time>
      </trkpt>
      <trkpt lat="59.9722109" lon="17.7496772">
        <ele>28.9769</ele>
        <time>2013-04-01T17:59:47Z</time>
      </trkpt>
      <trkpt lat="59.9722013" lon="17.7496854">
        <ele>29.4575</ele>
        <time>2013-04-01T17:59:48Z</time>
      </trkpt>
      <trkpt lat="59.9721942" lon="17.7496902">
        <ele>30.4188</ele>
        <time>2013-04-01T17:59:49Z</time>
      </trkpt>
      <trkpt lat="59.9721982" lon="17.7496926">
        <ele>30.8995</ele>
        <time>2013-04-01T17:59:50Z</time>
      </trkpt>
      <trkpt lat="59.9721948" lon="17.7497087">
        <ele>32.8223</ele>
        <time>2013-04-01T17:59:51Z</time>
      </trkpt>
      <trkpt lat="59.9721905" lon="17.7497264">
        <ele>33.3029</ele>
        <time>2013-04-01T17:59:52Z</time>
      </trkpt>
      <trkpt lat="59.9721821" lon="17.7497455">
        <ele>32.8223</ele>
        <time>2013-04-01T17:59:53Z</time>
      </trkpt>
      <trkpt lat="59.9721733" lon="17.7497554">
        <ele>32.8223</ele>
        <time>2013-04-01T17:59:54Z</time>
      </trkpt>
      <trkpt lat="59.972164" lon="17.7497856">
        <ele>32.3416</ele>
        <time>2013-04-01T17:59:55Z</time>
      </trkpt>
      <trkpt lat="59.9721583" lon="17.7498083">
        <ele>31.8607</ele>
        <time>2013-04-01T17:59:56Z</time>
      </trkpt>
      <trkpt lat="59.9721543" lon="17.7498367">
        <ele>32.3416</ele>
        <time>2013-04-01T17:59:57Z</time>
      </trkpt>
      <trkpt lat="59.972148" lon="17.7498616">
        <ele>31.8607</ele>
        <time>2013-04-01T17:59:58Z</time>
      </trkpt>
      <trkpt lat="59.9721439" lon="17.7498751">
        <ele>31.8607</ele>
        <time>2013-04-01T17:59:59Z</time>
      </trkpt>
      <trkpt lat="59.9721363" lon="17.7498979">
        <ele>31.8607</ele>
        <time>2013-04-01T18:00:00Z</time>
      </trkpt>
      <trkpt lat="59.9721287" lon="17.7499273">
        <ele>31.3801</ele>
        <time>2013-04-01T18:00:01Z</time>
      </trkpt>
      <trkpt lat="59.9721225" lon="17.7499412">
        <ele>30.8995</ele>
        <time>2013-04-01T18:00:02Z</time>
      </trkpt>
      <trkpt lat="59.9721158" lon="17.7499471">
        <ele>30.4188</ele>
        <time>2013-04-01T18:00:03Z</time>
      </trkpt>
      <trkpt lat="59.9721076" lon="17.7499652">
        <ele>30.4188</ele>
        <time>2013-04-01T18:00:04Z</time>
      </trkpt>
      <trkpt lat="59.9721002" lon="17.749975">
        <ele>30.4188</ele>
        <time>2013-04-01T18:00:05Z</time>
      </trkpt>
      <trkpt lat="59.9720977" lon="17.7499756">
        <ele>30.4188</ele>
        <time>2013-04-01T18:00:06Z</time>
      </trkpt>
      <trkpt lat="59.9720952" lon="17.7499777">
        <ele>30.4188</ele>
        <time>2013-04-01T18:00:07Z</time>
      </trkpt>
      <trkpt lat="59.9720895" lon="17.749988">
        <ele>29.9381</ele>
        <time>2013-04-01T18:00:08Z</time>
      </trkpt>
      <trkpt lat="59.9720823" lon="17.750002">
        <ele>30.8995</ele>
        <time>2013-04-01T18:00:09Z</time>
      </trkpt>
      <trkpt lat="59.9720769" lon="17.7500056">
        <ele>31.3801</ele>
        <time>2013-04-01T18:00:10Z</time>
      </trkpt>
      <trkpt lat="59.9720696" lon="17.7500217">
        <ele>31.3801</ele>
        <time>2013-04-01T18:00:11Z</time>
      </trkpt>
      <trkpt lat="59.9720608" lon="17.7500379">
        <ele>30.4188</ele>
        <time>2013-04-01T18:00:12Z</time>
      </trkpt>
      <trkpt lat="59.9720526" lon="17.7500502">
        <ele>30.8995</ele>
        <time>2013-04-01T18:00:13Z</time>
      </trkpt>
      <trkpt lat="59.9720461" lon="17.7500523">
        <ele>30.4188</ele>
        <time>2013-04-01T18:00:14Z</time>
      </trkpt>
      <trkpt lat="59.9720378" lon="17.750072">
        <ele>29.9381</ele>
        <time>2013-04-01T18:00:15Z</time>
      </trkpt>
      <trkpt lat="59.9720239" lon="17.7501023">
        <ele>29.9381</ele>
        <time>2013-04-01T18:00:16Z</time>
      </trkpt>
      <trkpt lat="59.9720178" lon="17.750117">
        <ele>29.9381</ele>
        <time>2013-04-01T18:00:17Z</time>
      </trkpt>
      <trkpt lat="59.9720116" lon="17.7501388">
        <ele>29.4575</ele>
        <time>2013-04-01T18:00:18Z</time>
      </trkpt>
      <trkpt lat="59.9720039" lon="17.7501604">
        <ele>28.4962</ele>
        <time>2013-04-01T18:00:19Z</time>
      </trkpt>
      <trkpt lat="59.9719953" lon="17.750179">
        <ele>28.0155</ele>
        <time>2013-04-01T18:00:20Z</time>
      </trkpt>
      <trkpt lat="59.9719897" lon="17.7501997">
        <ele>28.0155</ele>
        <time>2013-04-01T18:00:21Z</time>
      </trkpt>
      <trkpt lat="59.9719826" lon="17.7502211">
        <ele>27.5349</ele>
        <time>2013-04-01T18:00:22Z</time>
      </trkpt>
      <trkpt lat="59.9719751" lon="17.7502416">
        <ele>27.5349</ele>
        <time>2013-04-01T18:00:23Z</time>
      </trkpt>
      <trkpt lat="59.9719709" lon="17.7502476">
        <ele>27.0543</ele>
        <time>2013-04-01T18:00:24Z</time>
      </trkpt>
      <trkpt lat="59.9719657" lon="17.7502522">
        <ele>26.5736</ele>
        <time>2013-04-01T18:00:25Z</time>
      </trkpt>
      <trkpt lat="59.971962" lon="17.7502546">
        <ele>26.5736</ele>
        <time>2013-04-01T18:00:26Z</time>
      </trkpt>
      <trkpt lat="59.9719497" lon="17.7502769">
        <ele>27.0543</ele>
        <time>2013-04-01T18:00:27Z</time>
      </trkpt>
      <trkpt lat="59.9719347" lon="17.750296">
        <ele>27.5349</ele>
        <time>2013-04-01T18:00:28Z</time>
      </trkpt>
      <trkpt lat="59.9719213" lon="17.7503083">
        <ele>27.5349</ele>
        <time>2013-04-01T18:00:29Z</time>
      </trkpt>
      <trkpt lat="59.971907" lon="17.7503362">
        <ele>28.4962</ele>
        <time>2013-04-01T18:00:30Z</time>
      </trkpt>
      <trkpt lat="59.9718897" lon="17.7503785">
        <ele>28.9769</ele>
        <time>2013-04-01T18:00:31Z</time>
      </trkpt>
      <trkpt lat="59.9718823" lon="17.7504165">
        <ele>29.4575</ele>
        <time>2013-04-01T18:00:32Z</time>
      </trkpt>
      <trkpt lat="59.9718752" lon="17.7504454">
        <ele>28.9769</ele>
        <time>2013-04-01T18:00:33Z</time>
      </trkpt>
      <trkpt lat="59.9718689" lon="17.7504587">
        <ele>28.9769</ele>
        <time>2013-04-01T18:00:34Z</time>
      </trkpt>
      <trkpt lat="59.9718599" lon="17.75048">
        <ele>28.4962</ele>
        <time>2013-04-01T18:00:35Z</time>
      </trkpt>
      <trkpt lat="59.9718469" lon="17.750502">
        <ele>28.9769</ele>
        <time>2013-04-01T18:00:36Z</time>
      </trkpt>
      <trkpt lat="59.971833" lon="17.7505185">
        <ele>29.4575</ele>
        <time>2013-04-01T18:00:37Z</time>
      </trkpt>
      <trkpt lat="59.971819" lon="17.7505326">
        <ele>29.9381</ele>
        <time>2013-04-01T18:00:38Z</time>
      </trkpt>
      <trkpt lat="59.9718084" lon="17.7505447">
        <ele>30.4188</ele>
        <time>2013-04-01T18:00:39Z</time>
      </trkpt>
      <trkpt lat="59.9718009" lon="17.7505517">
        <ele>30.4188</ele>
        <time>2013-04-01T18:00:40Z</time>
      </trkpt>
      <trkpt lat="59.9717956" lon="17.750561">
        <ele>30.4188</ele>
        <time>2013-04-01T18:00:41Z</time>
      </trkpt>
      <trkpt lat="59.9717834" lon="17.750573">
        <ele>31.3801</ele>
        <time>2013-04-01T18:00:42Z</time>
      </trkpt>
      <trkpt lat="59.9717759" lon="17.7505874">
        <ele>31.3801</ele>
        <time>2013-04-01T18:00:43Z</time>
      </trkpt>
      <trkpt lat="59.971757" lon="17.7505998">
        <ele>32.8223</ele>
        <time>2013-04-01T18:00:44Z</time>
      </trkpt>
      <trkpt lat="59.9717491" lon="17.7506105">
        <ele>32.8223</ele>
        <time>2013-04-01T18:00:45Z</time>
      </trkpt>
      <trkpt lat="59.9717399" lon="17.7506214">
        <ele>33.3029</ele>
        <time>2013-04-01T18:00:46Z</time>
      </trkpt>
      <trkpt lat="59.9717364" lon="17.7506301">
        <ele>32.8223</ele>
        <time>2013-04-01T18:00:47Z</time>
      </trkpt>
      <trkpt lat="59.9717331" lon="17.7506417">
        <ele>32.3416</ele>
        <time>2013-04-01T18:00:48Z</time>
      </trkpt>
      <trkpt lat="59.9717192" lon="17.7506728">
        <ele>33.3029</ele>
        <time>2013-04-01T18:00:49Z</time>
      </trkpt>
      <trkpt lat="59.9717212" lon="17.7506791">
        <ele>30.4188</ele>
        <time>2013-04-01T18:00:50Z</time>
      </trkpt>
      <trkpt lat="59.9717097" lon="17.7506915">
        <ele>30.8995</ele>
        <time>2013-04-01T18:00:51Z</time>
      </trkpt>
      <trkpt lat="59.9717015" lon="17.7507117">
        <ele>31.3801</ele>
        <time>2013-04-01T18:00:52Z</time>
      </trkpt>
      <trkpt lat="59.971701" lon="17.7507205">
        <ele>29.4575</ele>
        <time>2013-04-01T18:00:53Z</time>
      </trkpt>
      <trkpt lat="59.9716933" lon="17.7507275">
        <ele>29.9381</ele>
        <time>2013-04-01T18:00:54Z</time>
      </trkpt>
      <trkpt lat="59.9716915" lon="17.7507344">
        <ele>28.9769</ele>
        <time>2013-04-01T18:00:55Z</time>
      </trkpt>
      <trkpt lat="59.9716819" lon="17.7507503">
        <ele>28.4962</ele>
        <time>2013-04-01T18:00:56Z</time>
      </trkpt>
      <trkpt lat="59.971676" lon="17.7507624">
        <ele>28.0155</ele>
        <time>2013-04-01T18:00:57Z</time>
      </trkpt>
      <trkpt lat="59.9716677" lon="17.7507688">
        <ele>28.4962</ele>
        <time>2013-04-01T18:00:58Z</time>
      </trkpt>
      <trkpt lat="59.9716605" lon="17.7507815">
        <ele>28.0155</ele>
        <time>2013-04-01T18:00:59Z</time>
      </trkpt>
      <trkpt lat="59.9716524" lon="17.7507975">
        <ele>28.0155</ele>
        <time>2013-04-01T18:01:00Z</time>
      </trkpt>
      <trkpt lat="59.9716526" lon="17.7508037">
        <ele>26.0929</ele>
        <time>2013-04-01T18:01:01Z</time>
      </trkpt>
      <trkpt lat="59.9716398" lon="17.7508199">
        <ele>26.5736</ele>
        <time>2013-04-01T18:01:02Z</time>
      </trkpt>
      <trkpt lat="59.9716247" lon="17.7508369">
        <ele>27.5349</ele>
        <time>2013-04-01T18:01:03Z</time>
      </trkpt>
      <trkpt lat="59.9716166" lon="17.7508465">
        <ele>27.0543</ele>
        <time>2013-04-01T18:01:04Z</time>
      </trkpt>
      <trkpt lat="59.9716024" lon="17.7508603">
        <ele>27.5349</ele>
        <time>2013-04-01T18:01:05Z</time>
      </trkpt>
      <trkpt lat="59.9715963" lon="17.7508693">
        <ele>27.0543</ele>
        <time>2013-04-01T18:01:06Z</time>
      </trkpt>
      <trkpt lat="59.9715775" lon="17.7508883">
        <ele>28.0155</ele>
        <time>2013-04-01T18:01:07Z</time>
      </trkpt>
      <trkpt lat="59.9715646" lon="17.7509073">
        <ele>28.4962</ele>
        <time>2013-04-01T18:01:08Z</time>
      </trkpt>
      <trkpt lat="59.9715553" lon="17.7509221">
        <ele>28.4962</ele>
        <time>2013-04-01T18:01:09Z</time>
      </trkpt>
      <trkpt lat="59.9715404" lon="17.7509378">
        <ele>28.9769</ele>
        <time>2013-04-01T18:01:10Z</time>
      </trkpt>
      <trkpt lat="59.9715209" lon="17.7509583">
        <ele>30.4188</ele>
        <time>2013-04-01T18:01:11Z</time>
      </trkpt>
      <trkpt lat="59.9715104" lon="17.7509624">
        <ele>30.4188</ele>
        <time>2013-04-01T18:01:12Z</time>
      </trkpt>
      <trkpt lat="59.9714984" lon="17.7509753">
        <ele>30.4188</ele>
        <time>2013-04-01T18:01:13Z</time>
      </trkpt>
      <trkpt lat="59.9714884" lon="17.750979">
        <ele>29.9381</ele>
        <time>2013-04-01T18:01:14Z</time>
      </trkpt>
      <trkpt lat="59.9714853" lon="17.7509902">
        <ele>28.9769</ele>
        <time>2013-04-01T18:01:15Z</time>
      </trkpt>
      <trkpt lat="59.9714767" lon="17.7510042">
        <ele>28.9769</ele>
        <time>2013-04-01T18:01:16Z</time>
      </trkpt>
      <trkpt lat="59.9714657" lon="17.7510185">
        <ele>29.4575</ele>
        <time>2013-04-01T18:01:17Z</time>
      </trkpt>
      <trkpt lat="59.9714509" lon="17.7510324">
        <ele>29.9381</ele>
        <time>2013-04-01T18:01:18Z</time>
      </trkpt>
      <trkpt lat="59.9714442" lon="17.7510435">
        <ele>28.9769</ele>
        <time>2013-04-01T18:01:19Z</time>
      </trkpt>
      <trkpt lat="59.9714332" lon="17.7510521">
        <ele>28.4962</ele>
        <time>2013-04-01T18:01:20Z</time>
      </trkpt>
      <trkpt lat="59.9714263" lon="17.7510707">
        <ele>28.4962</ele>
        <time>2013-04-01T18:01:21Z</time>
      </trkpt>
      <trkpt lat="59.9714172" lon="17.7510889">
        <ele>28.4962</ele>
        <time>2013-04-01T18:01:22Z</time>
      </trkpt>
      <trkpt lat="59.9714024" lon="17.751109">
        <ele>29.4575</ele>
        <time>2013-04-01T18:01:23Z</time>
      </trkpt>
      <trkpt lat="59.9714011" lon="17.7511182">
        <ele>28.4962</ele>
        <time>2013-04-01T18:01:24Z</time>
      </trkpt>
      <trkpt lat="59.9714" lon="17.7511282">
        <ele>27.0543</ele>
        <time>2013-04-01T18:01:25Z</time>
      </trkpt>
      <trkpt lat="59.9713898" lon="17.7511412">
        <ele>26.5736</ele>
        <time>2013-04-01T18:01:26Z</time>
      </trkpt>
      <trkpt lat="59.9713892" lon="17.7511471">
        <ele>25.1317</ele>
        <time>2013-04-01T18:01:27Z</time>
      </trkpt>
      <trkpt lat="59.9713777" lon="17.7511613">
        <ele>25.1317</ele>
        <time>2013-04-01T18:01:28Z</time>
      </trkpt>
      <trkpt lat="59.9713659" lon="17.7511757">
        <ele>25.1317</ele>
        <time>2013-04-01T18:01:29Z</time>
      </trkpt>
      <trkpt lat="59.9713497" lon="17.751195">
        <ele>26.0929</ele>
        <time>2013-04-01T18:01:30Z</time>
      </trkpt>
      <trkpt lat="59.9713335" lon="17.7512044">
        <ele>26.5736</ele>
        <time>2013-04-01T18:01:31Z</time>
      </trkpt>
      <trkpt lat="59.971318" lon="17.7512236">
        <ele>27.5349</ele>
        <time>2013-04-01T18:01:32Z</time>
      </trkpt>
      <trkpt lat="59.9713016" lon="17.751237">
        <ele>28.4962</ele>
        <time>2013-04-01T18:01:33Z</time>
      </trkpt>
      <trkpt lat="59.9712938" lon="17.7512483">
        <ele>28.4962</ele>
        <time>2013-04-01T18:01:34Z</time>
      </trkpt>
      <trkpt lat="59.9712838" lon="17.751257">
        <ele>27.5349</ele>
        <time>2013-04-01T18:01:35Z</time>
      </trkpt>
      <trkpt lat="59.9712684" lon="17.7512779">
        <ele>28.0155</ele>
        <time>2013-04-01T18:01:36Z</time>
      </trkpt>
      <trkpt lat="59.9712553" lon="17.7512887">
        <ele>28.4962</ele>
        <time>2013-04-01T18:01:37Z</time>
      </trkpt>
      <trkpt lat="59.971241" lon="17.7513053">
        <ele>28.9769</ele>
        <time>2013-04-01T18:01:38Z</time>
      </trkpt>
      <trkpt lat="59.9712415" lon="17.7513113">
        <ele>28.0155</ele>
        <time>2013-04-01T18:01:39Z</time>
      </trkpt>
      <trkpt lat="59.9712222" lon="17.7513358">
        <ele>28.9769</ele>
        <time>2013-04-01T18:01:40Z</time>
      </trkpt>
      <trkpt lat="59.9711991" lon="17.7513605">
        <ele>29.9381</ele>
        <time>2013-04-01T18:01:41Z</time>
      </trkpt>
      <trkpt lat="59.971182" lon="17.7513751">
        <ele>30.8995</ele>
        <time>2013-04-01T18:01:42Z</time>
      </trkpt>
      <trkpt lat="59.9711772" lon="17.7513845">
        <ele>31.3801</ele>
        <time>2013-04-01T18:01:43Z</time>
      </trkpt>
      <trkpt lat="59.971175" lon="17.7513944">
        <ele>30.8995</ele>
        <time>2013-04-01T18:01:44Z</time>
      </trkpt>
      <trkpt lat="59.9711714" lon="17.751399">
        <ele>30.4188</ele>
        <time>2013-04-01T18:01:45Z</time>
      </trkpt>
      <trkpt lat="59.9711652" lon="17.7514018">
        <ele>30.8995</ele>
        <time>2013-04-01T18:01:46Z</time>
      </trkpt>
      <trkpt lat="59.9711503" lon="17.7514104">
        <ele>31.8607</ele>
        <time>2013-04-01T18:01:47Z</time>
      </trkpt>
      <trkpt lat="59.9711431" lon="17.7514241">
        <ele>30.8995</ele>
        <time>2013-04-01T18:01:48Z</time>
      </trkpt>
      <trkpt lat="59.9711452" lon="17.7514311">
        <ele>29.4575</ele>
        <time>2013-04-01T18:01:49Z</time>
      </trkpt>
      <trkpt lat="59.971141" lon="17.751437">
        <ele>28.0155</ele>
        <time>2013-04-01T18:01:50Z</time>
      </trkpt>
      <trkpt lat="59.9711375" lon="17.7514421">
        <ele>26.0929</ele>
        <time>2013-04-01T18:01:51Z</time>
      </trkpt>
      <trkpt lat="59.9711297" lon="17.7514499">
        <ele>25.6123</ele>
        <time>2013-04-01T18:01:52Z</time>
      </trkpt>
      <trkpt lat="59.9711149" lon="17.7514645">
        <ele>26.0929</ele>
        <time>2013-04-01T18:01:53Z</time>
      </trkpt>
      <trkpt lat="59.9711015" lon="17.7514768">
        <ele>26.5736</ele>
        <time>2013-04-01T18:01:54Z</time>
      </trkpt>
      <trkpt lat="59.971094" lon="17.7514935">
        <ele>26.0929</ele>
        <time>2013-04-01T18:01:55Z</time>
      </trkpt>
      <trkpt lat="59.9710805" lon="17.7515121">
        <ele>26.5736</ele>
        <time>2013-04-01T18:01:56Z</time>
      </trkpt>
      <trkpt lat="59.9710709" lon="17.7515183">
        <ele>26.5736</ele>
        <time>2013-04-01T18:01:57Z</time>
      </trkpt>
      <trkpt lat="59.9710634" lon="17.751523">
        <ele>25.6123</ele>
        <time>2013-04-01T18:01:58Z</time>
      </trkpt>
      <trkpt lat="59.9710489" lon="17.7515347">
        <ele>26.0929</ele>
        <time>2013-04-01T18:01:59Z</time>
      </trkpt>
      <trkpt lat="59.9710401" lon="17.7515414">
        <ele>25.6123</ele>
        <time>2013-04-01T18:02:00Z</time>
      </trkpt>
      <trkpt lat="59.9710312" lon="17.7515493">
        <ele>25.1317</ele>
        <time>2013-04-01T18:02:01Z</time>
      </trkpt>
      <trkpt lat="59.9710167" lon="17.7515624">
        <ele>25.6123</ele>
        <time>2013-04-01T18:02:02Z</time>
      </trkpt>
      <trkpt lat="59.9710067" lon="17.7515772">
        <ele>25.6123</ele>
        <time>2013-04-01T18:02:03Z</time>
      </trkpt>
      <trkpt lat="59.9709955" lon="17.751582">
        <ele>26.0929</ele>
        <time>2013-04-01T18:02:04Z</time>
      </trkpt>
      <trkpt lat="59.9709831" lon="17.7515976">
        <ele>26.5736</ele>
        <time>2013-04-01T18:02:05Z</time>
      </trkpt>
      <trkpt lat="59.9709736" lon="17.7516146">
        <ele>26.5736</ele>
        <time>2013-04-01T18:02:06Z</time>
      </trkpt>
      <trkpt lat="59.9709566" lon="17.7516389">
        <ele>27.5349</ele>
        <time>2013-04-01T18:02:07Z</time>
      </trkpt>
      <trkpt lat="59.9709432" lon="17.7516612">
        <ele>28.0155</ele>
        <time>2013-04-01T18:02:08Z</time>
      </trkpt>
      <trkpt lat="59.9709312" lon="17.7516822">
        <ele>28.0155</ele>
        <time>2013-04-01T18:02:09Z</time>
      </trkpt>
      <trkpt lat="59.9709266" lon="17.7516962">
        <ele>27.0543</ele>
        <time>2013-04-01T18:02:10Z</time>
      </trkpt>
      <trkpt lat="59.9709256" lon="17.7517064">
        <ele>26.0929</ele>
        <time>2013-04-01T18:02:11Z</time>
      </trkpt>
      <trkpt lat="59.9709236" lon="17.7517177">
        <ele>25.1317</ele>
        <time>2013-04-01T18:02:12Z</time>
      </trkpt>
      <trkpt lat="59.9709248" lon="17.7517275">
        <ele>23.6896</ele>
        <time>2013-04-01T18:02:13Z</time>
      </trkpt>
      <trkpt lat="59.9709182" lon="17.7517425">
        <ele>23.209</ele>
        <time>2013-04-01T18:02:14Z</time>
      </trkpt>
      <trkpt lat="59.9708992" lon="17.7517643">
        <ele>24.651</ele>
        <time>2013-04-01T18:02:15Z</time>
      </trkpt>
      <trkpt lat="59.9708887" lon="17.7517815">
        <ele>24.651</ele>
        <time>2013-04-01T18:02:16Z</time>
      </trkpt>
      <trkpt lat="59.970882" lon="17.751799">
        <ele>24.651</ele>
        <time>2013-04-01T18:02:17Z</time>
      </trkpt>
      <trkpt lat="59.9708743" lon="17.7518157">
        <ele>24.1703</ele>
        <time>2013-04-01T18:02:18Z</time>
      </trkpt>
      <trkpt lat="59.9708686" lon="17.7518309">
        <ele>23.6896</ele>
        <time>2013-04-01T18:02:19Z</time>
      </trkpt>
      <trkpt lat="59.9708601" lon="17.7518456">
        <ele>23.209</ele>
        <time>2013-04-01T18:02:20Z</time>
      </trkpt>
      <trkpt lat="59.970852" lon="17.7518628">
        <ele>22.7283</ele>
        <time>2013-04-01T18:02:21Z</time>
      </trkpt>
      <trkpt lat="59.9708411" lon="17.7518819">
        <ele>22.7283</ele>
        <time>2013-04-01T18:02:22Z</time>
      </trkpt>
      <trkpt lat="59.970834" lon="17.7518905">
        <ele>22.2476</ele>
        <time>2013-04-01T18:02:23Z</time>
      </trkpt>
      <trkpt lat="59.9708235" lon="17.7519019">
        <ele>22.2476</ele>
        <time>2013-04-01T18:02:24Z</time>
      </trkpt>
      <trkpt lat="59.9708044" lon="17.7519223">
        <ele>23.209</ele>
        <time>2013-04-01T18:02:25Z</time>
      </trkpt>
      <trkpt lat="59.9707953" lon="17.7519372">
        <ele>23.209</ele>
        <time>2013-04-01T18:02:26Z</time>
      </trkpt>
      <trkpt lat="59.9707862" lon="17.7519501">
        <ele>23.209</ele>
        <time>2013-04-01T18:02:27Z</time>
      </trkpt>
      <trkpt lat="59.9707788" lon="17.7519622">
        <ele>23.209</ele>
        <time>2013-04-01T18:02:28Z</time>
      </trkpt>
      <trkpt lat="59.9707689" lon="17.7519756">
        <ele>23.209</ele>
        <time>2013-04-01T18:02:29Z</time>
      </trkpt>
      <trkpt lat="59.9707527" lon="17.7519935">
        <ele>23.6896</ele>
        <time>2013-04-01T18:02:30Z</time>
      </trkpt>
      <trkpt lat="59.970748" lon="17.7520062">
        <ele>23.209</ele>
        <time>2013-04-01T18:02:31Z</time>
      </trkpt>
      <trkpt lat="59.9707355" lon="17.7520246">
        <ele>23.6896</ele>
        <time>2013-04-01T18:02:32Z</time>
      </trkpt>
      <trkpt lat="59.9707272" lon="17.7520345">
        <ele>23.209</ele>
        <time>2013-04-01T18:02:33Z</time>
      </trkpt>
      <trkpt lat="59.9707142" lon="17.7520487">
        <ele>23.6896</ele>
        <time>2013-04-01T18:02:34Z</time>
      </trkpt>
      <trkpt lat="59.9707105" lon="17.7520597">
        <ele>22.7283</ele>
        <time>2013-04-01T18:02:35Z</time>
      </trkpt>
      <trkpt lat="59.9707039" lon="17.7520707">
        <ele>22.2476</ele>
        <time>2013-04-01T18:02:36Z</time>
      </trkpt>
      <trkpt lat="59.970697" lon="17.7520816">
        <ele>21.767</ele>
        <time>2013-04-01T18:02:37Z</time>
      </trkpt>
      <trkpt lat="59.9706941" lon="17.7520936">
        <ele>20.8057</ele>
        <time>2013-04-01T18:02:38Z</time>
      </trkpt>
      <trkpt lat="59.9706862" lon="17.7521082">
        <ele>20.325</ele>
        <time>2013-04-01T18:02:39Z</time>
      </trkpt>
      <trkpt lat="59.9706706" lon="17.7521274">
        <ele>21.2864</ele>
        <time>2013-04-01T18:02:40Z</time>
      </trkpt>
      <trkpt lat="59.9706578" lon="17.7521474">
        <ele>21.2864</ele>
        <time>2013-04-01T18:02:41Z</time>
      </trkpt>
      <trkpt lat="59.9706448" lon="17.7521656">
        <ele>22.2476</ele>
        <time>2013-04-01T18:02:42Z</time>
      </trkpt>
      <trkpt lat="59.9706408" lon="17.7521884">
        <ele>21.2864</ele>
        <time>2013-04-01T18:02:43Z</time>
      </trkpt>
      <trkpt lat="59.9706518" lon="17.7521829">
        <ele>20.8057</ele>
        <time>2013-04-01T18:02:44Z</time>
      </trkpt>
      <trkpt lat="59.9706464" lon="17.7521983">
        <ele>20.8057</ele>
        <time>2013-04-01T18:02:45Z</time>
      </trkpt>
      <trkpt lat="59.9706505" lon="17.7522274">
        <ele>20.8057</ele>
        <time>2013-04-01T18:02:46Z</time>
      </trkpt>
      <trkpt lat="59.9706382" lon="17.7522741">
        <ele>21.2864</ele>
        <time>2013-04-01T18:02:47Z</time>
      </trkpt>
      <trkpt lat="59.9706355" lon="17.7522909">
        <ele>20.8057</ele>
        <time>2013-04-01T18:02:48Z</time>
      </trkpt>
      <trkpt lat="59.9706257" lon="17.7523052">
        <ele>20.8057</ele>
        <time>2013-04-01T18:02:49Z</time>
      </trkpt>
      <trkpt lat="59.9706148" lon="17.752318">
        <ele>20.325</ele>
        <time>2013-04-01T18:02:50Z</time>
      </trkpt>
      <trkpt lat="59.9706079" lon="17.7523319">
        <ele>20.325</ele>
        <time>2013-04-01T18:02:51Z</time>
      </trkpt>
      <trkpt lat="59.9706013" lon="17.7523501">
        <ele>18.8831</ele>
        <time>2013-04-01T18:02:52Z</time>
      </trkpt>
      <trkpt lat="59.9705894" lon="17.7523729">
        <ele>18.8831</ele>
        <time>2013-04-01T18:02:53Z</time>
      </trkpt>
      <trkpt lat="59.9705765" lon="17.7523941">
        <ele>19.3638</ele>
        <time>2013-04-01T18:02:54Z</time>
      </trkpt>
      <trkpt lat="59.9705655" lon="17.7523952">
        <ele>19.8444</ele>
        <time>2013-04-01T18:02:55Z</time>
      </trkpt>
      <trkpt lat="59.9705562" lon="17.7524081">
        <ele>19.3638</ele>
        <time>2013-04-01T18:02:56Z</time>
      </trkpt>
      <trkpt lat="59.9705477" lon="17.7524186">
        <ele>18.8831</ele>
        <time>2013-04-01T18:02:57Z</time>
      </trkpt>
      <trkpt lat="59.9705359" lon="17.7524361">
        <ele>19.3638</ele>
        <time>2013-04-01T18:02:58Z</time>
      </trkpt>
      <trkpt lat="59.9705272" lon="17.7524408">
        <ele>19.3638</ele>
        <time>2013-04-01T18:02:59Z</time>
      </trkpt>
      <trkpt lat="59.9705179" lon="17.752451">
        <ele>19.8444</ele>
        <time>2013-04-01T18:03:00Z</time>
      </trkpt>
      <trkpt lat="59.9705065" lon="17.752474">
        <ele>19.8444</ele>
        <time>2013-04-01T18:03:01Z</time>
      </trkpt>
      <trkpt lat="59.9704967" lon="17.7524956">
        <ele>20.325</ele>
        <time>2013-04-01T18:03:02Z</time>
      </trkpt>
      <trkpt lat="59.9704877" lon="17.7525123">
        <ele>20.8057</ele>
        <time>2013-04-01T18:03:03Z</time>
      </trkpt>
      <trkpt lat="59.970479" lon="17.75253">
        <ele>21.2864</ele>
        <time>2013-04-01T18:03:04Z</time>
      </trkpt>
      <trkpt lat="59.9704705" lon="17.7525454">
        <ele>21.2864</ele>
        <time>2013-04-01T18:03:05Z</time>
      </trkpt>
      <trkpt lat="59.9704591" lon="17.7525667">
        <ele>21.2864</ele>
        <time>2013-04-01T18:03:06Z</time>
      </trkpt>
      <trkpt lat="59.970449" lon="17.7525864">
        <ele>21.2864</ele>
        <time>2013-04-01T18:03:07Z</time>
      </trkpt>
      <trkpt lat="59.9704428" lon="17.7526107">
        <ele>20.8057</ele>
        <time>2013-04-01T18:03:08Z</time>
      </trkpt>
      <trkpt lat="59.9704391" lon="17.7526271">
        <ele>19.8444</ele>
        <time>2013-04-01T18:03:09Z</time>
      </trkpt>
      <trkpt lat="59.9704324" lon="17.7526509">
        <ele>19.3638</ele>
        <time>2013-04-01T18:03:10Z</time>
      </trkpt>
      <trkpt lat="59.9704137" lon="17.7526804">
        <ele>21.2864</ele>
        <time>2013-04-01T18:03:11Z</time>
      </trkpt>
      <trkpt lat="59.970406" lon="17.7526999">
        <ele>21.2864</ele>
        <time>2013-04-01T18:03:12Z</time>
      </trkpt>
      <trkpt lat="59.970402" lon="17.7527184">
        <ele>21.2864</ele>
        <time>2013-04-01T18:03:13Z</time>
      </trkpt>
      <trkpt lat="59.9704065" lon="17.7527278">
        <ele>19.8444</ele>
        <time>2013-04-01T18:03:14Z</time>
      </trkpt>
      <trkpt lat="59.9703982" lon="17.7527444">
        <ele>20.325</ele>
        <time>2013-04-01T18:03:15Z</time>
      </trkpt>
      <trkpt lat="59.9703842" lon="17.7527644">
        <ele>21.2864</ele>
        <time>2013-04-01T18:03:16Z</time>
      </trkpt>
      <trkpt lat="59.9703739" lon="17.7527849">
        <ele>21.767</ele>
        <time>2013-04-01T18:03:17Z</time>
      </trkpt>
      <trkpt lat="59.9703581" lon="17.75281">
        <ele>23.209</ele>
        <time>2013-04-01T18:03:18Z</time>
      </trkpt>
      <trkpt lat="59.9703437" lon="17.7528325">
        <ele>24.1703</ele>
        <time>2013-04-01T18:03:19Z</time>
      </trkpt>
      <trkpt lat="59.970335" lon="17.7528531">
        <ele>24.651</ele>
        <time>2013-04-01T18:03:20Z</time>
      </trkpt>
      <trkpt lat="59.9703319" lon="17.7528745">
        <ele>24.1703</ele>
        <time>2013-04-01T18:03:21Z</time>
      </trkpt>
      <trkpt lat="59.9703329" lon="17.7529032">
        <ele>22.7283</ele>
        <time>2013-04-01T18:03:22Z</time>
      </trkpt>
      <trkpt lat="59.9703231" lon="17.7529232">
        <ele>23.209</ele>
        <time>2013-04-01T18:03:23Z</time>
      </trkpt>
      <trkpt lat="59.9703164" lon="17.7529448">
        <ele>22.7283</ele>
        <time>2013-04-01T18:03:24Z</time>
      </trkpt>
      <trkpt lat="59.9703085" lon="17.7529603">
        <ele>23.209</ele>
        <time>2013-04-01T18:03:25Z</time>
      </trkpt>
      <trkpt lat="59.9703058" lon="17.7529754">
        <ele>22.7283</ele>
        <time>2013-04-01T18:03:26Z</time>
      </trkpt>
      <trkpt lat="59.9703048" lon="17.7529753">
        <ele>22.7283</ele>
        <time>2013-04-01T18:03:27Z</time>
      </trkpt>
      <trkpt lat="59.9703012" lon="17.7529867">
        <ele>22.7283</ele>
        <time>2013-04-01T18:03:28Z</time>
      </trkpt>
      <trkpt lat="59.9702945" lon="17.7530094">
        <ele>22.7283</ele>
        <time>2013-04-01T18:03:29Z</time>
      </trkpt>
      <trkpt lat="59.9702882" lon="17.7530347">
        <ele>22.2476</ele>
        <time>2013-04-01T18:03:30Z</time>
      </trkpt>
      <trkpt lat="59.9702816" lon="17.7530579">
        <ele>22.2476</ele>
        <time>2013-04-01T18:03:31Z</time>
      </trkpt>
      <trkpt lat="59.9702754" lon="17.7530825">
        <ele>21.767</ele>
        <time>2013-04-01T18:03:32Z</time>
      </trkpt>
      <trkpt lat="59.9702665" lon="17.7531045">
        <ele>22.2476</ele>
        <time>2013-04-01T18:03:33Z</time>
      </trkpt>
      <trkpt lat="59.9702574" lon="17.7531323">
        <ele>22.2476</ele>
        <time>2013-04-01T18:03:34Z</time>
      </trkpt>
      <trkpt lat="59.9702557" lon="17.7531365">
        <ele>21.767</ele>
        <time>2013-04-01T18:03:35Z</time>
      </trkpt>
      <trkpt lat="59.9702494" lon="17.7531604">
        <ele>21.767</ele>
        <time>2013-04-01T18:03:36Z</time>
      </trkpt>
      <trkpt lat="59.9702448" lon="17.7531701">
        <ele>21.767</ele>
        <time>2013-04-01T18:03:37Z</time>
      </trkpt>
      <trkpt lat="59.970238" lon="17.7532034">
        <ele>21.767</ele>
        <time>2013-04-01T18:03:38Z</time>
      </trkpt>
      <trkpt lat="59.9702288" lon="17.753234">
        <ele>21.767</ele>
        <time>2013-04-01T18:03:39Z</time>
      </trkpt>
      <trkpt lat="59.9702191" lon="17.7532624">
        <ele>22.2476</ele>
        <time>2013-04-01T18:03:40Z</time>
      </trkpt>
      <trkpt lat="59.970208" lon="17.7533003">
        <ele>22.2476</ele>
        <time>2013-04-01T18:03:41Z</time>
      </trkpt>
      <trkpt lat="59.9701984" lon="17.7533261">
        <ele>22.2476</ele>
        <time>2013-04-01T18:03:42Z</time>
      </trkpt>
      <trkpt lat="59.97019" lon="17.7533483">
        <ele>22.2476</ele>
        <time>2013-04-01T18:03:43Z</time>
      </trkpt>
      <trkpt lat="59.9701813" lon="17.7533726">
        <ele>22.2476</ele>
        <time>2013-04-01T18:03:44Z</time>
      </trkpt>
      <trkpt lat="59.9701734" lon="17.7533975">
        <ele>22.7283</ele>
        <time>2013-04-01T18:03:45Z</time>
      </trkpt>
      <trkpt lat="59.9701667" lon="17.7534207">
        <ele>22.7283</ele>
        <time>2013-04-01T18:03:46Z</time>
      </trkpt>
      <trkpt lat="59.9701594" lon="17.7534509">
        <ele>22.7283</ele>
        <time>2013-04-01T18:03:47Z</time>
      </trkpt>
      <trkpt lat="59.9701528" lon="17.7534794">
        <ele>22.7283</ele>
        <time>2013-04-01T18:03:48Z</time>
      </trkpt>
      <trkpt lat="59.970147" lon="17.7535032">
        <ele>22.2476</ele>
        <time>2013-04-01T18:03:49Z</time>
      </trkpt>
      <trkpt lat="59.9701423" lon="17.7535152">
        <ele>22.2476</ele>
        <time>2013-04-01T18:03:50Z</time>
      </trkpt>
      <trkpt lat="59.9701392" lon="17.7535321">
        <ele>22.2476</ele>
        <time>2013-04-01T18:03:51Z</time>
      </trkpt>
      <trkpt lat="59.9701344" lon="17.7535507">
        <ele>22.2476</ele>
        <time>2013-04-01T18:03:52Z</time>
      </trkpt>
      <trkpt lat="59.970125" lon="17.7535675">
        <ele>22.2476</ele>
        <time>2013-04-01T18:03:53Z</time>
      </trkpt>
      <trkpt lat="59.9701165" lon="17.7535771">
        <ele>22.7283</ele>
        <time>2013-04-01T18:03:54Z</time>
      </trkpt>
      <trkpt lat="59.9701056" lon="17.7535904">
        <ele>23.6896</ele>
        <time>2013-04-01T18:03:55Z</time>
      </trkpt>
      <trkpt lat="59.9700978" lon="17.7536115">
        <ele>23.6896</ele>
        <time>2013-04-01T18:03:56Z</time>
      </trkpt>
      <trkpt lat="59.9700931" lon="17.7536087">
        <ele>24.1703</ele>
        <time>2013-04-01T18:03:57Z</time>
      </trkpt>
      <trkpt lat="59.9700879" lon="17.7536248">
        <ele>24.1703</ele>
        <time>2013-04-01T18:03:58Z</time>
      </trkpt>
      <trkpt lat="59.9700806" lon="17.7536566">
        <ele>23.6896</ele>
        <time>2013-04-01T18:03:59Z</time>
      </trkpt>
      <trkpt lat="59.970074" lon="17.753682">
        <ele>23.6896</ele>
        <time>2013-04-01T18:04:00Z</time>
      </trkpt>
      <trkpt lat="59.9700687" lon="17.7536984">
        <ele>23.6896</ele>
        <time>2013-04-01T18:04:01Z</time>
      </trkpt>
      <trkpt lat="59.9700626" lon="17.7537194">
        <ele>23.6896</ele>
        <time>2013-04-01T18:04:02Z</time>
      </trkpt>
      <trkpt lat="59.9700567" lon="17.7537384">
        <ele>23.6896</ele>
        <time>2013-04-01T18:04:03Z</time>
      </trkpt>
      <trkpt lat="59.9700506" lon="17.7537553">
        <ele>23.209</ele>
        <time>2013-04-01T18:04:04Z</time>
      </trkpt>
      <trkpt lat="59.9700464" lon="17.7537603">
        <ele>23.209</ele>
        <time>2013-04-01T18:04:05Z</time>
      </trkpt>
      <trkpt lat="59.9700398" lon="17.7537807">
        <ele>22.7283</ele>
        <time>2013-04-01T18:04:06Z</time>
      </trkpt>
      <trkpt lat="59.9700325" lon="17.7537995">
        <ele>22.7283</ele>
        <time>2013-04-01T18:04:07Z</time>
      </trkpt>
      <trkpt lat="59.9700262" lon="17.7538185">
        <ele>22.2476</ele>
        <time>2013-04-01T18:04:08Z</time>
      </trkpt>
      <trkpt lat="59.9700197" lon="17.7538336">
        <ele>21.767</ele>
        <time>2013-04-01T18:04:09Z</time>
      </trkpt>
      <trkpt lat="59.9700116" lon="17.753845">
        <ele>21.767</ele>
        <time>2013-04-01T18:04:10Z</time>
      </trkpt>
      <trkpt lat="59.9700024" lon="17.7538633">
        <ele>21.767</ele>
        <time>2013-04-01T18:04:11Z</time>
      </trkpt>
      <trkpt lat="59.9699951" lon="17.7538736">
        <ele>21.767</ele>
        <time>2013-04-01T18:04:12Z</time>
      </trkpt>
      <trkpt lat="59.969988" lon="17.7538928">
        <ele>21.2864</ele>
        <time>2013-04-01T18:04:13Z</time>
      </trkpt>
      <trkpt lat="59.9699827" lon="17.7538949">
        <ele>21.767</ele>
        <time>2013-04-01T18:04:14Z</time>
      </trkpt>
      <trkpt lat="59.969976" lon="17.7539084">
        <ele>21.767</ele>
        <time>2013-04-01T18:04:15Z</time>
      </trkpt>
      <trkpt lat="59.9699687" lon="17.7539253">
        <ele>21.2864</ele>
        <time>2013-04-01T18:04:16Z</time>
      </trkpt>
      <trkpt lat="59.9699606" lon="17.7539441">
        <ele>21.2864</ele>
        <time>2013-04-01T18:04:17Z</time>
      </trkpt>
      <trkpt lat="59.9699523" lon="17.7539621">
        <ele>21.2864</ele>
        <time>2013-04-01T18:04:18Z</time>
      </trkpt>
      <trkpt lat="59.9699425" lon="17.75397">
        <ele>21.767</ele>
        <time>2013-04-01T18:04:19Z</time>
      </trkpt>
      <trkpt lat="59.9699344" lon="17.7539781">
        <ele>22.2476</ele>
        <time>2013-04-01T18:04:20Z</time>
      </trkpt>
      <trkpt lat="59.9699267" lon="17.753991">
        <ele>22.2476</ele>
        <time>2013-04-01T18:04:21Z</time>
      </trkpt>
      <trkpt lat="59.9699181" lon="17.7540067">
        <ele>22.7283</ele>
        <time>2013-04-01T18:04:22Z</time>
      </trkpt>
      <trkpt lat="59.9699098" lon="17.7540221">
        <ele>22.7283</ele>
        <time>2013-04-01T18:04:23Z</time>
      </trkpt>
      <trkpt lat="59.9699015" lon="17.7540387">
        <ele>22.7283</ele>
        <time>2013-04-01T18:04:24Z</time>
      </trkpt>
      <trkpt lat="59.9698849" lon="17.7540606">
        <ele>24.1703</ele>
        <time>2013-04-01T18:04:25Z</time>
      </trkpt>
      <trkpt lat="59.9698766" lon="17.7540782">
        <ele>24.1703</ele>
        <time>2013-04-01T18:04:26Z</time>
      </trkpt>
      <trkpt lat="59.969875" lon="17.7540907">
        <ele>23.209</ele>
        <time>2013-04-01T18:04:27Z</time>
      </trkpt>
      <trkpt lat="59.9698674" lon="17.7541065">
        <ele>23.209</ele>
        <time>2013-04-01T18:04:28Z</time>
      </trkpt>
      <trkpt lat="59.9698595" lon="17.7541232">
        <ele>23.209</ele>
        <time>2013-04-01T18:04:29Z</time>
      </trkpt>
      <trkpt lat="59.9698512" lon="17.7541414">
        <ele>23.209</ele>
        <time>2013-04-01T18:04:30Z</time>
      </trkpt>
      <trkpt lat="59.9698412" lon="17.7541606">
        <ele>23.6896</ele>
        <time>2013-04-01T18:04:31Z</time>
      </trkpt>
      <trkpt lat="59.96983" lon="17.7541792">
        <ele>23.6896</ele>
        <time>2013-04-01T18:04:32Z</time>
      </trkpt>
      <trkpt lat="59.9698201" lon="17.7541989">
        <ele>24.1703</ele>
        <time>2013-04-01T18:04:33Z</time>
      </trkpt>
      <trkpt lat="59.9698179" lon="17.7542192">
        <ele>23.209</ele>
        <time>2013-04-01T18:04:34Z</time>
      </trkpt>
      <trkpt lat="59.9698107" lon="17.7542389">
        <ele>23.209</ele>
        <time>2013-04-01T18:04:35Z</time>
      </trkpt>
      <trkpt lat="59.9698009" lon="17.754255">
        <ele>23.6896</ele>
        <time>2013-04-01T18:04:36Z</time>
      </trkpt>
      <trkpt lat="59.9697905" lon="17.7542736">
        <ele>23.6896</ele>
        <time>2013-04-01T18:04:37Z</time>
      </trkpt>
      <trkpt lat="59.9697809" lon="17.7542922">
        <ele>24.1703</ele>
        <time>2013-04-01T18:04:38Z</time>
      </trkpt>
      <trkpt lat="59.9697731" lon="17.7542987">
        <ele>24.1703</ele>
        <time>2013-04-01T18:04:39Z</time>
      </trkpt>
      <trkpt lat="59.969765" lon="17.754319">
        <ele>24.1703</ele>
        <time>2013-04-01T18:04:40Z</time>
      </trkpt>
      <trkpt lat="59.9697562" lon="17.7543403">
        <ele>24.651</ele>
        <time>2013-04-01T18:04:41Z</time>
      </trkpt>
      <trkpt lat="59.9697477" lon="17.754362">
        <ele>24.651</ele>
        <time>2013-04-01T18:04:42Z</time>
      </trkpt>
      <trkpt lat="59.9697391" lon="17.7543859">
        <ele>24.651</ele>
        <time>2013-04-01T18:04:43Z</time>
      </trkpt>
      <trkpt lat="59.9697305" lon="17.7544076">
        <ele>24.651</ele>
        <time>2013-04-01T18:04:44Z</time>
      </trkpt>
      <trkpt lat="59.9697212" lon="17.7544282">
        <ele>24.651</ele>
        <time>2013-04-01T18:04:45Z</time>
      </trkpt>
      <trkpt lat="59.9697101" lon="17.7544466">
        <ele>25.1317</ele>
        <time>2013-04-01T18:04:46Z</time>
      </trkpt>
      <trkpt lat="59.9696956" lon="17.7544667">
        <ele>26.0929</ele>
        <time>2013-04-01T18:04:47Z</time>
      </trkpt>
      <trkpt lat="59.9696821" lon="17.7544857">
        <ele>26.5736</ele>
        <time>2013-04-01T18:04:48Z</time>
      </trkpt>
      <trkpt lat="59.9696667" lon="17.7545108">
        <ele>27.0543</ele>
        <time>2013-04-01T18:04:49Z</time>
      </trkpt>
      <trkpt lat="59.9696549" lon="17.7545254">
        <ele>27.5349</ele>
        <time>2013-04-01T18:04:50Z</time>
      </trkpt>
      <trkpt lat="59.9696436" lon="17.7545511">
        <ele>28.0155</ele>
        <time>2013-04-01T18:04:51Z</time>
      </trkpt>
      <trkpt lat="59.9696394" lon="17.7545714">
        <ele>27.5349</ele>
        <time>2013-04-01T18:04:52Z</time>
      </trkpt>
      <trkpt lat="59.9696334" lon="17.7545924">
        <ele>27.5349</ele>
        <time>2013-04-01T18:04:53Z</time>
      </trkpt>
      <trkpt lat="59.9696279" lon="17.754618">
        <ele>27.5349</ele>
        <time>2013-04-01T18:04:54Z</time>
      </trkpt>
      <trkpt lat="59.9696223" lon="17.7546304">
        <ele>27.5349</ele>
        <time>2013-04-01T18:04:55Z</time>
      </trkpt>
      <trkpt lat="59.9696153" lon="17.7546491">
        <ele>27.0543</ele>
        <time>2013-04-01T18:04:56Z</time>
      </trkpt>
      <trkpt lat="59.9696083" lon="17.7546689">
        <ele>27.0543</ele>
        <time>2013-04-01T18:04:57Z</time>
      </trkpt>
      <trkpt lat="59.9696003" lon="17.7546873">
        <ele>27.0543</ele>
        <time>2013-04-01T18:04:58Z</time>
      </trkpt>
      <trkpt lat="59.969592" lon="17.7547066">
        <ele>27.0543</ele>
        <time>2013-04-01T18:04:59Z</time>
      </trkpt>
      <trkpt lat="59.9695839" lon="17.7547236">
        <ele>27.0543</ele>
        <time>2013-04-01T18:05:00Z</time>
      </trkpt>
      <trkpt lat="59.9695766" lon="17.7547406">
        <ele>27.0543</ele>
        <time>2013-04-01T18:05:01Z</time>
      </trkpt>
      <trkpt lat="59.9695699" lon="17.7547554">
        <ele>27.0543</ele>
        <time>2013-04-01T18:05:02Z</time>
      </trkpt>
      <trkpt lat="59.9695616" lon="17.7547734">
        <ele>27.0543</ele>
        <time>2013-04-01T18:05:03Z</time>
      </trkpt>
      <trkpt lat="59.9695545" lon="17.7547858">
        <ele>27.0543</ele>
        <time>2013-04-01T18:05:04Z</time>
      </trkpt>
      <trkpt lat="59.9695472" lon="17.7548012">
        <ele>26.5736</ele>
        <time>2013-04-01T18:05:05Z</time>
      </trkpt>
      <trkpt lat="59.9695399" lon="17.7548179">
        <ele>26.5736</ele>
        <time>2013-04-01T18:05:06Z</time>
      </trkpt>
      <trkpt lat="59.9695311" lon="17.7548434">
        <ele>26.5736</ele>
        <time>2013-04-01T18:05:07Z</time>
      </trkpt>
      <trkpt lat="59.9695223" lon="17.7548646">
        <ele>26.0929</ele>
        <time>2013-04-01T18:05:08Z</time>
      </trkpt>
      <trkpt lat="59.969513" lon="17.7548835">
        <ele>26.0929</ele>
        <time>2013-04-01T18:05:09Z</time>
      </trkpt>
      <trkpt lat="59.9695029" lon="17.7549003">
        <ele>26.0929</ele>
        <time>2013-04-01T18:05:10Z</time>
      </trkpt>
      <trkpt lat="59.9694922" lon="17.7549164">
        <ele>26.0929</ele>
        <time>2013-04-01T18:05:11Z</time>
      </trkpt>
      <trkpt lat="59.9694828" lon="17.7549308">
        <ele>26.0929</ele>
        <time>2013-04-01T18:05:12Z</time>
      </trkpt>
      <trkpt lat="59.9694737" lon="17.7549449">
        <ele>25.6123</ele>
        <time>2013-04-01T18:05:13Z</time>
      </trkpt>
      <trkpt lat="59.9694654" lon="17.7549532">
        <ele>26.0929</ele>
        <time>2013-04-01T18:05:14Z</time>
      </trkpt>
      <trkpt lat="59.9694575" lon="17.7549665">
        <ele>26.0929</ele>
        <time>2013-04-01T18:05:15Z</time>
      </trkpt>
      <trkpt lat="59.9694493" lon="17.7549885">
        <ele>25.6123</ele>
        <time>2013-04-01T18:05:16Z</time>
      </trkpt>
      <trkpt lat="59.9694419" lon="17.7550053">
        <ele>25.6123</ele>
        <time>2013-04-01T18:05:17Z</time>
      </trkpt>
      <trkpt lat="59.9694347" lon="17.7550204">
        <ele>25.6123</ele>
        <time>2013-04-01T18:05:18Z</time>
      </trkpt>
      <trkpt lat="59.9694273" lon="17.7550351">
        <ele>25.6123</ele>
        <time>2013-04-01T18:05:19Z</time>
      </trkpt>
      <trkpt lat="59.969419" lon="17.75505">
        <ele>25.6123</ele>
        <time>2013-04-01T18:05:20Z</time>
      </trkpt>
      <trkpt lat="59.9694102" lon="17.7550654">
        <ele>25.6123</ele>
        <time>2013-04-01T18:05:21Z</time>
      </trkpt>
      <trkpt lat="59.9694012" lon="17.7550817">
        <ele>25.6123</ele>
        <time>2013-04-01T18:05:22Z</time>
      </trkpt>
      <trkpt lat="59.9693926" lon="17.7550977">
        <ele>25.6123</ele>
        <time>2013-04-01T18:05:23Z</time>
      </trkpt>
      <trkpt lat="59.969384" lon="17.7551137">
        <ele>25.6123</ele>
        <time>2013-04-01T18:05:24Z</time>
      </trkpt>
      <trkpt lat="59.969376" lon="17.7551319">
        <ele>25.6123</ele>
        <time>2013-04-01T18:05:25Z</time>
      </trkpt>
      <trkpt lat="59.9693684" lon="17.7551505">
        <ele>25.6123</ele>
        <time>2013-04-01T18:05:26Z</time>
      </trkpt>
      <trkpt lat="59.9693546" lon="17.7551708">
        <ele>26.0929</ele>
        <time>2013-04-01T18:05:27Z</time>
      </trkpt>
      <trkpt lat="59.9693454" lon="17.7551881">
        <ele>26.5736</ele>
        <time>2013-04-01T18:05:28Z</time>
      </trkpt>
      <trkpt lat="59.9693375" lon="17.7552043">
        <ele>26.5736</ele>
        <time>2013-04-01T18:05:29Z</time>
      </trkpt>
      <trkpt lat="59.9693266" lon="17.7552157">
        <ele>27.0543</ele>
        <time>2013-04-01T18:05:30Z</time>
      </trkpt>
      <trkpt lat="59.9693176" lon="17.7552023">
        <ele>27.0543</ele>
        <time>2013-04-01T18:05:31Z</time>
      </trkpt>
      <trkpt lat="59.9693134" lon="17.7551754">
        <ele>27.5349</ele>
        <time>2013-04-01T18:05:32Z</time>
      </trkpt>
      <trkpt lat="59.9693089" lon="17.7551531">
        <ele>28.4962</ele>
        <time>2013-04-01T18:05:33Z</time>
      </trkpt>
      <trkpt lat="59.9693099" lon="17.7551291">
        <ele>29.4575</ele>
        <time>2013-04-01T18:05:34Z</time>
      </trkpt>
      <trkpt lat="59.9693165" lon="17.7551054">
        <ele>29.4575</ele>
        <time>2013-04-01T18:05:35Z</time>
      </trkpt>
      <trkpt lat="59.9693259" lon="17.7550964">
        <ele>29.4575</ele>
        <time>2013-04-01T18:05:36Z</time>
      </trkpt>
      <trkpt lat="59.9693259" lon="17.7550949">
        <ele>30.4188</ele>
        <time>2013-04-01T18:05:37Z</time>
      </trkpt>
      <trkpt lat="59.9693368" lon="17.7550677">
        <ele>29.9381</ele>
        <time>2013-04-01T18:05:38Z</time>
      </trkpt>
      <trkpt lat="59.9693476" lon="17.7550463">
        <ele>29.9381</ele>
        <time>2013-04-01T18:05:39Z</time>
      </trkpt>
      <trkpt lat="59.9693442" lon="17.7550358">
        <ele>31.3801</ele>
        <time>2013-04-01T18:05:40Z</time>
      </trkpt>
      <trkpt lat="59.9693528" lon="17.755009">
        <ele>31.8607</ele>
        <time>2013-04-01T18:05:41Z</time>
      </trkpt>
      <trkpt lat="59.9693664" lon="17.7549831">
        <ele>31.3801</ele>
        <time>2013-04-01T18:05:42Z</time>
      </trkpt>
      <trkpt lat="59.9693756" lon="17.7549628">
        <ele>30.8995</ele>
        <time>2013-04-01T18:05:43Z</time>
      </trkpt>
      <trkpt lat="59.9693874" lon="17.7549459">
        <ele>30.4188</ele>
        <time>2013-04-01T18:05:44Z</time>
      </trkpt>
      <trkpt lat="59.9694038" lon="17.7549229">
        <ele>29.4575</ele>
        <time>2013-04-01T18:05:45Z</time>
      </trkpt>
      <trkpt lat="59.9694219" lon="17.7548983">
        <ele>28.9769</ele>
        <time>2013-04-01T18:05:46Z</time>
      </trkpt>
      <trkpt lat="59.9694456" lon="17.7548609">
        <ele>27.0543</ele>
        <time>2013-04-01T18:05:47Z</time>
      </trkpt>
      <trkpt lat="59.9694586" lon="17.7548345">
        <ele>25.1317</ele>
        <time>2013-04-01T18:05:48Z</time>
      </trkpt>
      <trkpt lat="59.969476" lon="17.7547966">
        <ele>24.651</ele>
        <time>2013-04-01T18:05:49Z</time>
      </trkpt>
      <trkpt lat="59.9694943" lon="17.7547593">
        <ele>23.6896</ele>
        <time>2013-04-01T18:05:50Z</time>
      </trkpt>
      <trkpt lat="59.9694948" lon="17.7547517">
        <ele>25.6123</ele>
        <time>2013-04-01T18:05:51Z</time>
      </trkpt>
      <trkpt lat="59.969503" lon="17.7547343">
        <ele>26.5736</ele>
        <time>2013-04-01T18:05:52Z</time>
      </trkpt>
      <trkpt lat="59.9695196" lon="17.7547082">
        <ele>25.6123</ele>
        <time>2013-04-01T18:05:53Z</time>
      </trkpt>
      <trkpt lat="59.9695278" lon="17.7546974">
        <ele>26.0929</ele>
        <time>2013-04-01T18:05:54Z</time>
      </trkpt>
      <trkpt lat="59.9695383" lon="17.754672">
        <ele>26.0929</ele>
        <time>2013-04-01T18:05:55Z</time>
      </trkpt>
      <trkpt lat="59.9695438" lon="17.7546512">
        <ele>26.0929</ele>
        <time>2013-04-01T18:05:56Z</time>
      </trkpt>
      <trkpt lat="59.9695638" lon="17.7546236">
        <ele>25.1317</ele>
        <time>2013-04-01T18:05:57Z</time>
      </trkpt>
      <trkpt lat="59.9695782" lon="17.7546048">
        <ele>24.651</ele>
        <time>2013-04-01T18:05:58Z</time>
      </trkpt>
      <trkpt lat="59.9695951" lon="17.7545847">
        <ele>23.6896</ele>
        <time>2013-04-01T18:05:59Z</time>
      </trkpt>
      <trkpt lat="59.9696078" lon="17.7545657">
        <ele>22.7283</ele>
        <time>2013-04-01T18:06:00Z</time>
      </trkpt>
      <trkpt lat="59.9696224" lon="17.7545422">
        <ele>22.2476</ele>
        <time>2013-04-01T18:06:01Z</time>
      </trkpt>
      <trkpt lat="59.9696279" lon="17.7545387">
        <ele>22.2476</ele>
        <time>2013-04-01T18:06:02Z</time>
      </trkpt>
      <trkpt lat="59.9696331" lon="17.7545332">
        <ele>22.2476</ele>
        <time>2013-04-01T18:06:03Z</time>
      </trkpt>
      <trkpt lat="59.9696383" lon="17.7545154">
        <ele>23.209</ele>
        <time>2013-04-01T18:06:04Z</time>
      </trkpt>
      <trkpt lat="59.9696554" lon="17.7544986">
        <ele>22.7283</ele>
        <time>2013-04-01T18:06:05Z</time>
      </trkpt>
      <trkpt lat="59.9696604" lon="17.7544819">
        <ele>23.209</ele>
        <time>2013-04-01T18:06:06Z</time>
      </trkpt>
      <trkpt lat="59.9696661" lon="17.7544629">
        <ele>24.1703</ele>
        <time>2013-04-01T18:06:07Z</time>
      </trkpt>
      <trkpt lat="59.9696709" lon="17.754448">
        <ele>24.1703</ele>
        <time>2013-04-01T18:06:08Z</time>
      </trkpt>
      <trkpt lat="59.9696703" lon="17.7544298">
        <ele>26.0929</ele>
        <time>2013-04-01T18:06:09Z</time>
      </trkpt>
      <trkpt lat="59.9696719" lon="17.7544113">
        <ele>27.0543</ele>
        <time>2013-04-01T18:06:10Z</time>
      </trkpt>
      <trkpt lat="59.9696735" lon="17.7543967">
        <ele>28.0155</ele>
        <time>2013-04-01T18:06:11Z</time>
      </trkpt>
      <trkpt lat="59.9696755" lon="17.7543848">
        <ele>29.4575</ele>
        <time>2013-04-01T18:06:12Z</time>
      </trkpt>
      <trkpt lat="59.9696755" lon="17.7543688">
        <ele>31.3801</ele>
        <time>2013-04-01T18:06:13Z</time>
      </trkpt>
      <trkpt lat="59.9696901" lon="17.7543572">
        <ele>30.4188</ele>
        <time>2013-04-01T18:06:14Z</time>
      </trkpt>
      <trkpt lat="59.9697008" lon="17.7543432">
        <ele>30.4188</ele>
        <time>2013-04-01T18:06:15Z</time>
      </trkpt>
      <trkpt lat="59.9697108" lon="17.75433">
        <ele>30.4188</ele>
        <time>2013-04-01T18:06:16Z</time>
      </trkpt>
      <trkpt lat="59.9697211" lon="17.7543182">
        <ele>30.8995</ele>
        <time>2013-04-01T18:06:17Z</time>
      </trkpt>
      <trkpt lat="59.9697313" lon="17.754301">
        <ele>29.9381</ele>
        <time>2013-04-01T18:06:18Z</time>
      </trkpt>
      <trkpt lat="59.9697438" lon="17.7542861">
        <ele>29.4575</ele>
        <time>2013-04-01T18:06:19Z</time>
      </trkpt>
      <trkpt lat="59.9697495" lon="17.7542694">
        <ele>29.9381</ele>
        <time>2013-04-01T18:06:20Z</time>
      </trkpt>
      <trkpt lat="59.9697558" lon="17.754256">
        <ele>30.4188</ele>
        <time>2013-04-01T18:06:21Z</time>
      </trkpt>
      <trkpt lat="59.969765" lon="17.7542379">
        <ele>30.4188</ele>
        <time>2013-04-01T18:06:22Z</time>
      </trkpt>
      <trkpt lat="59.9697728" lon="17.7542197">
        <ele>30.4188</ele>
        <time>2013-04-01T18:06:23Z</time>
      </trkpt>
      <trkpt lat="59.9697783" lon="17.7542062">
        <ele>30.8995</ele>
        <time>2013-04-01T18:06:24Z</time>
      </trkpt>
      <trkpt lat="59.9697865" lon="17.7541939">
        <ele>30.8995</ele>
        <time>2013-04-01T18:06:25Z</time>
      </trkpt>
      <trkpt lat="59.9697953" lon="17.7541788">
        <ele>30.8995</ele>
        <time>2013-04-01T18:06:26Z</time>
      </trkpt>
      <trkpt lat="59.9698054" lon="17.7541627">
        <ele>31.3801</ele>
        <time>2013-04-01T18:06:27Z</time>
      </trkpt>
      <trkpt lat="59.9698128" lon="17.7541456">
        <ele>31.8607</ele>
        <time>2013-04-01T18:06:28Z</time>
      </trkpt>
      <trkpt lat="59.9698212" lon="17.7541279">
        <ele>31.8607</ele>
        <time>2013-04-01T18:06:29Z</time>
      </trkpt>
      <trkpt lat="59.96983" lon="17.754113">
        <ele>31.3801</ele>
        <time>2013-04-01T18:06:30Z</time>
      </trkpt>
      <trkpt lat="59.9698401" lon="17.7540995">
        <ele>30.8995</ele>
        <time>2013-04-01T18:06:31Z</time>
      </trkpt>
      <trkpt lat="59.9698477" lon="17.754084">
        <ele>30.8995</ele>
        <time>2013-04-01T18:06:32Z</time>
      </trkpt>
      <trkpt lat="59.9698548" lon="17.7540667">
        <ele>31.3801</ele>
        <time>2013-04-01T18:06:33Z</time>
      </trkpt>
      <trkpt lat="59.9698616" lon="17.7540491">
        <ele>31.3801</ele>
        <time>2013-04-01T18:06:34Z</time>
      </trkpt>
      <trkpt lat="59.9698682" lon="17.754033">
        <ele>31.3801</ele>
        <time>2013-04-01T18:06:35Z</time>
      </trkpt>
      <trkpt lat="59.969875" lon="17.7540187">
        <ele>31.8607</ele>
        <time>2013-04-01T18:06:36Z</time>
      </trkpt>
      <trkpt lat="59.9698821" lon="17.7540042">
        <ele>31.8607</ele>
        <time>2013-04-01T18:06:37Z</time>
      </trkpt>
      <trkpt lat="59.9698894" lon="17.7539881">
        <ele>31.8607</ele>
        <time>2013-04-01T18:06:38Z</time>
      </trkpt>
      <trkpt lat="59.9698968" lon="17.7539709">
        <ele>32.3416</ele>
        <time>2013-04-01T18:06:39Z</time>
      </trkpt>
      <trkpt lat="59.969905" lon="17.753956">
        <ele>32.3416</ele>
        <time>2013-04-01T18:06:40Z</time>
      </trkpt>
      <trkpt lat="59.9699135" lon="17.7539382">
        <ele>32.3416</ele>
        <time>2013-04-01T18:06:41Z</time>
      </trkpt>
      <trkpt lat="59.9699217" lon="17.7539211">
        <ele>32.3416</ele>
        <time>2013-04-01T18:06:42Z</time>
      </trkpt>
      <trkpt lat="59.9699297" lon="17.7539026">
        <ele>32.3416</ele>
        <time>2013-04-01T18:06:43Z</time>
      </trkpt>
      <trkpt lat="59.9699376" lon="17.7538839">
        <ele>32.3416</ele>
        <time>2013-04-01T18:06:44Z</time>
      </trkpt>
      <trkpt lat="59.9699449" lon="17.7538674">
        <ele>32.3416</ele>
        <time>2013-04-01T18:06:45Z</time>
      </trkpt>
      <trkpt lat="59.9699517" lon="17.7538513">
        <ele>32.3416</ele>
        <time>2013-04-01T18:06:46Z</time>
      </trkpt>
      <trkpt lat="59.9699588" lon="17.7538341">
        <ele>32.8223</ele>
        <time>2013-04-01T18:06:47Z</time>
      </trkpt>
      <trkpt lat="59.9699658" lon="17.7538171">
        <ele>32.8223</ele>
        <time>2013-04-01T18:06:48Z</time>
      </trkpt>
      <trkpt lat="59.9699725" lon="17.7537995">
        <ele>32.8223</ele>
        <time>2013-04-01T18:06:49Z</time>
      </trkpt>
      <trkpt lat="59.9699797" lon="17.7537809">
        <ele>32.8223</ele>
        <time>2013-04-01T18:06:50Z</time>
      </trkpt>
      <trkpt lat="59.9699872" lon="17.7537617">
        <ele>33.3029</ele>
        <time>2013-04-01T18:06:51Z</time>
      </trkpt>
      <trkpt lat="59.9699946" lon="17.753744">
        <ele>33.3029</ele>
        <time>2013-04-01T18:06:52Z</time>
      </trkpt>
      <trkpt lat="59.9700019" lon="17.7537261">
        <ele>33.3029</ele>
        <time>2013-04-01T18:06:53Z</time>
      </trkpt>
      <trkpt lat="59.9700097" lon="17.7537067">
        <ele>33.3029</ele>
        <time>2013-04-01T18:06:54Z</time>
      </trkpt>
      <trkpt lat="59.9700175" lon="17.7536867">
        <ele>33.3029</ele>
        <time>2013-04-01T18:06:55Z</time>
      </trkpt>
      <trkpt lat="59.9700251" lon="17.753669">
        <ele>33.3029</ele>
        <time>2013-04-01T18:06:56Z</time>
      </trkpt>
      <trkpt lat="59.9700328" lon="17.7536514">
        <ele>33.7834</ele>
        <time>2013-04-01T18:06:57Z</time>
      </trkpt>
      <trkpt lat="59.9700406" lon="17.7536343">
        <ele>33.7834</ele>
        <time>2013-04-01T18:06:58Z</time>
      </trkpt>
      <trkpt lat="59.9700484" lon="17.7536178">
        <ele>33.7834</ele>
        <time>2013-04-01T18:06:59Z</time>
      </trkpt>
      <trkpt lat="59.9700563" lon="17.753601">
        <ele>34.2642</ele>
        <time>2013-04-01T18:07:00Z</time>
      </trkpt>
      <trkpt lat="59.9700657" lon="17.7535872">
        <ele>33.7834</ele>
        <time>2013-04-01T18:07:01Z</time>
      </trkpt>
      <trkpt lat="59.9700748" lon="17.7535719">
        <ele>33.7834</ele>
        <time>2013-04-01T18:07:02Z</time>
      </trkpt>
      <trkpt lat="59.9700828" lon="17.7535539">
        <ele>34.2642</ele>
        <time>2013-04-01T18:07:03Z</time>
      </trkpt>
      <trkpt lat="59.9700911" lon="17.7535353">
        <ele>34.2642</ele>
        <time>2013-04-01T18:07:04Z</time>
      </trkpt>
      <trkpt lat="59.9700998" lon="17.7535153">
        <ele>34.2642</ele>
        <time>2013-04-01T18:07:05Z</time>
      </trkpt>
      <trkpt lat="59.9701083" lon="17.753495">
        <ele>34.2642</ele>
        <time>2013-04-01T18:07:06Z</time>
      </trkpt>
      <trkpt lat="59.9701164" lon="17.7534774">
        <ele>34.2642</ele>
        <time>2013-04-01T18:07:07Z</time>
      </trkpt>
      <trkpt lat="59.9701238" lon="17.7534582">
        <ele>34.2642</ele>
        <time>2013-04-01T18:07:08Z</time>
      </trkpt>
      <trkpt lat="59.9701315" lon="17.7534375">
        <ele>34.7449</ele>
        <time>2013-04-01T18:07:09Z</time>
      </trkpt>
      <trkpt lat="59.9701387" lon="17.7534186">
        <ele>34.2642</ele>
        <time>2013-04-01T18:07:10Z</time>
      </trkpt>
      <trkpt lat="59.9701468" lon="17.7534002">
        <ele>34.2642</ele>
        <time>2013-04-01T18:07:11Z</time>
      </trkpt>
      <trkpt lat="59.9701533" lon="17.7533831">
        <ele>34.2642</ele>
        <time>2013-04-01T18:07:12Z</time>
      </trkpt>
      <trkpt lat="59.9701608" lon="17.7533652">
        <ele>34.2642</ele>
        <time>2013-04-01T18:07:13Z</time>
      </trkpt>
      <trkpt lat="59.9701677" lon="17.7533443">
        <ele>34.2642</ele>
        <time>2013-04-01T18:07:14Z</time>
      </trkpt>
      <trkpt lat="59.9701748" lon="17.753323">
        <ele>34.2642</ele>
        <time>2013-04-01T18:07:15Z</time>
      </trkpt>
      <trkpt lat="59.9701827" lon="17.7533037">
        <ele>34.2642</ele>
        <time>2013-04-01T18:07:16Z</time>
      </trkpt>
      <trkpt lat="59.9701915" lon="17.7532852">
        <ele>34.2642</ele>
        <time>2013-04-01T18:07:17Z</time>
      </trkpt>
      <trkpt lat="59.9702004" lon="17.7532666">
        <ele>34.2642</ele>
        <time>2013-04-01T18:07:18Z</time>
      </trkpt>
      <trkpt lat="59.9702086" lon="17.7532477">
        <ele>34.2642</ele>
        <time>2013-04-01T18:07:19Z</time>
      </trkpt>
      <trkpt lat="59.9702169" lon="17.7532276">
        <ele>34.7449</ele>
        <time>2013-04-01T18:07:20Z</time>
      </trkpt>
      <trkpt lat="59.9702247" lon="17.7532078">
        <ele>34.7449</ele>
        <time>2013-04-01T18:07:21Z</time>
      </trkpt>
      <trkpt lat="59.9702313" lon="17.7531874">
        <ele>34.7449</ele>
        <time>2013-04-01T18:07:22Z</time>
      </trkpt>
      <trkpt lat="59.970237" lon="17.753167">
        <ele>34.7449</ele>
        <time>2013-04-01T18:07:23Z</time>
      </trkpt>
      <trkpt lat="59.9702426" lon="17.7531463">
        <ele>34.7449</ele>
        <time>2013-04-01T18:07:24Z</time>
      </trkpt>
      <trkpt lat="59.970248" lon="17.7531264">
        <ele>34.7449</ele>
        <time>2013-04-01T18:07:25Z</time>
      </trkpt>
      <trkpt lat="59.9702547" lon="17.7531066">
        <ele>35.2255</ele>
        <time>2013-04-01T18:07:26Z</time>
      </trkpt>
      <trkpt lat="59.9702618" lon="17.7530862">
        <ele>35.2255</ele>
        <time>2013-04-01T18:07:27Z</time>
      </trkpt>
      <trkpt lat="59.9702692" lon="17.7530654">
        <ele>35.2255</ele>
        <time>2013-04-01T18:07:28Z</time>
      </trkpt>
      <trkpt lat="59.9702775" lon="17.7530453">
        <ele>35.2255</ele>
        <time>2013-04-01T18:07:29Z</time>
      </trkpt>
      <trkpt lat="59.9702854" lon="17.753026">
        <ele>35.2255</ele>
        <time>2013-04-01T18:07:30Z</time>
      </trkpt>
      <trkpt lat="59.9702926" lon="17.7530052">
        <ele>35.7061</ele>
        <time>2013-04-01T18:07:31Z</time>
      </trkpt>
      <trkpt lat="59.9702993" lon="17.7529837">
        <ele>35.7061</ele>
        <time>2013-04-01T18:07:32Z</time>
      </trkpt>
      <trkpt lat="59.9703059" lon="17.7529631">
        <ele>35.7061</ele>
        <time>2013-04-01T18:07:33Z</time>
      </trkpt>
      <trkpt lat="59.9703121" lon="17.7529438">
        <ele>35.7061</ele>
        <time>2013-04-01T18:07:34Z</time>
      </trkpt>
      <trkpt lat="59.9703181" lon="17.7529245">
        <ele>35.7061</ele>
        <time>2013-04-01T18:07:35Z</time>
      </trkpt>
      <trkpt lat="59.9703248" lon="17.752906">
        <ele>36.1868</ele>
        <time>2013-04-01T18:07:36Z</time>
      </trkpt>
      <trkpt lat="59.9703317" lon="17.7528867">
        <ele>36.1868</ele>
        <time>2013-04-01T18:07:37Z</time>
      </trkpt>
      <trkpt lat="59.9703386" lon="17.7528664">
        <ele>36.1868</ele>
        <time>2013-04-01T18:07:38Z</time>
      </trkpt>
      <trkpt lat="59.9703455" lon="17.7528455">
        <ele>36.1868</ele>
        <time>2013-04-01T18:07:39Z</time>
      </trkpt>
      <trkpt lat="59.9703527" lon="17.7528252">
        <ele>36.1868</ele>
        <time>2013-04-01T18:07:40Z</time>
      </trkpt>
      <trkpt lat="59.9703604" lon="17.7528053">
        <ele>36.1868</ele>
        <time>2013-04-01T18:07:41Z</time>
      </trkpt>
      <trkpt lat="59.9703687" lon="17.7527851">
        <ele>36.1868</ele>
        <time>2013-04-01T18:07:42Z</time>
      </trkpt>
      <trkpt lat="59.970376" lon="17.7527652">
        <ele>36.1868</ele>
        <time>2013-04-01T18:07:43Z</time>
      </trkpt>
      <trkpt lat="59.970383" lon="17.7527459">
        <ele>36.1868</ele>
        <time>2013-04-01T18:07:44Z</time>
      </trkpt>
      <trkpt lat="59.9703893" lon="17.7527267">
        <ele>36.1868</ele>
        <time>2013-04-01T18:07:45Z</time>
      </trkpt>
      <trkpt lat="59.9703956" lon="17.7527081">
        <ele>36.1868</ele>
        <time>2013-04-01T18:07:46Z</time>
      </trkpt>
      <trkpt lat="59.9704003" lon="17.7526905">
        <ele>35.7061</ele>
        <time>2013-04-01T18:07:47Z</time>
      </trkpt>
      <trkpt lat="59.970406" lon="17.7526729">
        <ele>35.2255</ele>
        <time>2013-04-01T18:07:48Z</time>
      </trkpt>
      <trkpt lat="59.9704113" lon="17.7526521">
        <ele>35.2255</ele>
        <time>2013-04-01T18:07:49Z</time>
      </trkpt>
      <trkpt lat="59.9704169" lon="17.7526314">
        <ele>34.7449</ele>
        <time>2013-04-01T18:07:50Z</time>
      </trkpt>
      <trkpt lat="59.9704239" lon="17.7526121">
        <ele>34.7449</ele>
        <time>2013-04-01T18:07:51Z</time>
      </trkpt>
      <trkpt lat="59.9704301" lon="17.7525939">
        <ele>34.2642</ele>
        <time>2013-04-01T18:07:52Z</time>
      </trkpt>
      <trkpt lat="59.9704361" lon="17.7525744">
        <ele>34.2642</ele>
        <time>2013-04-01T18:07:53Z</time>
      </trkpt>
      <trkpt lat="59.9704417" lon="17.7525558">
        <ele>33.7834</ele>
        <time>2013-04-01T18:07:54Z</time>
      </trkpt>
      <trkpt lat="59.9704476" lon="17.7525364">
        <ele>33.7834</ele>
        <time>2013-04-01T18:07:55Z</time>
      </trkpt>
      <trkpt lat="59.9704543" lon="17.7525147">
        <ele>33.7834</ele>
        <time>2013-04-01T18:07:56Z</time>
      </trkpt>
      <trkpt lat="59.9704612" lon="17.7524986">
        <ele>33.7834</ele>
        <time>2013-04-01T18:07:57Z</time>
      </trkpt>
      <trkpt lat="59.970467" lon="17.7524822">
        <ele>33.7834</ele>
        <time>2013-04-01T18:07:58Z</time>
      </trkpt>
      <trkpt lat="59.970474" lon="17.7524667">
        <ele>33.7834</ele>
        <time>2013-04-01T18:07:59Z</time>
      </trkpt>
      <trkpt lat="59.9704816" lon="17.7524494">
        <ele>33.7834</ele>
        <time>2013-04-01T18:08:00Z</time>
      </trkpt>
      <trkpt lat="59.97049" lon="17.752432">
        <ele>33.7834</ele>
        <time>2013-04-01T18:08:01Z</time>
      </trkpt>
      <trkpt lat="59.9704987" lon="17.7524159">
        <ele>33.7834</ele>
        <time>2013-04-01T18:08:02Z</time>
      </trkpt>
      <trkpt lat="59.970507" lon="17.7524004">
        <ele>33.7834</ele>
        <time>2013-04-01T18:08:03Z</time>
      </trkpt>
      <trkpt lat="59.9705166" lon="17.7523847">
        <ele>33.3029</ele>
        <time>2013-04-01T18:08:04Z</time>
      </trkpt>
      <trkpt lat="59.9705266" lon="17.7523658">
        <ele>33.7834</ele>
        <time>2013-04-01T18:08:05Z</time>
      </trkpt>
      <trkpt lat="59.9705341" lon="17.7523497">
        <ele>33.3029</ele>
        <time>2013-04-01T18:08:06Z</time>
      </trkpt>
      <trkpt lat="59.9705412" lon="17.7523336">
        <ele>32.8223</ele>
        <time>2013-04-01T18:08:07Z</time>
      </trkpt>
      <trkpt lat="59.9705478" lon="17.7523166">
        <ele>32.8223</ele>
        <time>2013-04-01T18:08:08Z</time>
      </trkpt>
      <trkpt lat="59.9705553" lon="17.7523035">
        <ele>32.8223</ele>
        <time>2013-04-01T18:08:09Z</time>
      </trkpt>
      <trkpt lat="59.9705626" lon="17.752291">
        <ele>32.3416</ele>
        <time>2013-04-01T18:08:10Z</time>
      </trkpt>
      <trkpt lat="59.9705713" lon="17.7522766">
        <ele>32.3416</ele>
        <time>2013-04-01T18:08:11Z</time>
      </trkpt>
      <trkpt lat="59.9705811" lon="17.7522617">
        <ele>32.8223</ele>
        <time>2013-04-01T18:08:12Z</time>
      </trkpt>
      <trkpt lat="59.9705897" lon="17.7522481">
        <ele>32.3416</ele>
        <time>2013-04-01T18:08:13Z</time>
      </trkpt>
      <trkpt lat="59.9705975" lon="17.7522311">
        <ele>32.3416</ele>
        <time>2013-04-01T18:08:14Z</time>
      </trkpt>
      <trkpt lat="59.9706058" lon="17.7522145">
        <ele>32.3416</ele>
        <time>2013-04-01T18:08:15Z</time>
      </trkpt>
      <trkpt lat="59.9706143" lon="17.7521987">
        <ele>32.3416</ele>
        <time>2013-04-01T18:08:16Z</time>
      </trkpt>
      <trkpt lat="59.9706232" lon="17.7521823">
        <ele>32.3416</ele>
        <time>2013-04-01T18:08:17Z</time>
      </trkpt>
      <trkpt lat="59.9706313" lon="17.7521653">
        <ele>32.3416</ele>
        <time>2013-04-01T18:08:18Z</time>
      </trkpt>
      <trkpt lat="59.9706402" lon="17.7521502">
        <ele>31.8607</ele>
        <time>2013-04-01T18:08:19Z</time>
      </trkpt>
      <trkpt lat="59.970649" lon="17.7521341">
        <ele>31.8607</ele>
        <time>2013-04-01T18:08:20Z</time>
      </trkpt>
      <trkpt lat="59.9706572" lon="17.7521155">
        <ele>32.3416</ele>
        <time>2013-04-01T18:08:21Z</time>
      </trkpt>
      <trkpt lat="59.9706654" lon="17.7520985">
        <ele>32.3416</ele>
        <time>2013-04-01T18:08:22Z</time>
      </trkpt>
      <trkpt lat="59.9706743" lon="17.7520837">
        <ele>32.3416</ele>
        <time>2013-04-01T18:08:23Z</time>
      </trkpt>
      <trkpt lat="59.9706838" lon="17.7520678">
        <ele>32.3416</ele>
        <time>2013-04-01T18:08:24Z</time>
      </trkpt>
      <trkpt lat="59.9706943" lon="17.7520518">
        <ele>32.3416</ele>
        <time>2013-04-01T18:08:25Z</time>
      </trkpt>
      <trkpt lat="59.9707049" lon="17.7520305">
        <ele>31.8607</ele>
        <time>2013-04-01T18:08:26Z</time>
      </trkpt>
      <trkpt lat="59.9707142" lon="17.7520102">
        <ele>31.8607</ele>
        <time>2013-04-01T18:08:27Z</time>
      </trkpt>
      <trkpt lat="59.970724" lon="17.7519932">
        <ele>31.8607</ele>
        <time>2013-04-01T18:08:28Z</time>
      </trkpt>
      <trkpt lat="59.9707339" lon="17.7519797">
        <ele>31.3801</ele>
        <time>2013-04-01T18:08:29Z</time>
      </trkpt>
      <trkpt lat="59.9707436" lon="17.7519652">
        <ele>31.3801</ele>
        <time>2013-04-01T18:08:30Z</time>
      </trkpt>
      <trkpt lat="59.9707536" lon="17.7519478">
        <ele>31.3801</ele>
        <time>2013-04-01T18:08:31Z</time>
      </trkpt>
      <trkpt lat="59.9707608" lon="17.7519264">
        <ele>31.3801</ele>
        <time>2013-04-01T18:08:32Z</time>
      </trkpt>
      <trkpt lat="59.9707695" lon="17.7519088">
        <ele>31.3801</ele>
        <time>2013-04-01T18:08:33Z</time>
      </trkpt>
      <trkpt lat="59.9707777" lon="17.7518912">
        <ele>31.3801</ele>
        <time>2013-04-01T18:08:34Z</time>
      </trkpt>
      <trkpt lat="59.9707873" lon="17.7518711">
        <ele>31.3801</ele>
        <time>2013-04-01T18:08:35Z</time>
      </trkpt>
      <trkpt lat="59.9707984" lon="17.7518535">
        <ele>31.3801</ele>
        <time>2013-04-01T18:08:36Z</time>
      </trkpt>
      <trkpt lat="59.9708067" lon="17.7518311">
        <ele>31.8607</ele>
        <time>2013-04-01T18:08:37Z</time>
      </trkpt>
      <trkpt lat="59.9708162" lon="17.7518176">
        <ele>32.3416</ele>
        <time>2013-04-01T18:08:38Z</time>
      </trkpt>
      <trkpt lat="59.970827" lon="17.7518071">
        <ele>32.3416</ele>
        <time>2013-04-01T18:08:39Z</time>
      </trkpt>
      <trkpt lat="59.9708385" lon="17.7517995">
        <ele>32.3416</ele>
        <time>2013-04-01T18:08:40Z</time>
      </trkpt>
      <trkpt lat="59.97085" lon="17.7517903">
        <ele>32.3416</ele>
        <time>2013-04-01T18:08:41Z</time>
      </trkpt>
      <trkpt lat="59.9708611" lon="17.7517793">
        <ele>31.8607</ele>
        <time>2013-04-01T18:08:42Z</time>
      </trkpt>
      <trkpt lat="59.9708722" lon="17.7517662">
        <ele>32.3416</ele>
        <time>2013-04-01T18:08:43Z</time>
      </trkpt>
      <trkpt lat="59.9708825" lon="17.7517545">
        <ele>32.3416</ele>
        <time>2013-04-01T18:08:44Z</time>
      </trkpt>
      <trkpt lat="59.9708901" lon="17.7517367">
        <ele>32.3416</ele>
        <time>2013-04-01T18:08:45Z</time>
      </trkpt>
      <trkpt lat="59.9708997" lon="17.7517198">
        <ele>32.3416</ele>
        <time>2013-04-01T18:08:46Z</time>
      </trkpt>
      <trkpt lat="59.9709094" lon="17.7517041">
        <ele>32.3416</ele>
        <time>2013-04-01T18:08:47Z</time>
      </trkpt>
      <trkpt lat="59.970916" lon="17.7516815">
        <ele>32.3416</ele>
        <time>2013-04-01T18:08:48Z</time>
      </trkpt>
      <trkpt lat="59.970925" lon="17.7516685">
        <ele>32.3416</ele>
        <time>2013-04-01T18:08:49Z</time>
      </trkpt>
      <trkpt lat="59.9709353" lon="17.7516565">
        <ele>32.3416</ele>
        <time>2013-04-01T18:08:50Z</time>
      </trkpt>
      <trkpt lat="59.9709445" lon="17.751643">
        <ele>32.8223</ele>
        <time>2013-04-01T18:08:51Z</time>
      </trkpt>
      <trkpt lat="59.9709565" lon="17.7516335">
        <ele>32.8223</ele>
        <time>2013-04-01T18:08:52Z</time>
      </trkpt>
      <trkpt lat="59.9709689" lon="17.7516279">
        <ele>32.3416</ele>
        <time>2013-04-01T18:08:53Z</time>
      </trkpt>
      <trkpt lat="59.9709803" lon="17.7516232">
        <ele>32.3416</ele>
        <time>2013-04-01T18:08:54Z</time>
      </trkpt>
      <trkpt lat="59.970992" lon="17.7516196">
        <ele>32.3416</ele>
        <time>2013-04-01T18:08:55Z</time>
      </trkpt>
      <trkpt lat="59.9710038" lon="17.7516116">
        <ele>31.8607</ele>
        <time>2013-04-01T18:08:56Z</time>
      </trkpt>
      <trkpt lat="59.9710145" lon="17.7515994">
        <ele>31.8607</ele>
        <time>2013-04-01T18:08:57Z</time>
      </trkpt>
      <trkpt lat="59.9710245" lon="17.7515871">
        <ele>31.8607</ele>
        <time>2013-04-01T18:08:58Z</time>
      </trkpt>
      <trkpt lat="59.971036" lon="17.7515762">
        <ele>31.8607</ele>
        <time>2013-04-01T18:08:59Z</time>
      </trkpt>
      <trkpt lat="59.9710473" lon="17.7515662">
        <ele>31.3801</ele>
        <time>2013-04-01T18:09:00Z</time>
      </trkpt>
      <trkpt lat="59.9710592" lon="17.7515571">
        <ele>31.8607</ele>
        <time>2013-04-01T18:09:01Z</time>
      </trkpt>
      <trkpt lat="59.9710706" lon="17.7515477">
        <ele>31.8607</ele>
        <time>2013-04-01T18:09:02Z</time>
      </trkpt>
      <trkpt lat="59.9710825" lon="17.7515372">
        <ele>31.3801</ele>
        <time>2013-04-01T18:09:03Z</time>
      </trkpt>
      <trkpt lat="59.9710937" lon="17.751527">
        <ele>31.3801</ele>
        <time>2013-04-01T18:09:04Z</time>
      </trkpt>
      <trkpt lat="59.9711043" lon="17.7515186">
        <ele>31.3801</ele>
        <time>2013-04-01T18:09:05Z</time>
      </trkpt>
      <trkpt lat="59.9711158" lon="17.751513">
        <ele>30.8995</ele>
        <time>2013-04-01T18:09:06Z</time>
      </trkpt>
      <trkpt lat="59.9711246" lon="17.7515021">
        <ele>31.3801</ele>
        <time>2013-04-01T18:09:07Z</time>
      </trkpt>
      <trkpt lat="59.9711343" lon="17.7514865">
        <ele>31.8607</ele>
        <time>2013-04-01T18:09:08Z</time>
      </trkpt>
      <trkpt lat="59.9711432" lon="17.7514781">
        <ele>31.3801</ele>
        <time>2013-04-01T18:09:09Z</time>
      </trkpt>
      <trkpt lat="59.9711524" lon="17.7514725">
        <ele>30.8995</ele>
        <time>2013-04-01T18:09:10Z</time>
      </trkpt>
      <trkpt lat="59.9711621" lon="17.7514636">
        <ele>31.3801</ele>
        <time>2013-04-01T18:09:11Z</time>
      </trkpt>
      <trkpt lat="59.971173" lon="17.7514498">
        <ele>31.8607</ele>
        <time>2013-04-01T18:09:12Z</time>
      </trkpt>
      <trkpt lat="59.9711803" lon="17.7514306">
        <ele>31.8607</ele>
        <time>2013-04-01T18:09:13Z</time>
      </trkpt>
      <trkpt lat="59.9711875" lon="17.7514116">
        <ele>31.8607</ele>
        <time>2013-04-01T18:09:14Z</time>
      </trkpt>
      <trkpt lat="59.9711943" lon="17.7513929">
        <ele>31.8607</ele>
        <time>2013-04-01T18:09:15Z</time>
      </trkpt>
      <trkpt lat="59.9712026" lon="17.7513789">
        <ele>32.3416</ele>
        <time>2013-04-01T18:09:16Z</time>
      </trkpt>
      <trkpt lat="59.971211" lon="17.7513602">
        <ele>32.3416</ele>
        <time>2013-04-01T18:09:17Z</time>
      </trkpt>
      <trkpt lat="59.9712193" lon="17.7513417">
        <ele>32.8223</ele>
        <time>2013-04-01T18:09:18Z</time>
      </trkpt>
      <trkpt lat="59.9712276" lon="17.7513212">
        <ele>32.8223</ele>
        <time>2013-04-01T18:09:19Z</time>
      </trkpt>
      <trkpt lat="59.9712367" lon="17.7513039">
        <ele>32.8223</ele>
        <time>2013-04-01T18:09:20Z</time>
      </trkpt>
      <trkpt lat="59.9712474" lon="17.7512891">
        <ele>33.3029</ele>
        <time>2013-04-01T18:09:21Z</time>
      </trkpt>
      <trkpt lat="59.9712566" lon="17.7512762">
        <ele>33.3029</ele>
        <time>2013-04-01T18:09:22Z</time>
      </trkpt>
      <trkpt lat="59.971265" lon="17.751267">
        <ele>33.3029</ele>
        <time>2013-04-01T18:09:23Z</time>
      </trkpt>
      <trkpt lat="59.9712725" lon="17.7512531">
        <ele>33.3029</ele>
        <time>2013-04-01T18:09:24Z</time>
      </trkpt>
      <trkpt lat="59.9712797" lon="17.7512395">
        <ele>33.7834</ele>
        <time>2013-04-01T18:09:25Z</time>
      </trkpt>
      <trkpt lat="59.971288" lon="17.7512248">
        <ele>33.7834</ele>
        <time>2013-04-01T18:09:26Z</time>
      </trkpt>
      <trkpt lat="59.9712974" lon="17.7512101">
        <ele>34.2642</ele>
        <time>2013-04-01T18:09:27Z</time>
      </trkpt>
      <trkpt lat="59.9713064" lon="17.751195">
        <ele>34.2642</ele>
        <time>2013-04-01T18:09:28Z</time>
      </trkpt>
      <trkpt lat="59.9713151" lon="17.7511784">
        <ele>34.7449</ele>
        <time>2013-04-01T18:09:29Z</time>
      </trkpt>
      <trkpt lat="59.9713242" lon="17.7511648">
        <ele>34.7449</ele>
        <time>2013-04-01T18:09:30Z</time>
      </trkpt>
      <trkpt lat="59.9713337" lon="17.7511581">
        <ele>34.7449</ele>
        <time>2013-04-01T18:09:31Z</time>
      </trkpt>
      <trkpt lat="59.9713416" lon="17.7511484">
        <ele>34.7449</ele>
        <time>2013-04-01T18:09:32Z</time>
      </trkpt>
      <trkpt lat="59.9713506" lon="17.7511355">
        <ele>34.7449</ele>
        <time>2013-04-01T18:09:33Z</time>
      </trkpt>
      <trkpt lat="59.9713589" lon="17.7511179">
        <ele>35.2255</ele>
        <time>2013-04-01T18:09:34Z</time>
      </trkpt>
      <trkpt lat="59.9713679" lon="17.7510996">
        <ele>35.7061</ele>
        <time>2013-04-01T18:09:35Z</time>
      </trkpt>
      <trkpt lat="59.9713793" lon="17.7510866">
        <ele>35.7061</ele>
        <time>2013-04-01T18:09:36Z</time>
      </trkpt>
      <trkpt lat="59.9713895" lon="17.751076">
        <ele>35.7061</ele>
        <time>2013-04-01T18:09:37Z</time>
      </trkpt>
      <trkpt lat="59.9713991" lon="17.7510648">
        <ele>35.7061</ele>
        <time>2013-04-01T18:09:38Z</time>
      </trkpt>
      <trkpt lat="59.9714095" lon="17.7510495">
        <ele>36.1868</ele>
        <time>2013-04-01T18:09:39Z</time>
      </trkpt>
      <trkpt lat="59.9714185" lon="17.7510352">
        <ele>36.1868</ele>
        <time>2013-04-01T18:09:40Z</time>
      </trkpt>
      <trkpt lat="59.9714266" lon="17.7510214">
        <ele>36.1868</ele>
        <time>2013-04-01T18:09:41Z</time>
      </trkpt>
      <trkpt lat="59.9714362" lon="17.7510063">
        <ele>36.6675</ele>
        <time>2013-04-01T18:09:42Z</time>
      </trkpt>
      <trkpt lat="59.9714463" lon="17.7509907">
        <ele>36.6675</ele>
        <time>2013-04-01T18:09:43Z</time>
      </trkpt>
      <trkpt lat="59.9714568" lon="17.7509777">
        <ele>36.6675</ele>
        <time>2013-04-01T18:09:44Z</time>
      </trkpt>
      <trkpt lat="59.9714673" lon="17.7509608">
        <ele>36.6675</ele>
        <time>2013-04-01T18:09:45Z</time>
      </trkpt>
      <trkpt lat="59.9714777" lon="17.7509446">
        <ele>36.6675</ele>
        <time>2013-04-01T18:09:46Z</time>
      </trkpt>
      <trkpt lat="59.9714877" lon="17.7509303">
        <ele>36.6675</ele>
        <time>2013-04-01T18:09:47Z</time>
      </trkpt>
      <trkpt lat="59.971498" lon="17.7509209">
        <ele>36.6675</ele>
        <time>2013-04-01T18:09:48Z</time>
      </trkpt>
      <trkpt lat="59.9715083" lon="17.7509122">
        <ele>36.6675</ele>
        <time>2013-04-01T18:09:49Z</time>
      </trkpt>
      <trkpt lat="59.9715166" lon="17.7509024">
        <ele>36.6675</ele>
        <time>2013-04-01T18:09:50Z</time>
      </trkpt>
      <trkpt lat="59.971526" lon="17.7508924">
        <ele>36.1868</ele>
        <time>2013-04-01T18:09:51Z</time>
      </trkpt>
      <trkpt lat="59.9715356" lon="17.7508776">
        <ele>36.6675</ele>
        <time>2013-04-01T18:09:52Z</time>
      </trkpt>
      <trkpt lat="59.971546" lon="17.7508624">
        <ele>36.1868</ele>
        <time>2013-04-01T18:09:53Z</time>
      </trkpt>
      <trkpt lat="59.9715568" lon="17.7508515">
        <ele>36.1868</ele>
        <time>2013-04-01T18:09:54Z</time>
      </trkpt>
      <trkpt lat="59.9715663" lon="17.7508376">
        <ele>36.1868</ele>
        <time>2013-04-01T18:09:55Z</time>
      </trkpt>
      <trkpt lat="59.9715755" lon="17.7508246">
        <ele>36.1868</ele>
        <time>2013-04-01T18:09:56Z</time>
      </trkpt>
      <trkpt lat="59.9715829" lon="17.7508066">
        <ele>36.1868</ele>
        <time>2013-04-01T18:09:57Z</time>
      </trkpt>
      <trkpt lat="59.9715907" lon="17.7507959">
        <ele>36.1868</ele>
        <time>2013-04-01T18:09:58Z</time>
      </trkpt>
      <trkpt lat="59.9715983" lon="17.7507864">
        <ele>36.1868</ele>
        <time>2013-04-01T18:09:59Z</time>
      </trkpt>
      <trkpt lat="59.9716042" lon="17.750774">
        <ele>36.1868</ele>
        <time>2013-04-01T18:10:00Z</time>
      </trkpt>
      <trkpt lat="59.9716133" lon="17.7507608">
        <ele>36.1868</ele>
        <time>2013-04-01T18:10:01Z</time>
      </trkpt>
      <trkpt lat="59.9716245" lon="17.7507541">
        <ele>35.7061</ele>
        <time>2013-04-01T18:10:02Z</time>
      </trkpt>
      <trkpt lat="59.9716352" lon="17.7507387">
        <ele>36.1868</ele>
        <time>2013-04-01T18:10:03Z</time>
      </trkpt>
      <trkpt lat="59.9716462" lon="17.7507241">
        <ele>36.1868</ele>
        <time>2013-04-01T18:10:04Z</time>
      </trkpt>
      <trkpt lat="59.9716568" lon="17.7507106">
        <ele>36.1868</ele>
        <time>2013-04-01T18:10:05Z</time>
      </trkpt>
      <trkpt lat="59.9716674" lon="17.7506997">
        <ele>35.7061</ele>
        <time>2013-04-01T18:10:06Z</time>
      </trkpt>
      <trkpt lat="59.9716762" lon="17.7506828">
        <ele>35.7061</ele>
        <time>2013-04-01T18:10:07Z</time>
      </trkpt>
      <trkpt lat="59.971684" lon="17.7506662">
        <ele>35.7061</ele>
        <time>2013-04-01T18:10:08Z</time>
      </trkpt>
      <trkpt lat="59.9716921" lon="17.7506516">
        <ele>35.7061</ele>
        <time>2013-04-01T18:10:09Z</time>
      </trkpt>
      <trkpt lat="59.9717016" lon="17.7506443">
        <ele>35.7061</ele>
        <time>2013-04-01T18:10:10Z</time>
      </trkpt>
      <trkpt lat="59.9717109" lon="17.7506367">
        <ele>35.7061</ele>
        <time>2013-04-01T18:10:11Z</time>
      </trkpt>
      <trkpt lat="59.9717196" lon="17.7506241">
        <ele>35.7061</ele>
        <time>2013-04-01T18:10:12Z</time>
      </trkpt>
      <trkpt lat="59.9717279" lon="17.7506065">
        <ele>35.7061</ele>
        <time>2013-04-01T18:10:13Z</time>
      </trkpt>
      <trkpt lat="59.9717363" lon="17.7505878">
        <ele>35.7061</ele>
        <time>2013-04-01T18:10:14Z</time>
      </trkpt>
      <trkpt lat="59.971745" lon="17.7505682">
        <ele>35.7061</ele>
        <time>2013-04-01T18:10:15Z</time>
      </trkpt>
      <trkpt lat="59.9717538" lon="17.7505504">
        <ele>35.7061</ele>
        <time>2013-04-01T18:10:16Z</time>
      </trkpt>
      <trkpt lat="59.971763" lon="17.7505338">
        <ele>35.7061</ele>
        <time>2013-04-01T18:10:17Z</time>
      </trkpt>
      <trkpt lat="59.9717713" lon="17.7505137">
        <ele>35.2255</ele>
        <time>2013-04-01T18:10:18Z</time>
      </trkpt>
      <trkpt lat="59.9717786" lon="17.750494">
        <ele>35.2255</ele>
        <time>2013-04-01T18:10:19Z</time>
      </trkpt>
      <trkpt lat="59.9717861" lon="17.750477">
        <ele>35.2255</ele>
        <time>2013-04-01T18:10:20Z</time>
      </trkpt>
      <trkpt lat="59.9717935" lon="17.7504578">
        <ele>35.2255</ele>
        <time>2013-04-01T18:10:21Z</time>
      </trkpt>
      <trkpt lat="59.9718014" lon="17.750438">
        <ele>35.2255</ele>
        <time>2013-04-01T18:10:22Z</time>
      </trkpt>
      <trkpt lat="59.9718115" lon="17.7504237">
        <ele>35.2255</ele>
        <time>2013-04-01T18:10:23Z</time>
      </trkpt>
      <trkpt lat="59.9718231" lon="17.7504103">
        <ele>35.2255</ele>
        <time>2013-04-01T18:10:24Z</time>
      </trkpt>
      <trkpt lat="59.9718356" lon="17.7503979">
        <ele>35.7061</ele>
        <time>2013-04-01T18:10:25Z</time>
      </trkpt>
      <trkpt lat="59.9718467" lon="17.7503908">
        <ele>35.7061</ele>
        <time>2013-04-01T18:10:26Z</time>
      </trkpt>
      <trkpt lat="59.9718557" lon="17.7503774">
        <ele>35.7061</ele>
        <time>2013-04-01T18:10:27Z</time>
      </trkpt>
      <trkpt lat="59.9718628" lon="17.7503613">
        <ele>35.7061</ele>
        <time>2013-04-01T18:10:28Z</time>
      </trkpt>
      <trkpt lat="59.9718709" lon="17.7503464">
        <ele>35.7061</ele>
        <time>2013-04-01T18:10:29Z</time>
      </trkpt>
      <trkpt lat="59.9718791" lon="17.7503305">
        <ele>35.7061</ele>
        <time>2013-04-01T18:10:30Z</time>
      </trkpt>
      <trkpt lat="59.9718854" lon="17.7503144">
        <ele>35.7061</ele>
        <time>2013-04-01T18:10:31Z</time>
      </trkpt>
      <trkpt lat="59.9718916" lon="17.7502946">
        <ele>35.7061</ele>
        <time>2013-04-01T18:10:32Z</time>
      </trkpt>
      <trkpt lat="59.9718989" lon="17.7502735">
        <ele>35.7061</ele>
        <time>2013-04-01T18:10:33Z</time>
      </trkpt>
      <trkpt lat="59.9719067" lon="17.7502512">
        <ele>36.1868</ele>
        <time>2013-04-01T18:10:34Z</time>
      </trkpt>
      <trkpt lat="59.9719158" lon="17.7502298">
        <ele>36.1868</ele>
        <time>2013-04-01T18:10:35Z</time>
      </trkpt>
      <trkpt lat="59.9719248" lon="17.7502133">
        <ele>35.7061</ele>
        <time>2013-04-01T18:10:36Z</time>
      </trkpt>
      <trkpt lat="59.971934" lon="17.7501989">
        <ele>35.7061</ele>
        <time>2013-04-01T18:10:37Z</time>
      </trkpt>
      <trkpt lat="59.9719429" lon="17.7501859">
        <ele>35.7061</ele>
        <time>2013-04-01T18:10:38Z</time>
      </trkpt>
      <trkpt lat="59.9719502" lon="17.7501738">
        <ele>36.1868</ele>
        <time>2013-04-01T18:10:39Z</time>
      </trkpt>
      <trkpt lat="59.971959" lon="17.7501563">
        <ele>36.1868</ele>
        <time>2013-04-01T18:10:40Z</time>
      </trkpt>
      <trkpt lat="59.9719679" lon="17.7501367">
        <ele>35.7061</ele>
        <time>2013-04-01T18:10:41Z</time>
      </trkpt>
      <trkpt lat="59.9719782" lon="17.7501138">
        <ele>35.7061</ele>
        <time>2013-04-01T18:10:42Z</time>
      </trkpt>
      <trkpt lat="59.971987" lon="17.750087">
        <ele>35.2255</ele>
        <time>2013-04-01T18:10:43Z</time>
      </trkpt>
      <trkpt lat="59.9719945" lon="17.7500631">
        <ele>35.2255</ele>
        <time>2013-04-01T18:10:44Z</time>
      </trkpt>
      <trkpt lat="59.9720028" lon="17.7500477">
        <ele>35.2255</ele>
        <time>2013-04-01T18:10:45Z</time>
      </trkpt>
      <trkpt lat="59.9720118" lon="17.7500339">
        <ele>35.2255</ele>
        <time>2013-04-01T18:10:46Z</time>
      </trkpt>
      <trkpt lat="59.9720199" lon="17.750015">
        <ele>35.2255</ele>
        <time>2013-04-01T18:10:47Z</time>
      </trkpt>
      <trkpt lat="59.9720266" lon="17.7500037">
        <ele>34.7449</ele>
        <time>2013-04-01T18:10:48Z</time>
      </trkpt>
      <trkpt lat="59.9720326" lon="17.7499884">
        <ele>34.7449</ele>
        <time>2013-04-01T18:10:49Z</time>
      </trkpt>
      <trkpt lat="59.9720396" lon="17.7499769">
        <ele>34.7449</ele>
        <time>2013-04-01T18:10:50Z</time>
      </trkpt>
      <trkpt lat="59.9720476" lon="17.7499625">
        <ele>34.7449</ele>
        <time>2013-04-01T18:10:51Z</time>
      </trkpt>
      <trkpt lat="59.9720579" lon="17.7499461">
        <ele>34.7449</ele>
        <time>2013-04-01T18:10:52Z</time>
      </trkpt>
      <trkpt lat="59.9720639" lon="17.749931">
        <ele>34.7449</ele>
        <time>2013-04-01T18:10:53Z</time>
      </trkpt>
      <trkpt lat="59.9720693" lon="17.7499103">
        <ele>34.7449</ele>
        <time>2013-04-01T18:10:54Z</time>
      </trkpt>
      <trkpt lat="59.9720832" lon="17.7498932">
        <ele>35.2255</ele>
        <time>2013-04-01T18:10:55Z</time>
      </trkpt>
      <trkpt lat="59.9720901" lon="17.7498832">
        <ele>34.7449</ele>
        <time>2013-04-01T18:10:56Z</time>
      </trkpt>
      <trkpt lat="59.9720932" lon="17.7498689">
        <ele>34.7449</ele>
        <time>2013-04-01T18:10:57Z</time>
      </trkpt>
      <trkpt lat="59.9720973" lon="17.7498571">
        <ele>33.7834</ele>
        <time>2013-04-01T18:10:58Z</time>
      </trkpt>
      <trkpt lat="59.9721024" lon="17.7498407">
        <ele>34.2642</ele>
        <time>2013-04-01T18:10:59Z</time>
      </trkpt>
      <trkpt lat="59.9721096" lon="17.7498243">
        <ele>34.2642</ele>
        <time>2013-04-01T18:11:00Z</time>
      </trkpt>
      <trkpt lat="59.9721158" lon="17.7498005">
        <ele>34.7449</ele>
        <time>2013-04-01T18:11:01Z</time>
      </trkpt>
      <trkpt lat="59.9721214" lon="17.7497787">
        <ele>35.2255</ele>
        <time>2013-04-01T18:11:02Z</time>
      </trkpt>
      <trkpt lat="59.9721274" lon="17.7497549">
        <ele>34.7449</ele>
        <time>2013-04-01T18:11:03Z</time>
      </trkpt>
      <trkpt lat="59.9721352" lon="17.7497295">
        <ele>35.7061</ele>
        <time>2013-04-01T18:11:04Z</time>
      </trkpt>
      <trkpt lat="59.9721434" lon="17.7497118">
        <ele>35.7061</ele>
        <time>2013-04-01T18:11:05Z</time>
      </trkpt>
      <trkpt lat="59.9721507" lon="17.7496881">
        <ele>35.2255</ele>
        <time>2013-04-01T18:11:06Z</time>
      </trkpt>
      <trkpt lat="59.9721595" lon="17.7496721">
        <ele>35.7061</ele>
        <time>2013-04-01T18:11:07Z</time>
      </trkpt>
      <trkpt lat="59.9721676" lon="17.7496543">
        <ele>35.7061</ele>
        <time>2013-04-01T18:11:08Z</time>
      </trkpt>
      <trkpt lat="59.9721743" lon="17.7496337">
        <ele>35.7061</ele>
        <time>2013-04-01T18:11:09Z</time>
      </trkpt>
      <trkpt lat="59.972181" lon="17.7496245">
        <ele>34.2642</ele>
        <time>2013-04-01T18:11:10Z</time>
      </trkpt>
      <trkpt lat="59.9721872" lon="17.7496088">
        <ele>34.2642</ele>
        <time>2013-04-01T18:11:11Z</time>
      </trkpt>
      <trkpt lat="59.9721941" lon="17.7495995">
        <ele>34.2642</ele>
        <time>2013-04-01T18:11:12Z</time>
      </trkpt>
      <trkpt lat="59.9722004" lon="17.7495807">
        <ele>34.2642</ele>
        <time>2013-04-01T18:11:13Z</time>
      </trkpt>
      <trkpt lat="59.9722072" lon="17.7495608">
        <ele>34.7449</ele>
        <time>2013-04-01T18:11:14Z</time>
      </trkpt>
      <trkpt lat="59.972215" lon="17.7495393">
        <ele>34.7449</ele>
        <time>2013-04-01T18:11:15Z</time>
      </trkpt>
      <trkpt lat="59.9722232" lon="17.7495159">
        <ele>34.7449</ele>
        <time>2013-04-01T18:11:16Z</time>
      </trkpt>
      <trkpt lat="59.972231" lon="17.7494911">
        <ele>35.2255</ele>
        <time>2013-04-01T18:11:17Z</time>
      </trkpt>
      <trkpt lat="59.9722382" lon="17.7494695">
        <ele>35.7061</ele>
        <time>2013-04-01T18:11:18Z</time>
      </trkpt>
      <trkpt lat="59.9722491" lon="17.7494664">
        <ele>35.2255</ele>
        <time>2013-04-01T18:11:19Z</time>
      </trkpt>
      <trkpt lat="59.9722606" lon="17.74946">
        <ele>35.7061</ele>
        <time>2013-04-01T18:11:20Z</time>
      </trkpt>
      <trkpt lat="59.9722677" lon="17.7494444">
        <ele>35.7061</ele>
        <time>2013-04-01T18:11:21Z</time>
      </trkpt>
      <trkpt lat="59.9722749" lon="17.749427">
        <ele>35.7061</ele>
        <time>2013-04-01T18:11:22Z</time>
      </trkpt>
      <trkpt lat="59.9722813" lon="17.7494062">
        <ele>36.1868</ele>
        <time>2013-04-01T18:11:23Z</time>
      </trkpt>
      <trkpt lat="59.9722893" lon="17.7493928">
        <ele>36.1868</ele>
        <time>2013-04-01T18:11:24Z</time>
      </trkpt>
      <trkpt lat="59.9722947" lon="17.7493705">
        <ele>35.7061</ele>
        <time>2013-04-01T18:11:25Z</time>
      </trkpt>
      <trkpt lat="59.972303" lon="17.7493528">
        <ele>35.7061</ele>
        <time>2013-04-01T18:11:26Z</time>
      </trkpt>
      <trkpt lat="59.9723121" lon="17.7493357">
        <ele>36.1868</ele>
        <time>2013-04-01T18:11:27Z</time>
      </trkpt>
      <trkpt lat="59.9723211" lon="17.7493202">
        <ele>36.6675</ele>
        <time>2013-04-01T18:11:28Z</time>
      </trkpt>
      <trkpt lat="59.9723304" lon="17.7492997">
        <ele>37.1481</ele>
        <time>2013-04-01T18:11:29Z</time>
      </trkpt>
      <trkpt lat="59.9723361" lon="17.7492778">
        <ele>37.6287</ele>
        <time>2013-04-01T18:11:30Z</time>
      </trkpt>
      <trkpt lat="59.9723438" lon="17.7492569">
        <ele>37.6287</ele>
        <time>2013-04-01T18:11:31Z</time>
      </trkpt>
      <trkpt lat="59.9723496" lon="17.7492365">
        <ele>38.1094</ele>
        <time>2013-04-01T18:11:32Z</time>
      </trkpt>
      <trkpt lat="59.9723563" lon="17.7492176">
        <ele>38.1094</ele>
        <time>2013-04-01T18:11:33Z</time>
      </trkpt>
      <trkpt lat="59.9723656" lon="17.7492022">
        <ele>38.5901</ele>
        <time>2013-04-01T18:11:34Z</time>
      </trkpt>
      <trkpt lat="59.9723744" lon="17.7491868">
        <ele>38.5901</ele>
        <time>2013-04-01T18:11:35Z</time>
      </trkpt>
      <trkpt lat="59.9723822" lon="17.7491753">
        <ele>38.5901</ele>
        <time>2013-04-01T18:11:36Z</time>
      </trkpt>
      <trkpt lat="59.9723908" lon="17.7491566">
        <ele>38.5901</ele>
        <time>2013-04-01T18:11:37Z</time>
      </trkpt>
      <trkpt lat="59.972402" lon="17.7491388">
        <ele>39.0707</ele>
        <time>2013-04-01T18:11:38Z</time>
      </trkpt>
      <trkpt lat="59.972411" lon="17.7491197">
        <ele>39.0707</ele>
        <time>2013-04-01T18:11:39Z</time>
      </trkpt>
      <trkpt lat="59.9724216" lon="17.749101">
        <ele>39.5513</ele>
        <time>2013-04-01T18:11:40Z</time>
      </trkpt>
      <trkpt lat="59.9724312" lon="17.749086">
        <ele>39.5513</ele>
        <time>2013-04-01T18:11:41Z</time>
      </trkpt>
      <trkpt lat="59.9724359" lon="17.7490634">
        <ele>39.5513</ele>
        <time>2013-04-01T18:11:42Z</time>
      </trkpt>
      <trkpt lat="59.9724418" lon="17.7490446">
        <ele>39.5513</ele>
        <time>2013-04-01T18:11:43Z</time>
      </trkpt>
      <trkpt lat="59.9724511" lon="17.7490298">
        <ele>39.5513</ele>
        <time>2013-04-01T18:11:44Z</time>
      </trkpt>
      <trkpt lat="59.97246" lon="17.7490126">
        <ele>38.5901</ele>
        <time>2013-04-01T18:11:45Z</time>
      </trkpt>
      <trkpt lat="59.9724703" lon="17.7489944">
        <ele>38.5901</ele>
        <time>2013-04-01T18:11:46Z</time>
      </trkpt>
      <trkpt lat="59.9724779" lon="17.7489837">
        <ele>38.1094</ele>
        <time>2013-04-01T18:11:47Z</time>
      </trkpt>
      <trkpt lat="59.9724831" lon="17.7489599">
        <ele>38.1094</ele>
        <time>2013-04-01T18:11:48Z</time>
      </trkpt>
      <trkpt lat="59.9724915" lon="17.7489433">
        <ele>38.1094</ele>
        <time>2013-04-01T18:11:49Z</time>
      </trkpt>
      <trkpt lat="59.9725014" lon="17.7489313">
        <ele>38.1094</ele>
        <time>2013-04-01T18:11:50Z</time>
      </trkpt>
      <trkpt lat="59.9725108" lon="17.7489116">
        <ele>38.5901</ele>
        <time>2013-04-01T18:11:51Z</time>
      </trkpt>
      <trkpt lat="59.9725195" lon="17.7488946">
        <ele>38.1094</ele>
        <time>2013-04-01T18:11:52Z</time>
      </trkpt>
      <trkpt lat="59.9725262" lon="17.7488777">
        <ele>38.1094</ele>
        <time>2013-04-01T18:11:53Z</time>
      </trkpt>
      <trkpt lat="59.9725324" lon="17.7488596">
        <ele>38.1094</ele>
        <time>2013-04-01T18:11:54Z</time>
      </trkpt>
      <trkpt lat="59.9725449" lon="17.7488472">
        <ele>38.1094</ele>
        <time>2013-04-01T18:11:55Z</time>
      </trkpt>
      <trkpt lat="59.9725521" lon="17.7488246">
        <ele>38.5901</ele>
        <time>2013-04-01T18:11:56Z</time>
      </trkpt>
      <trkpt lat="59.9725603" lon="17.7488033">
        <ele>38.5901</ele>
        <time>2013-04-01T18:11:57Z</time>
      </trkpt>
      <trkpt lat="59.9725702" lon="17.7487862">
        <ele>39.0707</ele>
        <time>2013-04-01T18:11:58Z</time>
      </trkpt>
      <trkpt lat="59.9725799" lon="17.7487729">
        <ele>39.5513</ele>
        <time>2013-04-01T18:11:59Z</time>
      </trkpt>
      <trkpt lat="59.9725873" lon="17.7487558">
        <ele>40.0321</ele>
        <time>2013-04-01T18:12:00Z</time>
      </trkpt>
      <trkpt lat="59.9725946" lon="17.748737">
        <ele>40.5128</ele>
        <time>2013-04-01T18:12:01Z</time>
      </trkpt>
      <trkpt lat="59.9726042" lon="17.7487256">
        <ele>40.5128</ele>
        <time>2013-04-01T18:12:02Z</time>
      </trkpt>
      <trkpt lat="59.9726097" lon="17.7487111">
        <ele>40.5128</ele>
        <time>2013-04-01T18:12:03Z</time>
      </trkpt>
      <trkpt lat="59.9726153" lon="17.7486964">
        <ele>40.0321</ele>
        <time>2013-04-01T18:12:04Z</time>
      </trkpt>
      <trkpt lat="59.972622" lon="17.7486795">
        <ele>40.5128</ele>
        <time>2013-04-01T18:12:05Z</time>
      </trkpt>
      <trkpt lat="59.9726267" lon="17.7486602">
        <ele>40.0321</ele>
        <time>2013-04-01T18:12:06Z</time>
      </trkpt>
      <trkpt lat="59.9726339" lon="17.7486464">
        <ele>40.0321</ele>
        <time>2013-04-01T18:12:07Z</time>
      </trkpt>
      <trkpt lat="59.9726412" lon="17.7486311">
        <ele>40.0321</ele>
        <time>2013-04-01T18:12:08Z</time>
      </trkpt>
      <trkpt lat="59.97265" lon="17.7486128">
        <ele>40.0321</ele>
        <time>2013-04-01T18:12:09Z</time>
      </trkpt>
      <trkpt lat="59.9726562" lon="17.7485939">
        <ele>40.0321</ele>
        <time>2013-04-01T18:12:10Z</time>
      </trkpt>
      <trkpt lat="59.972663" lon="17.7485753">
        <ele>40.0321</ele>
        <time>2013-04-01T18:12:11Z</time>
      </trkpt>
      <trkpt lat="59.9726697" lon="17.7485576">
        <ele>39.5513</ele>
        <time>2013-04-01T18:12:12Z</time>
      </trkpt>
      <trkpt lat="59.9726764" lon="17.7485385">
        <ele>39.5513</ele>
        <time>2013-04-01T18:12:13Z</time>
      </trkpt>
      <trkpt lat="59.9726788" lon="17.7485183">
        <ele>39.0707</ele>
        <time>2013-04-01T18:12:14Z</time>
      </trkpt>
      <trkpt lat="59.9726861" lon="17.7485019">
        <ele>38.1094</ele>
        <time>2013-04-01T18:12:15Z</time>
      </trkpt>
      <trkpt lat="59.972693" lon="17.7484846">
        <ele>37.6287</ele>
        <time>2013-04-01T18:12:16Z</time>
      </trkpt>
      <trkpt lat="59.9726987" lon="17.7484635">
        <ele>37.1481</ele>
        <time>2013-04-01T18:12:17Z</time>
      </trkpt>
      <trkpt lat="59.9727076" lon="17.7484479">
        <ele>36.1868</ele>
        <time>2013-04-01T18:12:18Z</time>
      </trkpt>
      <trkpt lat="59.9727152" lon="17.7484354">
        <ele>36.1868</ele>
        <time>2013-04-01T18:12:19Z</time>
      </trkpt>
      <trkpt lat="59.9727239" lon="17.7484182">
        <ele>36.1868</ele>
        <time>2013-04-01T18:12:20Z</time>
      </trkpt>
      <trkpt lat="59.9727302" lon="17.7483941">
        <ele>36.1868</ele>
        <time>2013-04-01T18:12:21Z</time>
      </trkpt>
      <trkpt lat="59.9727377" lon="17.7483758">
        <ele>36.1868</ele>
        <time>2013-04-01T18:12:22Z</time>
      </trkpt>
      <trkpt lat="59.9727459" lon="17.7483635">
        <ele>35.7061</ele>
        <time>2013-04-01T18:12:23Z</time>
      </trkpt>
      <trkpt lat="59.9727521" lon="17.7483444">
        <ele>35.2255</ele>
        <time>2013-04-01T18:12:24Z</time>
      </trkpt>
      <trkpt lat="59.9727596" lon="17.7483282">
        <ele>35.7061</ele>
        <time>2013-04-01T18:12:25Z</time>
      </trkpt>
      <trkpt lat="59.9727675" lon="17.7483144">
        <ele>35.2255</ele>
        <time>2013-04-01T18:12:26Z</time>
      </trkpt>
      <trkpt lat="59.9727776" lon="17.7483023">
        <ele>35.2255</ele>
        <time>2013-04-01T18:12:27Z</time>
      </trkpt>
      <trkpt lat="59.9727837" lon="17.7482781">
        <ele>35.7061</ele>
        <time>2013-04-01T18:12:28Z</time>
      </trkpt>
      <trkpt lat="59.9727936" lon="17.7482588">
        <ele>35.2255</ele>
        <time>2013-04-01T18:12:29Z</time>
      </trkpt>
      <trkpt lat="59.9728019" lon="17.7482403">
        <ele>35.2255</ele>
        <time>2013-04-01T18:12:30Z</time>
      </trkpt>
      <trkpt lat="59.9728116" lon="17.7482247">
        <ele>35.2255</ele>
        <time>2013-04-01T18:12:31Z</time>
      </trkpt>
      <trkpt lat="59.9728204" lon="17.7482031">
        <ele>35.2255</ele>
        <time>2013-04-01T18:12:32Z</time>
      </trkpt>
      <trkpt lat="59.9728287" lon="17.7481822">
        <ele>35.2255</ele>
        <time>2013-04-01T18:12:33Z</time>
      </trkpt>
      <trkpt lat="59.9728368" lon="17.7481651">
        <ele>35.2255</ele>
        <time>2013-04-01T18:12:34Z</time>
      </trkpt>
      <trkpt lat="59.9728442" lon="17.7481473">
        <ele>35.2255</ele>
        <time>2013-04-01T18:12:35Z</time>
      </trkpt>
      <trkpt lat="59.9728515" lon="17.7481271">
        <ele>35.7061</ele>
        <time>2013-04-01T18:12:36Z</time>
      </trkpt>
      <trkpt lat="59.9728594" lon="17.7481078">
        <ele>35.7061</ele>
        <time>2013-04-01T18:12:37Z</time>
      </trkpt>
      <trkpt lat="59.9728687" lon="17.748096">
        <ele>35.7061</ele>
        <time>2013-04-01T18:12:38Z</time>
      </trkpt>
      <trkpt lat="59.972878" lon="17.7480819">
        <ele>35.7061</ele>
        <time>2013-04-01T18:12:39Z</time>
      </trkpt>
      <trkpt lat="59.9728881" lon="17.7480698">
        <ele>35.7061</ele>
        <time>2013-04-01T18:12:40Z</time>
      </trkpt>
      <trkpt lat="59.9728974" lon="17.7480559">
        <ele>35.7061</ele>
        <time>2013-04-01T18:12:41Z</time>
      </trkpt>
      <trkpt lat="59.9729071" lon="17.7480378">
        <ele>35.7061</ele>
        <time>2013-04-01T18:12:42Z</time>
      </trkpt>
      <trkpt lat="59.9729162" lon="17.7480166">
        <ele>36.1868</ele>
        <time>2013-04-01T18:12:43Z</time>
      </trkpt>
      <trkpt lat="59.9729241" lon="17.7479973">
        <ele>36.6675</ele>
        <time>2013-04-01T18:12:44Z</time>
      </trkpt>
      <trkpt lat="59.9729324" lon="17.7479761">
        <ele>36.6675</ele>
        <time>2013-04-01T18:12:45Z</time>
      </trkpt>
      <trkpt lat="59.9729417" lon="17.7479579">
        <ele>36.1868</ele>
        <time>2013-04-01T18:12:46Z</time>
      </trkpt>
      <trkpt lat="59.9729508" lon="17.7479383">
        <ele>36.6675</ele>
        <time>2013-04-01T18:12:47Z</time>
      </trkpt>
      <trkpt lat="59.9729606" lon="17.7479232">
        <ele>36.6675</ele>
        <time>2013-04-01T18:12:48Z</time>
      </trkpt>
      <trkpt lat="59.9729708" lon="17.7479067">
        <ele>36.6675</ele>
        <time>2013-04-01T18:12:49Z</time>
      </trkpt>
      <trkpt lat="59.972982" lon="17.7478917">
        <ele>37.1481</ele>
        <time>2013-04-01T18:12:50Z</time>
      </trkpt>
      <trkpt lat="59.9729928" lon="17.7478776">
        <ele>37.1481</ele>
        <time>2013-04-01T18:12:51Z</time>
      </trkpt>
      <trkpt lat="59.9730024" lon="17.7478604">
        <ele>37.1481</ele>
        <time>2013-04-01T18:12:52Z</time>
      </trkpt>
      <trkpt lat="59.9730129" lon="17.7478414">
        <ele>37.1481</ele>
        <time>2013-04-01T18:12:53Z</time>
      </trkpt>
      <trkpt lat="59.973024" lon="17.7478237">
        <ele>37.1481</ele>
        <time>2013-04-01T18:12:54Z</time>
      </trkpt>
      <trkpt lat="59.9730334" lon="17.747806">
        <ele>37.6287</ele>
        <time>2013-04-01T18:12:55Z</time>
      </trkpt>
      <trkpt lat="59.9730427" lon="17.7477896">
        <ele>37.6287</ele>
        <time>2013-04-01T18:12:56Z</time>
      </trkpt>
      <trkpt lat="59.973053" lon="17.7477821">
        <ele>37.6287</ele>
        <time>2013-04-01T18:12:57Z</time>
      </trkpt>
      <trkpt lat="59.9730639" lon="17.7477787">
        <ele>37.6287</ele>
        <time>2013-04-01T18:12:58Z</time>
      </trkpt>
      <trkpt lat="59.9730742" lon="17.7477705">
        <ele>37.1481</ele>
        <time>2013-04-01T18:12:59Z</time>
      </trkpt>
      <trkpt lat="59.9730849" lon="17.7477575">
        <ele>37.1481</ele>
        <time>2013-04-01T18:13:00Z</time>
      </trkpt>
      <trkpt lat="59.9730965" lon="17.7477469">
        <ele>37.1481</ele>
        <time>2013-04-01T18:13:01Z</time>
      </trkpt>
      <trkpt lat="59.97311" lon="17.7477351">
        <ele>37.6287</ele>
        <time>2013-04-01T18:13:02Z</time>
      </trkpt>
      <trkpt lat="59.973123" lon="17.7477216">
        <ele>37.6287</ele>
        <time>2013-04-01T18:13:03Z</time>
      </trkpt>
      <trkpt lat="59.9731329" lon="17.7477109">
        <ele>37.1481</ele>
        <time>2013-04-01T18:13:04Z</time>
      </trkpt>
      <trkpt lat="59.9731432" lon="17.7477001">
        <ele>37.1481</ele>
        <time>2013-04-01T18:13:05Z</time>
      </trkpt>
      <trkpt lat="59.9731556" lon="17.74769">
        <ele>37.1481</ele>
        <time>2013-04-01T18:13:06Z</time>
      </trkpt>
      <trkpt lat="59.9731668" lon="17.7476842">
        <ele>37.1481</ele>
        <time>2013-04-01T18:13:07Z</time>
      </trkpt>
      <trkpt lat="59.9731778" lon="17.7476756">
        <ele>37.1481</ele>
        <time>2013-04-01T18:13:08Z</time>
      </trkpt>
      <trkpt lat="59.9731876" lon="17.7476671">
        <ele>37.6287</ele>
        <time>2013-04-01T18:13:09Z</time>
      </trkpt>
      <trkpt lat="59.9731979" lon="17.7476601">
        <ele>37.6287</ele>
        <time>2013-04-01T18:13:10Z</time>
      </trkpt>
      <trkpt lat="59.9732085" lon="17.7476532">
        <ele>37.6287</ele>
        <time>2013-04-01T18:13:11Z</time>
      </trkpt>
      <trkpt lat="59.9732204" lon="17.7476449">
        <ele>37.6287</ele>
        <time>2013-04-01T18:13:12Z</time>
      </trkpt>
      <trkpt lat="59.9732331" lon="17.7476425">
        <ele>37.1481</ele>
        <time>2013-04-01T18:13:13Z</time>
      </trkpt>
      <trkpt lat="59.9732422" lon="17.747633">
        <ele>36.6675</ele>
        <time>2013-04-01T18:13:14Z</time>
      </trkpt>
      <trkpt lat="59.9732535" lon="17.74762">
        <ele>37.1481</ele>
        <time>2013-04-01T18:13:15Z</time>
      </trkpt>
      <trkpt lat="59.9732655" lon="17.7476096">
        <ele>36.6675</ele>
        <time>2013-04-01T18:13:16Z</time>
      </trkpt>
      <trkpt lat="59.9732768" lon="17.7476024">
        <ele>36.1868</ele>
        <time>2013-04-01T18:13:17Z</time>
      </trkpt>
      <trkpt lat="59.9732877" lon="17.7475989">
        <ele>35.7061</ele>
        <time>2013-04-01T18:13:18Z</time>
      </trkpt>
      <trkpt lat="59.9732997" lon="17.7475943">
        <ele>35.7061</ele>
        <time>2013-04-01T18:13:19Z</time>
      </trkpt>
      <trkpt lat="59.9733094" lon="17.7475863">
        <ele>35.2255</ele>
        <time>2013-04-01T18:13:20Z</time>
      </trkpt>
      <trkpt lat="59.9733193" lon="17.7475765">
        <ele>35.2255</ele>
        <time>2013-04-01T18:13:21Z</time>
      </trkpt>
      <trkpt lat="59.9733291" lon="17.7475656">
        <ele>35.2255</ele>
        <time>2013-04-01T18:13:22Z</time>
      </trkpt>
      <trkpt lat="59.9733399" lon="17.7475509">
        <ele>35.2255</ele>
        <time>2013-04-01T18:13:23Z</time>
      </trkpt>
      <trkpt lat="59.9733526" lon="17.747542">
        <ele>35.2255</ele>
        <time>2013-04-01T18:13:24Z</time>
      </trkpt>
      <trkpt lat="59.9733643" lon="17.7475309">
        <ele>35.2255</ele>
        <time>2013-04-01T18:13:25Z</time>
      </trkpt>
      <trkpt lat="59.9733747" lon="17.747519">
        <ele>35.7061</ele>
        <time>2013-04-01T18:13:26Z</time>
      </trkpt>
      <trkpt lat="59.973386" lon="17.7475107">
        <ele>35.7061</ele>
        <time>2013-04-01T18:13:27Z</time>
      </trkpt>
      <trkpt lat="59.9733985" lon="17.7475045">
        <ele>35.7061</ele>
        <time>2013-04-01T18:13:28Z</time>
      </trkpt>
      <trkpt lat="59.9734079" lon="17.7474866">
        <ele>35.7061</ele>
        <time>2013-04-01T18:13:29Z</time>
      </trkpt>
      <trkpt lat="59.973416" lon="17.747471">
        <ele>36.1868</ele>
        <time>2013-04-01T18:13:30Z</time>
      </trkpt>
      <trkpt lat="59.9734261" lon="17.7474585">
        <ele>36.1868</ele>
        <time>2013-04-01T18:13:31Z</time>
      </trkpt>
      <trkpt lat="59.973439" lon="17.7474591">
        <ele>36.1868</ele>
        <time>2013-04-01T18:13:32Z</time>
      </trkpt>
      <trkpt lat="59.9734498" lon="17.747454">
        <ele>36.1868</ele>
        <time>2013-04-01T18:13:33Z</time>
      </trkpt>
      <trkpt lat="59.9734612" lon="17.7474467">
        <ele>36.1868</ele>
        <time>2013-04-01T18:13:34Z</time>
      </trkpt>
      <trkpt lat="59.9734714" lon="17.7474343">
        <ele>36.6675</ele>
        <time>2013-04-01T18:13:35Z</time>
      </trkpt>
      <trkpt lat="59.9734819" lon="17.7474248">
        <ele>36.6675</ele>
        <time>2013-04-01T18:13:36Z</time>
      </trkpt>
      <trkpt lat="59.9734932" lon="17.7474182">
        <ele>36.1868</ele>
        <time>2013-04-01T18:13:37Z</time>
      </trkpt>
      <trkpt lat="59.973505" lon="17.7474107">
        <ele>36.6675</ele>
        <time>2013-04-01T18:13:38Z</time>
      </trkpt>
      <trkpt lat="59.9735155" lon="17.7474027">
        <ele>36.6675</ele>
        <time>2013-04-01T18:13:39Z</time>
      </trkpt>
      <trkpt lat="59.9735238" lon="17.7473944">
        <ele>36.1868</ele>
        <time>2013-04-01T18:13:40Z</time>
      </trkpt>
      <trkpt lat="59.9735341" lon="17.7473861">
        <ele>36.1868</ele>
        <time>2013-04-01T18:13:41Z</time>
      </trkpt>
      <trkpt lat="59.9735446" lon="17.7473809">
        <ele>36.1868</ele>
        <time>2013-04-01T18:13:42Z</time>
      </trkpt>
      <trkpt lat="59.9735561" lon="17.747376">
        <ele>36.6675</ele>
        <time>2013-04-01T18:13:43Z</time>
      </trkpt>
      <trkpt lat="59.9735674" lon="17.7473709">
        <ele>37.1481</ele>
        <time>2013-04-01T18:13:44Z</time>
      </trkpt>
      <trkpt lat="59.9735782" lon="17.7473669">
        <ele>36.6675</ele>
        <time>2013-04-01T18:13:45Z</time>
      </trkpt>
      <trkpt lat="59.9735902" lon="17.7473601">
        <ele>37.1481</ele>
        <time>2013-04-01T18:13:46Z</time>
      </trkpt>
      <trkpt lat="59.9735979" lon="17.7473462">
        <ele>37.1481</ele>
        <time>2013-04-01T18:13:47Z</time>
      </trkpt>
      <trkpt lat="59.973609" lon="17.7473373">
        <ele>37.1481</ele>
        <time>2013-04-01T18:13:48Z</time>
      </trkpt>
      <trkpt lat="59.9736192" lon="17.7473282">
        <ele>37.1481</ele>
        <time>2013-04-01T18:13:49Z</time>
      </trkpt>
      <trkpt lat="59.973628" lon="17.7473188">
        <ele>36.6675</ele>
        <time>2013-04-01T18:13:50Z</time>
      </trkpt>
      <trkpt lat="59.9736373" lon="17.7473073">
        <ele>37.1481</ele>
        <time>2013-04-01T18:13:51Z</time>
      </trkpt>
      <trkpt lat="59.9736463" lon="17.7472989">
        <ele>37.1481</ele>
        <time>2013-04-01T18:13:52Z</time>
      </trkpt>
      <trkpt lat="59.973656" lon="17.7472912">
        <ele>36.6675</ele>
        <time>2013-04-01T18:13:53Z</time>
      </trkpt>
      <trkpt lat="59.9736665" lon="17.747282">
        <ele>36.1868</ele>
        <time>2013-04-01T18:13:54Z</time>
      </trkpt>
      <trkpt lat="59.9736798" lon="17.7472727">
        <ele>35.2255</ele>
        <time>2013-04-01T18:13:55Z</time>
      </trkpt>
      <trkpt lat="59.9736867" lon="17.7472512">
        <ele>34.7449</ele>
        <time>2013-04-01T18:13:56Z</time>
      </trkpt>
      <trkpt lat="59.9736954" lon="17.7472353">
        <ele>35.2255</ele>
        <time>2013-04-01T18:13:57Z</time>
      </trkpt>
      <trkpt lat="59.9737047" lon="17.7472168">
        <ele>35.2255</ele>
        <time>2013-04-01T18:13:58Z</time>
      </trkpt>
      <trkpt lat="59.9737124" lon="17.7472006">
        <ele>35.2255</ele>
        <time>2013-04-01T18:13:59Z</time>
      </trkpt>
      <trkpt lat="59.9737198" lon="17.7471876">
        <ele>35.2255</ele>
        <time>2013-04-01T18:14:00Z</time>
      </trkpt>
      <trkpt lat="59.973729" lon="17.7471825">
        <ele>35.2255</ele>
        <time>2013-04-01T18:14:01Z</time>
      </trkpt>
      <trkpt lat="59.9737385" lon="17.7471691">
        <ele>35.2255</ele>
        <time>2013-04-01T18:14:02Z</time>
      </trkpt>
      <trkpt lat="59.9737483" lon="17.7471598">
        <ele>35.7061</ele>
        <time>2013-04-01T18:14:03Z</time>
      </trkpt>
      <trkpt lat="59.9737571" lon="17.7471498">
        <ele>35.7061</ele>
        <time>2013-04-01T18:14:04Z</time>
      </trkpt>
      <trkpt lat="59.9737659" lon="17.7471384">
        <ele>35.7061</ele>
        <time>2013-04-01T18:14:05Z</time>
      </trkpt>
      <trkpt lat="59.973776" lon="17.7471194">
        <ele>35.7061</ele>
        <time>2013-04-01T18:14:06Z</time>
      </trkpt>
      <trkpt lat="59.9737846" lon="17.7471027">
        <ele>36.1868</ele>
        <time>2013-04-01T18:14:07Z</time>
      </trkpt>
      <trkpt lat="59.9737939" lon="17.7470908">
        <ele>36.6675</ele>
        <time>2013-04-01T18:14:08Z</time>
      </trkpt>
      <trkpt lat="59.973801" lon="17.7470732">
        <ele>36.6675</ele>
        <time>2013-04-01T18:14:09Z</time>
      </trkpt>
      <trkpt lat="59.9738118" lon="17.747058">
        <ele>37.6287</ele>
        <time>2013-04-01T18:14:10Z</time>
      </trkpt>
      <trkpt lat="59.9738201" lon="17.7470364">
        <ele>38.1094</ele>
        <time>2013-04-01T18:14:11Z</time>
      </trkpt>
      <trkpt lat="59.9738353" lon="17.7470291">
        <ele>38.1094</ele>
        <time>2013-04-01T18:14:12Z</time>
      </trkpt>
      <trkpt lat="59.9738481" lon="17.747011">
        <ele>37.6287</ele>
        <time>2013-04-01T18:14:13Z</time>
      </trkpt>
      <trkpt lat="59.9738632" lon="17.7470069">
        <ele>37.6287</ele>
        <time>2013-04-01T18:14:14Z</time>
      </trkpt>
      <trkpt lat="59.973875" lon="17.7469974">
        <ele>37.6287</ele>
        <time>2013-04-01T18:14:15Z</time>
      </trkpt>
      <trkpt lat="59.9738861" lon="17.7469802">
        <ele>37.6287</ele>
        <time>2013-04-01T18:14:16Z</time>
      </trkpt>
      <trkpt lat="59.9738969" lon="17.7469571">
        <ele>37.6287</ele>
        <time>2013-04-01T18:14:17Z</time>
      </trkpt>
      <trkpt lat="59.9739072" lon="17.7469307">
        <ele>37.1481</ele>
        <time>2013-04-01T18:14:18Z</time>
      </trkpt>
      <trkpt lat="59.9739176" lon="17.7469187">
        <ele>37.1481</ele>
        <time>2013-04-01T18:14:19Z</time>
      </trkpt>
      <trkpt lat="59.97393" lon="17.7469057">
        <ele>37.6287</ele>
        <time>2013-04-01T18:14:20Z</time>
      </trkpt>
      <trkpt lat="59.9739419" lon="17.7468935">
        <ele>37.6287</ele>
        <time>2013-04-01T18:14:21Z</time>
      </trkpt>
      <trkpt lat="59.9739534" lon="17.746882">
        <ele>37.6287</ele>
        <time>2013-04-01T18:14:22Z</time>
      </trkpt>
      <trkpt lat="59.9739657" lon="17.7468739">
        <ele>38.1094</ele>
        <time>2013-04-01T18:14:23Z</time>
      </trkpt>
      <trkpt lat="59.9739771" lon="17.746865">
        <ele>38.1094</ele>
        <time>2013-04-01T18:14:24Z</time>
      </trkpt>
      <trkpt lat="59.9739875" lon="17.7468541">
        <ele>38.1094</ele>
        <time>2013-04-01T18:14:25Z</time>
      </trkpt>
      <trkpt lat="59.9739975" lon="17.7468411">
        <ele>38.1094</ele>
        <time>2013-04-01T18:14:26Z</time>
      </trkpt>
      <trkpt lat="59.9740073" lon="17.7468293">
        <ele>38.1094</ele>
        <time>2013-04-01T18:14:27Z</time>
      </trkpt>
      <trkpt lat="59.9740171" lon="17.7468168">
        <ele>38.1094</ele>
        <time>2013-04-01T18:14:28Z</time>
      </trkpt>
      <trkpt lat="59.9740268" lon="17.7468076">
        <ele>38.1094</ele>
        <time>2013-04-01T18:14:29Z</time>
      </trkpt>
      <trkpt lat="59.9740374" lon="17.7467979">
        <ele>38.1094</ele>
        <time>2013-04-01T18:14:30Z</time>
      </trkpt>
      <trkpt lat="59.9740491" lon="17.7467855">
        <ele>38.1094</ele>
        <time>2013-04-01T18:14:31Z</time>
      </trkpt>
      <trkpt lat="59.9740605" lon="17.7467738">
        <ele>38.1094</ele>
        <time>2013-04-01T18:14:32Z</time>
      </trkpt>
      <trkpt lat="59.9740712" lon="17.7467637">
        <ele>38.1094</ele>
        <time>2013-04-01T18:14:33Z</time>
      </trkpt>
      <trkpt lat="59.9740821" lon="17.7467505">
        <ele>38.1094</ele>
        <time>2013-04-01T18:14:34Z</time>
      </trkpt>
      <trkpt lat="59.9740923" lon="17.7467401">
        <ele>38.1094</ele>
        <time>2013-04-01T18:14:35Z</time>
      </trkpt>
      <trkpt lat="59.9741023" lon="17.7467339">
        <ele>38.1094</ele>
        <time>2013-04-01T18:14:36Z</time>
      </trkpt>
      <trkpt lat="59.9741117" lon="17.7467239">
        <ele>37.6287</ele>
        <time>2013-04-01T18:14:37Z</time>
      </trkpt>
      <trkpt lat="59.9741211" lon="17.7467104">
        <ele>37.6287</ele>
        <time>2013-04-01T18:14:38Z</time>
      </trkpt>
      <trkpt lat="59.9741301" lon="17.7466986">
        <ele>37.6287</ele>
        <time>2013-04-01T18:14:39Z</time>
      </trkpt>
      <trkpt lat="59.9741401" lon="17.7466846">
        <ele>37.6287</ele>
        <time>2013-04-01T18:14:40Z</time>
      </trkpt>
      <trkpt lat="59.974151" lon="17.746669">
        <ele>38.1094</ele>
        <time>2013-04-01T18:14:41Z</time>
      </trkpt>
      <trkpt lat="59.9741617" lon="17.746655">
        <ele>37.6287</ele>
        <time>2013-04-01T18:14:42Z</time>
      </trkpt>
      <trkpt lat="59.974172" lon="17.7466441">
        <ele>37.6287</ele>
        <time>2013-04-01T18:14:43Z</time>
      </trkpt>
      <trkpt lat="59.9741826" lon="17.7466316">
        <ele>37.6287</ele>
        <time>2013-04-01T18:14:44Z</time>
      </trkpt>
      <trkpt lat="59.9741928" lon="17.7466182">
        <ele>37.6287</ele>
        <time>2013-04-01T18:14:45Z</time>
      </trkpt>
      <trkpt lat="59.974203" lon="17.7466073">
        <ele>37.1481</ele>
        <time>2013-04-01T18:14:46Z</time>
      </trkpt>
      <trkpt lat="59.9742123" lon="17.7465976">
        <ele>37.1481</ele>
        <time>2013-04-01T18:14:47Z</time>
      </trkpt>
      <trkpt lat="59.9742218" lon="17.7465852">
        <ele>37.1481</ele>
        <time>2013-04-01T18:14:48Z</time>
      </trkpt>
      <trkpt lat="59.9742314" lon="17.7465746">
        <ele>37.1481</ele>
        <time>2013-04-01T18:14:49Z</time>
      </trkpt>
      <trkpt lat="59.9742407" lon="17.7465662">
        <ele>37.1481</ele>
        <time>2013-04-01T18:14:50Z</time>
      </trkpt>
      <trkpt lat="59.9742507" lon="17.7465556">
        <ele>37.1481</ele>
        <time>2013-04-01T18:14:51Z</time>
      </trkpt>
      <trkpt lat="59.9742605" lon="17.7465444">
        <ele>37.1481</ele>
        <time>2013-04-01T18:14:52Z</time>
      </trkpt>
      <trkpt lat="59.9742703" lon="17.7465311">
        <ele>37.1481</ele>
        <time>2013-04-01T18:14:53Z</time>
      </trkpt>
      <trkpt lat="59.9742802" lon="17.7465163">
        <ele>37.1481</ele>
        <time>2013-04-01T18:14:54Z</time>
      </trkpt>
      <trkpt lat="59.9742895" lon="17.7465039">
        <ele>37.1481</ele>
        <time>2013-04-01T18:14:55Z</time>
      </trkpt>
      <trkpt lat="59.9742992" lon="17.7464925">
        <ele>37.1481</ele>
        <time>2013-04-01T18:14:56Z</time>
      </trkpt>
      <trkpt lat="59.9743082" lon="17.7464795">
        <ele>37.1481</ele>
        <time>2013-04-01T18:14:57Z</time>
      </trkpt>
      <trkpt lat="59.9743158" lon="17.7464651">
        <ele>37.1481</ele>
        <time>2013-04-01T18:14:58Z</time>
      </trkpt>
      <trkpt lat="59.9743242" lon="17.7464517">
        <ele>37.1481</ele>
        <time>2013-04-01T18:14:59Z</time>
      </trkpt>
      <trkpt lat="59.9743333" lon="17.7464366">
        <ele>37.1481</ele>
        <time>2013-04-01T18:15:00Z</time>
      </trkpt>
      <trkpt lat="59.9743429" lon="17.7464203">
        <ele>37.1481</ele>
        <time>2013-04-01T18:15:01Z</time>
      </trkpt>
      <trkpt lat="59.9743525" lon="17.7464056">
        <ele>37.1481</ele>
        <time>2013-04-01T18:15:02Z</time>
      </trkpt>
      <trkpt lat="59.9743632" lon="17.7463913">
        <ele>37.1481</ele>
        <time>2013-04-01T18:15:03Z</time>
      </trkpt>
      <trkpt lat="59.9743736" lon="17.7463776">
        <ele>37.1481</ele>
        <time>2013-04-01T18:15:04Z</time>
      </trkpt>
      <trkpt lat="59.9743833" lon="17.7463599">
        <ele>37.6287</ele>
        <time>2013-04-01T18:15:05Z</time>
      </trkpt>
      <trkpt lat="59.9743917" lon="17.7463441">
        <ele>37.6287</ele>
        <time>2013-04-01T18:15:06Z</time>
      </trkpt>
      <trkpt lat="59.9744007" lon="17.7463303">
        <ele>37.1481</ele>
        <time>2013-04-01T18:15:07Z</time>
      </trkpt>
      <trkpt lat="59.9744087" lon="17.7463144">
        <ele>37.6287</ele>
        <time>2013-04-01T18:15:08Z</time>
      </trkpt>
      <trkpt lat="59.9744167" lon="17.7462972">
        <ele>37.6287</ele>
        <time>2013-04-01T18:15:09Z</time>
      </trkpt>
      <trkpt lat="59.9744243" lon="17.7462789">
        <ele>37.6287</ele>
        <time>2013-04-01T18:15:10Z</time>
      </trkpt>
      <trkpt lat="59.9744316" lon="17.7462589">
        <ele>38.1094</ele>
        <time>2013-04-01T18:15:11Z</time>
      </trkpt>
      <trkpt lat="59.9744355" lon="17.7462235">
        <ele>37.6287</ele>
        <time>2013-04-01T18:15:12Z</time>
      </trkpt>
      <trkpt lat="59.9744406" lon="17.7461887">
        <ele>37.6287</ele>
        <time>2013-04-01T18:15:13Z</time>
      </trkpt>
      <trkpt lat="59.9744496" lon="17.7461729">
        <ele>37.6287</ele>
        <time>2013-04-01T18:15:14Z</time>
      </trkpt>
      <trkpt lat="59.9744604" lon="17.7461569">
        <ele>37.6287</ele>
        <time>2013-04-01T18:15:15Z</time>
      </trkpt>
      <trkpt lat="59.9744714" lon="17.7461375">
        <ele>37.6287</ele>
        <time>2013-04-01T18:15:16Z</time>
      </trkpt>
      <trkpt lat="59.9744784" lon="17.7461093">
        <ele>37.6287</ele>
        <time>2013-04-01T18:15:17Z</time>
      </trkpt>
      <trkpt lat="59.9744874" lon="17.746093">
        <ele>37.6287</ele>
        <time>2013-04-01T18:15:18Z</time>
      </trkpt>
      <trkpt lat="59.9744967" lon="17.7460813">
        <ele>37.6287</ele>
        <time>2013-04-01T18:15:19Z</time>
      </trkpt>
      <trkpt lat="59.9745071" lon="17.7460702">
        <ele>37.6287</ele>
        <time>2013-04-01T18:15:20Z</time>
      </trkpt>
      <trkpt lat="59.9745183" lon="17.7460573">
        <ele>37.6287</ele>
        <time>2013-04-01T18:15:21Z</time>
      </trkpt>
      <trkpt lat="59.974529" lon="17.7460473">
        <ele>37.6287</ele>
        <time>2013-04-01T18:15:22Z</time>
      </trkpt>
      <trkpt lat="59.9745396" lon="17.7460382">
        <ele>37.6287</ele>
        <time>2013-04-01T18:15:23Z</time>
      </trkpt>
      <trkpt lat="59.9745507" lon="17.7460294">
        <ele>37.6287</ele>
        <time>2013-04-01T18:15:24Z</time>
      </trkpt>
      <trkpt lat="59.9745615" lon="17.7460225">
        <ele>37.6287</ele>
        <time>2013-04-01T18:15:25Z</time>
      </trkpt>
      <trkpt lat="59.9745717" lon="17.7460105">
        <ele>37.6287</ele>
        <time>2013-04-01T18:15:26Z</time>
      </trkpt>
      <trkpt lat="59.9745806" lon="17.7459988">
        <ele>37.6287</ele>
        <time>2013-04-01T18:15:27Z</time>
      </trkpt>
      <trkpt lat="59.9745901" lon="17.7459847">
        <ele>37.6287</ele>
        <time>2013-04-01T18:15:28Z</time>
      </trkpt>
      <trkpt lat="59.9745997" lon="17.7459687">
        <ele>37.6287</ele>
        <time>2013-04-01T18:15:29Z</time>
      </trkpt>
      <trkpt lat="59.9746086" lon="17.7459526">
        <ele>37.6287</ele>
        <time>2013-04-01T18:15:30Z</time>
      </trkpt>
      <trkpt lat="59.9746173" lon="17.7459361">
        <ele>37.6287</ele>
        <time>2013-04-01T18:15:31Z</time>
      </trkpt>
      <trkpt lat="59.9746256" lon="17.7459216">
        <ele>37.6287</ele>
        <time>2013-04-01T18:15:32Z</time>
      </trkpt>
      <trkpt lat="59.9746331" lon="17.7459078">
        <ele>37.1481</ele>
        <time>2013-04-01T18:15:33Z</time>
      </trkpt>
      <trkpt lat="59.9746416" lon="17.7458893">
        <ele>37.1481</ele>
        <time>2013-04-01T18:15:34Z</time>
      </trkpt>
      <trkpt lat="59.9746506" lon="17.7458703">
        <ele>37.1481</ele>
        <time>2013-04-01T18:15:35Z</time>
      </trkpt>
      <trkpt lat="59.9746594" lon="17.7458495">
        <ele>37.1481</ele>
        <time>2013-04-01T18:15:36Z</time>
      </trkpt>
      <trkpt lat="59.9746677" lon="17.7458264">
        <ele>37.1481</ele>
        <time>2013-04-01T18:15:37Z</time>
      </trkpt>
      <trkpt lat="59.9746729" lon="17.7457884">
        <ele>37.1481</ele>
        <time>2013-04-01T18:15:38Z</time>
      </trkpt>
      <trkpt lat="59.9746806" lon="17.7457596">
        <ele>37.1481</ele>
        <time>2013-04-01T18:15:39Z</time>
      </trkpt>
      <trkpt lat="59.9746906" lon="17.745741">
        <ele>37.1481</ele>
        <time>2013-04-01T18:15:40Z</time>
      </trkpt>
      <trkpt lat="59.9747001" lon="17.7457212">
        <ele>37.1481</ele>
        <time>2013-04-01T18:15:41Z</time>
      </trkpt>
      <trkpt lat="59.97471" lon="17.7457014">
        <ele>37.1481</ele>
        <time>2013-04-01T18:15:42Z</time>
      </trkpt>
      <trkpt lat="59.9747188" lon="17.7456803">
        <ele>37.1481</ele>
        <time>2013-04-01T18:15:43Z</time>
      </trkpt>
      <trkpt lat="59.9747283" lon="17.7456652">
        <ele>37.1481</ele>
        <time>2013-04-01T18:15:44Z</time>
      </trkpt>
      <trkpt lat="59.9747377" lon="17.7456492">
        <ele>37.1481</ele>
        <time>2013-04-01T18:15:45Z</time>
      </trkpt>
      <trkpt lat="59.9747467" lon="17.7456309">
        <ele>37.1481</ele>
        <time>2013-04-01T18:15:46Z</time>
      </trkpt>
      <trkpt lat="59.9747532" lon="17.7456194">
        <ele>37.1481</ele>
        <time>2013-04-01T18:15:47Z</time>
      </trkpt>
      <trkpt lat="59.9747609" lon="17.7455984">
        <ele>37.1481</ele>
        <time>2013-04-01T18:15:48Z</time>
      </trkpt>
      <trkpt lat="59.9747696" lon="17.7455757">
        <ele>37.6287</ele>
        <time>2013-04-01T18:15:49Z</time>
      </trkpt>
      <trkpt lat="59.9747783" lon="17.7455534">
        <ele>37.6287</ele>
        <time>2013-04-01T18:15:50Z</time>
      </trkpt>
      <trkpt lat="59.9747869" lon="17.7455329">
        <ele>37.6287</ele>
        <time>2013-04-01T18:15:51Z</time>
      </trkpt>
      <trkpt lat="59.9747961" lon="17.7455165">
        <ele>37.1481</ele>
        <time>2013-04-01T18:15:52Z</time>
      </trkpt>
      <trkpt lat="59.9748043" lon="17.7454972">
        <ele>37.6287</ele>
        <time>2013-04-01T18:15:53Z</time>
      </trkpt>
      <trkpt lat="59.9748117" lon="17.7454787">
        <ele>37.1481</ele>
        <time>2013-04-01T18:15:54Z</time>
      </trkpt>
      <trkpt lat="59.974819" lon="17.7454587">
        <ele>37.1481</ele>
        <time>2013-04-01T18:15:55Z</time>
      </trkpt>
      <trkpt lat="59.9748267" lon="17.7454371">
        <ele>37.1481</ele>
        <time>2013-04-01T18:15:56Z</time>
      </trkpt>
      <trkpt lat="59.9748339" lon="17.7454165">
        <ele>37.1481</ele>
        <time>2013-04-01T18:15:57Z</time>
      </trkpt>
      <trkpt lat="59.9748402" lon="17.7453978">
        <ele>37.1481</ele>
        <time>2013-04-01T18:15:58Z</time>
      </trkpt>
      <trkpt lat="59.9748469" lon="17.7453793">
        <ele>36.6675</ele>
        <time>2013-04-01T18:15:59Z</time>
      </trkpt>
      <trkpt lat="59.9748545" lon="17.74536">
        <ele>36.6675</ele>
        <time>2013-04-01T18:16:00Z</time>
      </trkpt>
      <trkpt lat="59.9748623" lon="17.7453388">
        <ele>36.6675</ele>
        <time>2013-04-01T18:16:01Z</time>
      </trkpt>
      <trkpt lat="59.9748687" lon="17.7453202">
        <ele>36.6675</ele>
        <time>2013-04-01T18:16:02Z</time>
      </trkpt>
      <trkpt lat="59.9748749" lon="17.7452993">
        <ele>36.6675</ele>
        <time>2013-04-01T18:16:03Z</time>
      </trkpt>
      <trkpt lat="59.9748816" lon="17.7452766">
        <ele>36.1868</ele>
        <time>2013-04-01T18:16:04Z</time>
      </trkpt>
      <trkpt lat="59.9748883" lon="17.745256">
        <ele>36.1868</ele>
        <time>2013-04-01T18:16:05Z</time>
      </trkpt>
      <trkpt lat="59.9748956" lon="17.7452342">
        <ele>36.1868</ele>
        <time>2013-04-01T18:16:06Z</time>
      </trkpt>
      <trkpt lat="59.974903" lon="17.7452102">
        <ele>36.1868</ele>
        <time>2013-04-01T18:16:07Z</time>
      </trkpt>
      <trkpt lat="59.97491" lon="17.7451879">
        <ele>36.1868</ele>
        <time>2013-04-01T18:16:08Z</time>
      </trkpt>
      <trkpt lat="59.9749174" lon="17.7451675">
        <ele>36.1868</ele>
        <time>2013-04-01T18:16:09Z</time>
      </trkpt>
      <trkpt lat="59.9749251" lon="17.7451488">
        <ele>36.1868</ele>
        <time>2013-04-01T18:16:10Z</time>
      </trkpt>
      <trkpt lat="59.9749322" lon="17.7451305">
        <ele>35.7061</ele>
        <time>2013-04-01T18:16:11Z</time>
      </trkpt>
      <trkpt lat="59.9749386" lon="17.7451107">
        <ele>35.7061</ele>
        <time>2013-04-01T18:16:12Z</time>
      </trkpt>
      <trkpt lat="59.9749448" lon="17.7450906">
        <ele>35.7061</ele>
        <time>2013-04-01T18:16:13Z</time>
      </trkpt>
      <trkpt lat="59.9749521" lon="17.7450693">
        <ele>36.1868</ele>
        <time>2013-04-01T18:16:14Z</time>
      </trkpt>
      <trkpt lat="59.9749593" lon="17.7450483">
        <ele>36.1868</ele>
        <time>2013-04-01T18:16:15Z</time>
      </trkpt>
      <trkpt lat="59.974966" lon="17.745026">
        <ele>36.1868</ele>
        <time>2013-04-01T18:16:16Z</time>
      </trkpt>
      <trkpt lat="59.9749728" lon="17.7450037">
        <ele>36.1868</ele>
        <time>2013-04-01T18:16:17Z</time>
      </trkpt>
      <trkpt lat="59.9749796" lon="17.7449828">
        <ele>35.7061</ele>
        <time>2013-04-01T18:16:18Z</time>
      </trkpt>
      <trkpt lat="59.9749869" lon="17.7449633">
        <ele>35.7061</ele>
        <time>2013-04-01T18:16:19Z</time>
      </trkpt>
      <trkpt lat="59.9749945" lon="17.7449432">
        <ele>35.7061</ele>
        <time>2013-04-01T18:16:20Z</time>
      </trkpt>
      <trkpt lat="59.9750011" lon="17.7449224">
        <ele>35.7061</ele>
        <time>2013-04-01T18:16:21Z</time>
      </trkpt>
      <trkpt lat="59.975007" lon="17.7449011">
        <ele>35.7061</ele>
        <time>2013-04-01T18:16:22Z</time>
      </trkpt>
      <trkpt lat="59.9750127" lon="17.744881">
        <ele>35.7061</ele>
        <time>2013-04-01T18:16:23Z</time>
      </trkpt>
      <trkpt lat="59.9750184" lon="17.7448607">
        <ele>35.7061</ele>
        <time>2013-04-01T18:16:24Z</time>
      </trkpt>
      <trkpt lat="59.9750241" lon="17.7448398">
        <ele>35.7061</ele>
        <time>2013-04-01T18:16:25Z</time>
      </trkpt>
      <trkpt lat="59.9750302" lon="17.7448186">
        <ele>35.7061</ele>
        <time>2013-04-01T18:16:26Z</time>
      </trkpt>
      <trkpt lat="59.9750363" lon="17.7447991">
        <ele>35.7061</ele>
        <time>2013-04-01T18:16:27Z</time>
      </trkpt>
      <trkpt lat="59.9750422" lon="17.7447774">
        <ele>35.7061</ele>
        <time>2013-04-01T18:16:28Z</time>
      </trkpt>
      <trkpt lat="59.9750484" lon="17.7447513">
        <ele>35.7061</ele>
        <time>2013-04-01T18:16:29Z</time>
      </trkpt>
      <trkpt lat="59.9750549" lon="17.7447286">
        <ele>36.1868</ele>
        <time>2013-04-01T18:16:30Z</time>
      </trkpt>
      <trkpt lat="59.9750611" lon="17.7447064">
        <ele>35.7061</ele>
        <time>2013-04-01T18:16:31Z</time>
      </trkpt>
      <trkpt lat="59.9750686" lon="17.7446865">
        <ele>35.7061</ele>
        <time>2013-04-01T18:16:32Z</time>
      </trkpt>
      <trkpt lat="59.9750762" lon="17.7446651">
        <ele>36.1868</ele>
        <time>2013-04-01T18:16:33Z</time>
      </trkpt>
      <trkpt lat="59.9750834" lon="17.7446446">
        <ele>36.1868</ele>
        <time>2013-04-01T18:16:34Z</time>
      </trkpt>
      <trkpt lat="59.9750902" lon="17.7446235">
        <ele>36.1868</ele>
        <time>2013-04-01T18:16:35Z</time>
      </trkpt>
      <trkpt lat="59.9750961" lon="17.7446027">
        <ele>36.1868</ele>
        <time>2013-04-01T18:16:36Z</time>
      </trkpt>
      <trkpt lat="59.9751021" lon="17.7445837">
        <ele>36.1868</ele>
        <time>2013-04-01T18:16:37Z</time>
      </trkpt>
      <trkpt lat="59.9751075" lon="17.7445634">
        <ele>36.1868</ele>
        <time>2013-04-01T18:16:38Z</time>
      </trkpt>
      <trkpt lat="59.9751128" lon="17.7445426">
        <ele>35.7061</ele>
        <time>2013-04-01T18:16:39Z</time>
      </trkpt>
      <trkpt lat="59.9751182" lon="17.7445203">
        <ele>36.1868</ele>
        <time>2013-04-01T18:16:40Z</time>
      </trkpt>
      <trkpt lat="59.975124" lon="17.7444985">
        <ele>36.1868</ele>
        <time>2013-04-01T18:16:41Z</time>
      </trkpt>
      <trkpt lat="59.97513" lon="17.7444774">
        <ele>36.1868</ele>
        <time>2013-04-01T18:16:42Z</time>
      </trkpt>
      <trkpt lat="59.9751358" lon="17.7444557">
        <ele>36.1868</ele>
        <time>2013-04-01T18:16:43Z</time>
      </trkpt>
      <trkpt lat="59.9751433" lon="17.7444333">
        <ele>36.1868</ele>
        <time>2013-04-01T18:16:44Z</time>
      </trkpt>
      <trkpt lat="59.9751513" lon="17.7444106">
        <ele>36.1868</ele>
        <time>2013-04-01T18:16:45Z</time>
      </trkpt>
      <trkpt lat="59.975157" lon="17.7443878">
        <ele>36.1868</ele>
        <time>2013-04-01T18:16:46Z</time>
      </trkpt>
      <trkpt lat="59.9751627" lon="17.744364">
        <ele>36.6675</ele>
        <time>2013-04-01T18:16:47Z</time>
      </trkpt>
      <trkpt lat="59.9751676" lon="17.7443412">
        <ele>36.1868</ele>
        <time>2013-04-01T18:16:48Z</time>
      </trkpt>
      <trkpt lat="59.9751731" lon="17.7443192">
        <ele>36.1868</ele>
        <time>2013-04-01T18:16:49Z</time>
      </trkpt>
      <trkpt lat="59.9751785" lon="17.7442949">
        <ele>36.6675</ele>
        <time>2013-04-01T18:16:50Z</time>
      </trkpt>
      <trkpt lat="59.9751839" lon="17.7442709">
        <ele>36.6675</ele>
        <time>2013-04-01T18:16:51Z</time>
      </trkpt>
      <trkpt lat="59.9751898" lon="17.744249">
        <ele>36.6675</ele>
        <time>2013-04-01T18:16:52Z</time>
      </trkpt>
      <trkpt lat="59.9751948" lon="17.7442246">
        <ele>36.6675</ele>
        <time>2013-04-01T18:16:53Z</time>
      </trkpt>
      <trkpt lat="59.9751986" lon="17.7441991">
        <ele>36.6675</ele>
        <time>2013-04-01T18:16:54Z</time>
      </trkpt>
      <trkpt lat="59.9752038" lon="17.7441765">
        <ele>36.6675</ele>
        <time>2013-04-01T18:16:55Z</time>
      </trkpt>
      <trkpt lat="59.9752093" lon="17.744151">
        <ele>36.6675</ele>
        <time>2013-04-01T18:16:56Z</time>
      </trkpt>
      <trkpt lat="59.9752141" lon="17.744125">
        <ele>36.6675</ele>
        <time>2013-04-01T18:16:57Z</time>
      </trkpt>
      <trkpt lat="59.9752193" lon="17.7441002">
        <ele>36.1868</ele>
        <time>2013-04-01T18:16:58Z</time>
      </trkpt>
      <trkpt lat="59.9752239" lon="17.7440747">
        <ele>36.1868</ele>
        <time>2013-04-01T18:16:59Z</time>
      </trkpt>
      <trkpt lat="59.9752276" lon="17.744049">
        <ele>36.1868</ele>
        <time>2013-04-01T18:17:00Z</time>
      </trkpt>
      <trkpt lat="59.9752317" lon="17.7440248">
        <ele>36.1868</ele>
        <time>2013-04-01T18:17:01Z</time>
      </trkpt>
      <trkpt lat="59.9752354" lon="17.7440029">
        <ele>36.1868</ele>
        <time>2013-04-01T18:17:02Z</time>
      </trkpt>
      <trkpt lat="59.9752386" lon="17.7439817">
        <ele>36.1868</ele>
        <time>2013-04-01T18:17:03Z</time>
      </trkpt>
      <trkpt lat="59.9752416" lon="17.7439595">
        <ele>36.6675</ele>
        <time>2013-04-01T18:17:04Z</time>
      </trkpt>
      <trkpt lat="59.9752437" lon="17.7439362">
        <ele>36.6675</ele>
        <time>2013-04-01T18:17:05Z</time>
      </trkpt>
      <trkpt lat="59.9752472" lon="17.7439147">
        <ele>36.6675</ele>
        <time>2013-04-01T18:17:06Z</time>
      </trkpt>
      <trkpt lat="59.9752499" lon="17.743893">
        <ele>36.6675</ele>
        <time>2013-04-01T18:17:07Z</time>
      </trkpt>
      <trkpt lat="59.9752526" lon="17.7438706">
        <ele>36.6675</ele>
        <time>2013-04-01T18:17:08Z</time>
      </trkpt>
      <trkpt lat="59.9752556" lon="17.7438471">
        <ele>36.6675</ele>
        <time>2013-04-01T18:17:09Z</time>
      </trkpt>
      <trkpt lat="59.9752582" lon="17.7438216">
        <ele>36.6675</ele>
        <time>2013-04-01T18:17:10Z</time>
      </trkpt>
      <trkpt lat="59.9752602" lon="17.7437951">
        <ele>36.6675</ele>
        <time>2013-04-01T18:17:11Z</time>
      </trkpt>
      <trkpt lat="59.9752618" lon="17.7437688">
        <ele>36.6675</ele>
        <time>2013-04-01T18:17:12Z</time>
      </trkpt>
      <trkpt lat="59.9752644" lon="17.7437435">
        <ele>37.1481</ele>
        <time>2013-04-01T18:17:13Z</time>
      </trkpt>
      <trkpt lat="59.9752673" lon="17.7437192">
        <ele>37.1481</ele>
        <time>2013-04-01T18:17:14Z</time>
      </trkpt>
      <trkpt lat="59.9752699" lon="17.743695">
        <ele>37.1481</ele>
        <time>2013-04-01T18:17:15Z</time>
      </trkpt>
      <trkpt lat="59.9752739" lon="17.7436731">
        <ele>37.1481</ele>
        <time>2013-04-01T18:17:16Z</time>
      </trkpt>
      <trkpt lat="59.9752784" lon="17.7436542">
        <ele>36.6675</ele>
        <time>2013-04-01T18:17:17Z</time>
      </trkpt>
      <trkpt lat="59.9752816" lon="17.7436236">
        <ele>36.6675</ele>
        <time>2013-04-01T18:17:18Z</time>
      </trkpt>
      <trkpt lat="59.9752865" lon="17.7435968">
        <ele>37.1481</ele>
        <time>2013-04-01T18:17:19Z</time>
      </trkpt>
      <trkpt lat="59.9752899" lon="17.7435679">
        <ele>37.1481</ele>
        <time>2013-04-01T18:17:20Z</time>
      </trkpt>
      <trkpt lat="59.9752937" lon="17.7435412">
        <ele>37.1481</ele>
        <time>2013-04-01T18:17:21Z</time>
      </trkpt>
      <trkpt lat="59.9752979" lon="17.7435151">
        <ele>37.1481</ele>
        <time>2013-04-01T18:17:22Z</time>
      </trkpt>
      <trkpt lat="59.975302" lon="17.7434907">
        <ele>37.1481</ele>
        <time>2013-04-01T18:17:23Z</time>
      </trkpt>
      <trkpt lat="59.975306" lon="17.7434641">
        <ele>37.1481</ele>
        <time>2013-04-01T18:17:24Z</time>
      </trkpt>
      <trkpt lat="59.9753109" lon="17.7434409">
        <ele>37.1481</ele>
        <time>2013-04-01T18:17:25Z</time>
      </trkpt>
      <trkpt lat="59.9753147" lon="17.7434172">
        <ele>37.1481</ele>
        <time>2013-04-01T18:17:26Z</time>
      </trkpt>
      <trkpt lat="59.9753188" lon="17.7433942">
        <ele>37.1481</ele>
        <time>2013-04-01T18:17:27Z</time>
      </trkpt>
      <trkpt lat="59.975324" lon="17.7433737">
        <ele>37.1481</ele>
        <time>2013-04-01T18:17:28Z</time>
      </trkpt>
      <trkpt lat="59.9753312" lon="17.7433552">
        <ele>37.6287</ele>
        <time>2013-04-01T18:17:29Z</time>
      </trkpt>
      <trkpt lat="59.9753378" lon="17.7433333">
        <ele>37.6287</ele>
        <time>2013-04-01T18:17:30Z</time>
      </trkpt>
      <trkpt lat="59.9753453" lon="17.7433164">
        <ele>37.6287</ele>
        <time>2013-04-01T18:17:31Z</time>
      </trkpt>
      <trkpt lat="59.975352" lon="17.7432979">
        <ele>37.6287</ele>
        <time>2013-04-01T18:17:32Z</time>
      </trkpt>
      <trkpt lat="59.9753576" lon="17.7432767">
        <ele>37.6287</ele>
        <time>2013-04-01T18:17:33Z</time>
      </trkpt>
      <trkpt lat="59.9753621" lon="17.743253">
        <ele>37.6287</ele>
        <time>2013-04-01T18:17:34Z</time>
      </trkpt>
      <trkpt lat="59.9753663" lon="17.7432327">
        <ele>37.6287</ele>
        <time>2013-04-01T18:17:35Z</time>
      </trkpt>
      <trkpt lat="59.9753704" lon="17.7432139">
        <ele>37.6287</ele>
        <time>2013-04-01T18:17:36Z</time>
      </trkpt>
      <trkpt lat="59.9753751" lon="17.743197">
        <ele>37.6287</ele>
        <time>2013-04-01T18:17:37Z</time>
      </trkpt>
      <trkpt lat="59.9753797" lon="17.7431782">
        <ele>37.6287</ele>
        <time>2013-04-01T18:17:38Z</time>
      </trkpt>
      <trkpt lat="59.9753847" lon="17.7431587">
        <ele>37.6287</ele>
        <time>2013-04-01T18:17:39Z</time>
      </trkpt>
      <trkpt lat="59.9753899" lon="17.743139">
        <ele>37.1481</ele>
        <time>2013-04-01T18:17:40Z</time>
      </trkpt>
      <trkpt lat="59.9753958" lon="17.7431193">
        <ele>37.1481</ele>
        <time>2013-04-01T18:17:41Z</time>
      </trkpt>
      <trkpt lat="59.9754018" lon="17.7430995">
        <ele>37.1481</ele>
        <time>2013-04-01T18:17:42Z</time>
      </trkpt>
      <trkpt lat="59.9754083" lon="17.7430793">
        <ele>37.1481</ele>
        <time>2013-04-01T18:17:43Z</time>
      </trkpt>
      <trkpt lat="59.9754141" lon="17.7430579">
        <ele>37.1481</ele>
        <time>2013-04-01T18:17:44Z</time>
      </trkpt>
      <trkpt lat="59.9754192" lon="17.7430372">
        <ele>37.1481</ele>
        <time>2013-04-01T18:17:45Z</time>
      </trkpt>
      <trkpt lat="59.9754243" lon="17.7430141">
        <ele>37.6287</ele>
        <time>2013-04-01T18:17:46Z</time>
      </trkpt>
      <trkpt lat="59.9754298" lon="17.7429914">
        <ele>37.6287</ele>
        <time>2013-04-01T18:17:47Z</time>
      </trkpt>
      <trkpt lat="59.9754358" lon="17.7429705">
        <ele>38.1094</ele>
        <time>2013-04-01T18:17:48Z</time>
      </trkpt>
      <trkpt lat="59.975441" lon="17.7429503">
        <ele>38.1094</ele>
        <time>2013-04-01T18:17:49Z</time>
      </trkpt>
      <trkpt lat="59.9754467" lon="17.7429296">
        <ele>38.5901</ele>
        <time>2013-04-01T18:17:50Z</time>
      </trkpt>
      <trkpt lat="59.9754555" lon="17.7429079">
        <ele>38.5901</ele>
        <time>2013-04-01T18:17:51Z</time>
      </trkpt>
      <trkpt lat="59.9754613" lon="17.742887">
        <ele>38.1094</ele>
        <time>2013-04-01T18:17:52Z</time>
      </trkpt>
      <trkpt lat="59.9754645" lon="17.7428638">
        <ele>38.1094</ele>
        <time>2013-04-01T18:17:53Z</time>
      </trkpt>
      <trkpt lat="59.9754691" lon="17.7428434">
        <ele>38.1094</ele>
        <time>2013-04-01T18:17:54Z</time>
      </trkpt>
      <trkpt lat="59.975475" lon="17.7428229">
        <ele>38.1094</ele>
        <time>2013-04-01T18:17:55Z</time>
      </trkpt>
      <trkpt lat="59.9754823" lon="17.7428035">
        <ele>38.1094</ele>
        <time>2013-04-01T18:17:56Z</time>
      </trkpt>
      <trkpt lat="59.9754887" lon="17.7427798">
        <ele>38.1094</ele>
        <time>2013-04-01T18:17:57Z</time>
      </trkpt>
      <trkpt lat="59.9754949" lon="17.7427633">
        <ele>38.1094</ele>
        <time>2013-04-01T18:17:58Z</time>
      </trkpt>
      <trkpt lat="59.9755011" lon="17.7427461">
        <ele>38.1094</ele>
        <time>2013-04-01T18:17:59Z</time>
      </trkpt>
      <trkpt lat="59.9755079" lon="17.7427269">
        <ele>37.6287</ele>
        <time>2013-04-01T18:18:00Z</time>
      </trkpt>
      <trkpt lat="59.9755146" lon="17.7427079">
        <ele>37.6287</ele>
        <time>2013-04-01T18:18:01Z</time>
      </trkpt>
      <trkpt lat="59.9755193" lon="17.7426916">
        <ele>37.6287</ele>
        <time>2013-04-01T18:18:02Z</time>
      </trkpt>
      <trkpt lat="59.9755243" lon="17.7426741">
        <ele>37.1481</ele>
        <time>2013-04-01T18:18:03Z</time>
      </trkpt>
      <trkpt lat="59.9755299" lon="17.7426541">
        <ele>37.1481</ele>
        <time>2013-04-01T18:18:04Z</time>
      </trkpt>
      <trkpt lat="59.9755354" lon="17.7426306">
        <ele>37.6287</ele>
        <time>2013-04-01T18:18:05Z</time>
      </trkpt>
      <trkpt lat="59.9755416" lon="17.7426065">
        <ele>37.6287</ele>
        <time>2013-04-01T18:18:06Z</time>
      </trkpt>
      <trkpt lat="59.9755476" lon="17.7425844">
        <ele>38.1094</ele>
        <time>2013-04-01T18:18:07Z</time>
      </trkpt>
      <trkpt lat="59.975554" lon="17.7425619">
        <ele>38.1094</ele>
        <time>2013-04-01T18:18:08Z</time>
      </trkpt>
      <trkpt lat="59.9755598" lon="17.7425393">
        <ele>38.1094</ele>
        <time>2013-04-01T18:18:09Z</time>
      </trkpt>
      <trkpt lat="59.9755649" lon="17.7425163">
        <ele>38.5901</ele>
        <time>2013-04-01T18:18:10Z</time>
      </trkpt>
      <trkpt lat="59.9755696" lon="17.7424935">
        <ele>38.5901</ele>
        <time>2013-04-01T18:18:11Z</time>
      </trkpt>
      <trkpt lat="59.9755747" lon="17.7424738">
        <ele>38.5901</ele>
        <time>2013-04-01T18:18:12Z</time>
      </trkpt>
      <trkpt lat="59.9755804" lon="17.7424594">
        <ele>38.1094</ele>
        <time>2013-04-01T18:18:13Z</time>
      </trkpt>
      <trkpt lat="59.9755867" lon="17.7424435">
        <ele>37.6287</ele>
        <time>2013-04-01T18:18:14Z</time>
      </trkpt>
      <trkpt lat="59.9755924" lon="17.7424234">
        <ele>37.6287</ele>
        <time>2013-04-01T18:18:15Z</time>
      </trkpt>
      <trkpt lat="59.975598" lon="17.7424023">
        <ele>37.6287</ele>
        <time>2013-04-01T18:18:16Z</time>
      </trkpt>
      <trkpt lat="59.9756038" lon="17.7423801">
        <ele>37.1481</ele>
        <time>2013-04-01T18:18:17Z</time>
      </trkpt>
      <trkpt lat="59.9756098" lon="17.7423592">
        <ele>37.1481</ele>
        <time>2013-04-01T18:18:18Z</time>
      </trkpt>
      <trkpt lat="59.9756161" lon="17.7423361">
        <ele>37.6287</ele>
        <time>2013-04-01T18:18:19Z</time>
      </trkpt>
      <trkpt lat="59.9756217" lon="17.7423136">
        <ele>37.1481</ele>
        <time>2013-04-01T18:18:20Z</time>
      </trkpt>
      <trkpt lat="59.975627" lon="17.7422918">
        <ele>37.1481</ele>
        <time>2013-04-01T18:18:21Z</time>
      </trkpt>
      <trkpt lat="59.9756325" lon="17.7422693">
        <ele>37.1481</ele>
        <time>2013-04-01T18:18:22Z</time>
      </trkpt>
      <trkpt lat="59.9756374" lon="17.7422506">
        <ele>36.6675</ele>
        <time>2013-04-01T18:18:23Z</time>
      </trkpt>
      <trkpt lat="59.9756426" lon="17.7422325">
        <ele>36.6675</ele>
        <time>2013-04-01T18:18:24Z</time>
      </trkpt>
      <trkpt lat="59.9756476" lon="17.7422126">
        <ele>36.6675</ele>
        <time>2013-04-01T18:18:25Z</time>
      </trkpt>
      <trkpt lat="59.9756527" lon="17.7421929">
        <ele>36.6675</ele>
        <time>2013-04-01T18:18:26Z</time>
      </trkpt>
      <trkpt lat="59.9756591" lon="17.7421723">
        <ele>36.6675</ele>
        <time>2013-04-01T18:18:27Z</time>
      </trkpt>
      <trkpt lat="59.9756651" lon="17.7421504">
        <ele>37.1481</ele>
        <time>2013-04-01T18:18:28Z</time>
      </trkpt>
      <trkpt lat="59.9756709" lon="17.7421276">
        <ele>37.1481</ele>
        <time>2013-04-01T18:18:29Z</time>
      </trkpt>
      <trkpt lat="59.9756766" lon="17.7421039">
        <ele>37.1481</ele>
        <time>2013-04-01T18:18:30Z</time>
      </trkpt>
      <trkpt lat="59.9756826" lon="17.7420814">
        <ele>37.6287</ele>
        <time>2013-04-01T18:18:31Z</time>
      </trkpt>
      <trkpt lat="59.9756887" lon="17.7420588">
        <ele>37.6287</ele>
        <time>2013-04-01T18:18:32Z</time>
      </trkpt>
      <trkpt lat="59.9756948" lon="17.7420361">
        <ele>37.6287</ele>
        <time>2013-04-01T18:18:33Z</time>
      </trkpt>
      <trkpt lat="59.9757002" lon="17.7420107">
        <ele>37.6287</ele>
        <time>2013-04-01T18:18:34Z</time>
      </trkpt>
      <trkpt lat="59.9757042" lon="17.7419864">
        <ele>38.1094</ele>
        <time>2013-04-01T18:18:35Z</time>
      </trkpt>
      <trkpt lat="59.9757076" lon="17.7419646">
        <ele>38.1094</ele>
        <time>2013-04-01T18:18:36Z</time>
      </trkpt>
      <trkpt lat="59.9757111" lon="17.7419392">
        <ele>38.1094</ele>
        <time>2013-04-01T18:18:37Z</time>
      </trkpt>
      <trkpt lat="59.9757151" lon="17.7419151">
        <ele>38.1094</ele>
        <time>2013-04-01T18:18:38Z</time>
      </trkpt>
      <trkpt lat="59.9757202" lon="17.7418932">
        <ele>38.5901</ele>
        <time>2013-04-01T18:18:39Z</time>
      </trkpt>
      <trkpt lat="59.975724" lon="17.7418698">
        <ele>39.0707</ele>
        <time>2013-04-01T18:18:40Z</time>
      </trkpt>
      <trkpt lat="59.9757287" lon="17.7418421">
        <ele>39.0707</ele>
        <time>2013-04-01T18:18:41Z</time>
      </trkpt>
      <trkpt lat="59.9757342" lon="17.7418206">
        <ele>39.0707</ele>
        <time>2013-04-01T18:18:42Z</time>
      </trkpt>
      <trkpt lat="59.9757406" lon="17.7417999">
        <ele>39.0707</ele>
        <time>2013-04-01T18:18:43Z</time>
      </trkpt>
      <trkpt lat="59.9757473" lon="17.7417785">
        <ele>39.0707</ele>
        <time>2013-04-01T18:18:44Z</time>
      </trkpt>
      <trkpt lat="59.9757535" lon="17.7417569">
        <ele>39.0707</ele>
        <time>2013-04-01T18:18:45Z</time>
      </trkpt>
      <trkpt lat="59.9757606" lon="17.7417346">
        <ele>39.5513</ele>
        <time>2013-04-01T18:18:46Z</time>
      </trkpt>
      <trkpt lat="59.9757648" lon="17.7417136">
        <ele>39.0707</ele>
        <time>2013-04-01T18:18:47Z</time>
      </trkpt>
      <trkpt lat="59.975769" lon="17.7416903">
        <ele>39.0707</ele>
        <time>2013-04-01T18:18:48Z</time>
      </trkpt>
      <trkpt lat="59.9757737" lon="17.7416683">
        <ele>39.0707</ele>
        <time>2013-04-01T18:18:49Z</time>
      </trkpt>
      <trkpt lat="59.9757786" lon="17.7416477">
        <ele>38.5901</ele>
        <time>2013-04-01T18:18:50Z</time>
      </trkpt>
      <trkpt lat="59.9757831" lon="17.7416263">
        <ele>39.0707</ele>
        <time>2013-04-01T18:18:51Z</time>
      </trkpt>
      <trkpt lat="59.9757892" lon="17.7416082">
        <ele>38.5901</ele>
        <time>2013-04-01T18:18:52Z</time>
      </trkpt>
      <trkpt lat="59.9757945" lon="17.7415812">
        <ele>39.0707</ele>
        <time>2013-04-01T18:18:53Z</time>
      </trkpt>
      <trkpt lat="59.9758002" lon="17.7415574">
        <ele>38.5901</ele>
        <time>2013-04-01T18:18:54Z</time>
      </trkpt>
      <trkpt lat="59.9758061" lon="17.741534">
        <ele>38.5901</ele>
        <time>2013-04-01T18:18:55Z</time>
      </trkpt>
      <trkpt lat="59.9758119" lon="17.7415114">
        <ele>38.1094</ele>
        <time>2013-04-01T18:18:56Z</time>
      </trkpt>
      <trkpt lat="59.975818" lon="17.7414891">
        <ele>38.1094</ele>
        <time>2013-04-01T18:18:57Z</time>
      </trkpt>
      <trkpt lat="59.9758239" lon="17.7414671">
        <ele>37.6287</ele>
        <time>2013-04-01T18:18:58Z</time>
      </trkpt>
      <trkpt lat="59.9758291" lon="17.7414449">
        <ele>37.6287</ele>
        <time>2013-04-01T18:18:59Z</time>
      </trkpt>
      <trkpt lat="59.9758335" lon="17.7414228">
        <ele>37.1481</ele>
        <time>2013-04-01T18:19:00Z</time>
      </trkpt>
      <trkpt lat="59.9758379" lon="17.7414006">
        <ele>37.1481</ele>
        <time>2013-04-01T18:19:01Z</time>
      </trkpt>
      <trkpt lat="59.975843" lon="17.7413787">
        <ele>36.6675</ele>
        <time>2013-04-01T18:19:02Z</time>
      </trkpt>
      <trkpt lat="59.9758482" lon="17.7413555">
        <ele>36.6675</ele>
        <time>2013-04-01T18:19:03Z</time>
      </trkpt>
      <trkpt lat="59.9758537" lon="17.7413322">
        <ele>36.1868</ele>
        <time>2013-04-01T18:19:04Z</time>
      </trkpt>
      <trkpt lat="59.9758595" lon="17.7413102">
        <ele>36.1868</ele>
        <time>2013-04-01T18:19:05Z</time>
      </trkpt>
      <trkpt lat="59.9758654" lon="17.7412887">
        <ele>36.1868</ele>
        <time>2013-04-01T18:19:06Z</time>
      </trkpt>
      <trkpt lat="59.9758711" lon="17.7412659">
        <ele>35.7061</ele>
        <time>2013-04-01T18:19:07Z</time>
      </trkpt>
      <trkpt lat="59.9758772" lon="17.741243">
        <ele>35.7061</ele>
        <time>2013-04-01T18:19:08Z</time>
      </trkpt>
      <trkpt lat="59.9758834" lon="17.7412196">
        <ele>35.7061</ele>
        <time>2013-04-01T18:19:09Z</time>
      </trkpt>
      <trkpt lat="59.9758892" lon="17.7411961">
        <ele>35.2255</ele>
        <time>2013-04-01T18:19:10Z</time>
      </trkpt>
      <trkpt lat="59.9758951" lon="17.7411735">
        <ele>35.2255</ele>
        <time>2013-04-01T18:19:11Z</time>
      </trkpt>
      <trkpt lat="59.9759016" lon="17.7411543">
        <ele>35.2255</ele>
        <time>2013-04-01T18:19:12Z</time>
      </trkpt>
      <trkpt lat="59.9759089" lon="17.7411324">
        <ele>35.2255</ele>
        <time>2013-04-01T18:19:13Z</time>
      </trkpt>
      <trkpt lat="59.975915" lon="17.7411074">
        <ele>34.7449</ele>
        <time>2013-04-01T18:19:14Z</time>
      </trkpt>
      <trkpt lat="59.9759197" lon="17.7410819">
        <ele>34.7449</ele>
        <time>2013-04-01T18:19:15Z</time>
      </trkpt>
      <trkpt lat="59.9759248" lon="17.7410595">
        <ele>34.7449</ele>
        <time>2013-04-01T18:19:16Z</time>
      </trkpt>
      <trkpt lat="59.9759306" lon="17.7410382">
        <ele>34.7449</ele>
        <time>2013-04-01T18:19:17Z</time>
      </trkpt>
      <trkpt lat="59.9759363" lon="17.7410151">
        <ele>34.7449</ele>
        <time>2013-04-01T18:19:18Z</time>
      </trkpt>
      <trkpt lat="59.975942" lon="17.7409932">
        <ele>34.2642</ele>
        <time>2013-04-01T18:19:19Z</time>
      </trkpt>
      <trkpt lat="59.9759472" lon="17.7409711">
        <ele>34.2642</ele>
        <time>2013-04-01T18:19:20Z</time>
      </trkpt>
      <trkpt lat="59.9759522" lon="17.7409486">
        <ele>34.2642</ele>
        <time>2013-04-01T18:19:21Z</time>
      </trkpt>
      <trkpt lat="59.9759576" lon="17.740927">
        <ele>34.2642</ele>
        <time>2013-04-01T18:19:22Z</time>
      </trkpt>
      <trkpt lat="59.9759637" lon="17.7409061">
        <ele>33.7834</ele>
        <time>2013-04-01T18:19:23Z</time>
      </trkpt>
      <trkpt lat="59.9759705" lon="17.740884">
        <ele>33.7834</ele>
        <time>2013-04-01T18:19:24Z</time>
      </trkpt>
      <trkpt lat="59.9759777" lon="17.7408597">
        <ele>33.7834</ele>
        <time>2013-04-01T18:19:25Z</time>
      </trkpt>
      <trkpt lat="59.975985" lon="17.7408363">
        <ele>34.2642</ele>
        <time>2013-04-01T18:19:26Z</time>
      </trkpt>
      <trkpt lat="59.9759916" lon="17.7408141">
        <ele>33.7834</ele>
        <time>2013-04-01T18:19:27Z</time>
      </trkpt>
      <trkpt lat="59.9759977" lon="17.7407898">
        <ele>33.7834</ele>
        <time>2013-04-01T18:19:28Z</time>
      </trkpt>
      <trkpt lat="59.9760036" lon="17.7407644">
        <ele>33.7834</ele>
        <time>2013-04-01T18:19:29Z</time>
      </trkpt>
      <trkpt lat="59.9760097" lon="17.7407414">
        <ele>33.7834</ele>
        <time>2013-04-01T18:19:30Z</time>
      </trkpt>
      <trkpt lat="59.976015" lon="17.7407192">
        <ele>33.7834</ele>
        <time>2013-04-01T18:19:31Z</time>
      </trkpt>
      <trkpt lat="59.9760202" lon="17.7406978">
        <ele>33.7834</ele>
        <time>2013-04-01T18:19:32Z</time>
      </trkpt>
      <trkpt lat="59.9760254" lon="17.7406773">
        <ele>33.7834</ele>
        <time>2013-04-01T18:19:33Z</time>
      </trkpt>
      <trkpt lat="59.9760311" lon="17.7406571">
        <ele>33.7834</ele>
        <time>2013-04-01T18:19:34Z</time>
      </trkpt>
      <trkpt lat="59.9760378" lon="17.7406363">
        <ele>33.7834</ele>
        <time>2013-04-01T18:19:35Z</time>
      </trkpt>
      <trkpt lat="59.9760443" lon="17.7406141">
        <ele>33.7834</ele>
        <time>2013-04-01T18:19:36Z</time>
      </trkpt>
      <trkpt lat="59.9760506" lon="17.7405956">
        <ele>33.3029</ele>
        <time>2013-04-01T18:19:37Z</time>
      </trkpt>
      <trkpt lat="59.976057" lon="17.7405769">
        <ele>33.3029</ele>
        <time>2013-04-01T18:19:38Z</time>
      </trkpt>
      <trkpt lat="59.9760626" lon="17.7405544">
        <ele>33.3029</ele>
        <time>2013-04-01T18:19:39Z</time>
      </trkpt>
      <trkpt lat="59.9760694" lon="17.7405337">
        <ele>32.8223</ele>
        <time>2013-04-01T18:19:40Z</time>
      </trkpt>
      <trkpt lat="59.9760761" lon="17.7405137">
        <ele>32.8223</ele>
        <time>2013-04-01T18:19:41Z</time>
      </trkpt>
      <trkpt lat="59.9760807" lon="17.7404903">
        <ele>32.8223</ele>
        <time>2013-04-01T18:19:42Z</time>
      </trkpt>
      <trkpt lat="59.9760854" lon="17.7404675">
        <ele>32.8223</ele>
        <time>2013-04-01T18:19:43Z</time>
      </trkpt>
      <trkpt lat="59.976092" lon="17.740445">
        <ele>33.3029</ele>
        <time>2013-04-01T18:19:44Z</time>
      </trkpt>
      <trkpt lat="59.9760988" lon="17.7404245">
        <ele>32.8223</ele>
        <time>2013-04-01T18:19:45Z</time>
      </trkpt>
      <trkpt lat="59.9761057" lon="17.7404034">
        <ele>32.8223</ele>
        <time>2013-04-01T18:19:46Z</time>
      </trkpt>
      <trkpt lat="59.9761132" lon="17.7403866">
        <ele>32.8223</ele>
        <time>2013-04-01T18:19:47Z</time>
      </trkpt>
      <trkpt lat="59.9761205" lon="17.7403671">
        <ele>32.8223</ele>
        <time>2013-04-01T18:19:48Z</time>
      </trkpt>
      <trkpt lat="59.9761275" lon="17.7403499">
        <ele>32.8223</ele>
        <time>2013-04-01T18:19:49Z</time>
      </trkpt>
      <trkpt lat="59.9761355" lon="17.7403331">
        <ele>32.8223</ele>
        <time>2013-04-01T18:19:50Z</time>
      </trkpt>
      <trkpt lat="59.9761439" lon="17.7403116">
        <ele>32.8223</ele>
        <time>2013-04-01T18:19:51Z</time>
      </trkpt>
      <trkpt lat="59.9761521" lon="17.7402897">
        <ele>32.8223</ele>
        <time>2013-04-01T18:19:52Z</time>
      </trkpt>
      <trkpt lat="59.9761594" lon="17.7402597">
        <ele>32.8223</ele>
        <time>2013-04-01T18:19:53Z</time>
      </trkpt>
      <trkpt lat="59.9761664" lon="17.7402365">
        <ele>32.8223</ele>
        <time>2013-04-01T18:19:54Z</time>
      </trkpt>
      <trkpt lat="59.9761738" lon="17.7402119">
        <ele>32.8223</ele>
        <time>2013-04-01T18:19:55Z</time>
      </trkpt>
      <trkpt lat="59.9761817" lon="17.7401867">
        <ele>32.8223</ele>
        <time>2013-04-01T18:19:56Z</time>
      </trkpt>
      <trkpt lat="59.9761901" lon="17.7401655">
        <ele>32.8223</ele>
        <time>2013-04-01T18:19:57Z</time>
      </trkpt>
      <trkpt lat="59.9761975" lon="17.7401406">
        <ele>32.8223</ele>
        <time>2013-04-01T18:19:58Z</time>
      </trkpt>
      <trkpt lat="59.9762044" lon="17.7401122">
        <ele>33.3029</ele>
        <time>2013-04-01T18:19:59Z</time>
      </trkpt>
      <trkpt lat="59.9762124" lon="17.7400913">
        <ele>32.8223</ele>
        <time>2013-04-01T18:20:00Z</time>
      </trkpt>
      <trkpt lat="59.9762197" lon="17.7400697">
        <ele>32.8223</ele>
        <time>2013-04-01T18:20:01Z</time>
      </trkpt>
      <trkpt lat="59.9762264" lon="17.7400453">
        <ele>32.8223</ele>
        <time>2013-04-01T18:20:02Z</time>
      </trkpt>
      <trkpt lat="59.9762345" lon="17.7400267">
        <ele>32.8223</ele>
        <time>2013-04-01T18:20:03Z</time>
      </trkpt>
      <trkpt lat="59.9762414" lon="17.7400028">
        <ele>32.8223</ele>
        <time>2013-04-01T18:20:04Z</time>
      </trkpt>
      <trkpt lat="59.9762482" lon="17.7399773">
        <ele>32.8223</ele>
        <time>2013-04-01T18:20:05Z</time>
      </trkpt>
      <trkpt lat="59.9762554" lon="17.7399531">
        <ele>32.8223</ele>
        <time>2013-04-01T18:20:06Z</time>
      </trkpt>
      <trkpt lat="59.9762626" lon="17.7399299">
        <ele>32.8223</ele>
        <time>2013-04-01T18:20:07Z</time>
      </trkpt>
      <trkpt lat="59.9762699" lon="17.7399069">
        <ele>32.8223</ele>
        <time>2013-04-01T18:20:08Z</time>
      </trkpt>
      <trkpt lat="59.9762765" lon="17.7398781">
        <ele>32.8223</ele>
        <time>2013-04-01T18:20:09Z</time>
      </trkpt>
      <trkpt lat="59.9762832" lon="17.7398506">
        <ele>33.3029</ele>
        <time>2013-04-01T18:20:10Z</time>
      </trkpt>
      <trkpt lat="59.9762911" lon="17.7398294">
        <ele>33.3029</ele>
        <time>2013-04-01T18:20:11Z</time>
      </trkpt>
      <trkpt lat="59.9762998" lon="17.7398092">
        <ele>33.3029</ele>
        <time>2013-04-01T18:20:12Z</time>
      </trkpt>
      <trkpt lat="59.9763082" lon="17.7397892">
        <ele>33.3029</ele>
        <time>2013-04-01T18:20:13Z</time>
      </trkpt>
      <trkpt lat="59.9763156" lon="17.7397666">
        <ele>33.3029</ele>
        <time>2013-04-01T18:20:14Z</time>
      </trkpt>
      <trkpt lat="59.9763222" lon="17.7397398">
        <ele>33.3029</ele>
        <time>2013-04-01T18:20:15Z</time>
      </trkpt>
      <trkpt lat="59.976329" lon="17.7397184">
        <ele>33.3029</ele>
        <time>2013-04-01T18:20:16Z</time>
      </trkpt>
      <trkpt lat="59.9763362" lon="17.7396946">
        <ele>33.3029</ele>
        <time>2013-04-01T18:20:17Z</time>
      </trkpt>
      <trkpt lat="59.9763438" lon="17.7396734">
        <ele>33.3029</ele>
        <time>2013-04-01T18:20:18Z</time>
      </trkpt>
      <trkpt lat="59.9763518" lon="17.7396564">
        <ele>33.3029</ele>
        <time>2013-04-01T18:20:19Z</time>
      </trkpt>
      <trkpt lat="59.9763598" lon="17.7396408">
        <ele>33.7834</ele>
        <time>2013-04-01T18:20:20Z</time>
      </trkpt>
      <trkpt lat="59.9763679" lon="17.7396246">
        <ele>33.7834</ele>
        <time>2013-04-01T18:20:21Z</time>
      </trkpt>
      <trkpt lat="59.9763765" lon="17.7396066">
        <ele>33.7834</ele>
        <time>2013-04-01T18:20:22Z</time>
      </trkpt>
      <trkpt lat="59.9763847" lon="17.7395894">
        <ele>33.7834</ele>
        <time>2013-04-01T18:20:23Z</time>
      </trkpt>
      <trkpt lat="59.9763938" lon="17.7395703">
        <ele>34.2642</ele>
        <time>2013-04-01T18:20:24Z</time>
      </trkpt>
      <trkpt lat="59.9764031" lon="17.7395531">
        <ele>34.2642</ele>
        <time>2013-04-01T18:20:25Z</time>
      </trkpt>
      <trkpt lat="59.9764133" lon="17.7395392">
        <ele>34.2642</ele>
        <time>2013-04-01T18:20:26Z</time>
      </trkpt>
      <trkpt lat="59.9764232" lon="17.7395211">
        <ele>34.2642</ele>
        <time>2013-04-01T18:20:27Z</time>
      </trkpt>
      <trkpt lat="59.9764336" lon="17.7395097">
        <ele>34.2642</ele>
        <time>2013-04-01T18:20:28Z</time>
      </trkpt>
      <trkpt lat="59.9764448" lon="17.7394982">
        <ele>34.2642</ele>
        <time>2013-04-01T18:20:29Z</time>
      </trkpt>
      <trkpt lat="59.9764552" lon="17.7394843">
        <ele>34.2642</ele>
        <time>2013-04-01T18:20:30Z</time>
      </trkpt>
      <trkpt lat="59.9764645" lon="17.7394696">
        <ele>34.2642</ele>
        <time>2013-04-01T18:20:31Z</time>
      </trkpt>
      <trkpt lat="59.9764729" lon="17.739453">
        <ele>34.2642</ele>
        <time>2013-04-01T18:20:32Z</time>
      </trkpt>
      <trkpt lat="59.9764848" lon="17.7394503">
        <ele>34.2642</ele>
        <time>2013-04-01T18:20:33Z</time>
      </trkpt>
      <trkpt lat="59.9764937" lon="17.7394435">
        <ele>33.7834</ele>
        <time>2013-04-01T18:20:34Z</time>
      </trkpt>
      <trkpt lat="59.9765056" lon="17.7394393">
        <ele>33.7834</ele>
        <time>2013-04-01T18:20:35Z</time>
      </trkpt>
      <trkpt lat="59.9765132" lon="17.7394184">
        <ele>34.2642</ele>
        <time>2013-04-01T18:20:36Z</time>
      </trkpt>
      <trkpt lat="59.9765247" lon="17.7394052">
        <ele>34.7449</ele>
        <time>2013-04-01T18:20:37Z</time>
      </trkpt>
      <trkpt lat="59.9765356" lon="17.7393912">
        <ele>34.7449</ele>
        <time>2013-04-01T18:20:38Z</time>
      </trkpt>
      <trkpt lat="59.976546" lon="17.7393776">
        <ele>35.2255</ele>
        <time>2013-04-01T18:20:39Z</time>
      </trkpt>
      <trkpt lat="59.9765574" lon="17.739364">
        <ele>35.7061</ele>
        <time>2013-04-01T18:20:40Z</time>
      </trkpt>
      <trkpt lat="59.9765688" lon="17.7393555">
        <ele>36.1868</ele>
        <time>2013-04-01T18:20:41Z</time>
      </trkpt>
      <trkpt lat="59.9765818" lon="17.7393495">
        <ele>36.1868</ele>
        <time>2013-04-01T18:20:42Z</time>
      </trkpt>
      <trkpt lat="59.9765921" lon="17.7393429">
        <ele>36.1868</ele>
        <time>2013-04-01T18:20:43Z</time>
      </trkpt>
      <trkpt lat="59.9766035" lon="17.7393459">
        <ele>35.7061</ele>
        <time>2013-04-01T18:20:44Z</time>
      </trkpt>
      <trkpt lat="59.9766159" lon="17.739345">
        <ele>35.7061</ele>
        <time>2013-04-01T18:20:45Z</time>
      </trkpt>
      <trkpt lat="59.9766313" lon="17.7393518">
        <ele>35.7061</ele>
        <time>2013-04-01T18:20:46Z</time>
      </trkpt>
      <trkpt lat="59.9766445" lon="17.7393555">
        <ele>35.2255</ele>
        <time>2013-04-01T18:20:47Z</time>
      </trkpt>
      <trkpt lat="59.9766554" lon="17.7393527">
        <ele>35.2255</ele>
        <time>2013-04-01T18:20:48Z</time>
      </trkpt>
      <trkpt lat="59.9766675" lon="17.7393502">
        <ele>35.2255</ele>
        <time>2013-04-01T18:20:49Z</time>
      </trkpt>
      <trkpt lat="59.9766805" lon="17.739348">
        <ele>35.2255</ele>
        <time>2013-04-01T18:20:50Z</time>
      </trkpt>
      <trkpt lat="59.9766946" lon="17.7393489">
        <ele>35.2255</ele>
        <time>2013-04-01T18:20:51Z</time>
      </trkpt>
      <trkpt lat="59.9767056" lon="17.7393495">
        <ele>35.2255</ele>
        <time>2013-04-01T18:20:52Z</time>
      </trkpt>
      <trkpt lat="59.9767169" lon="17.7393492">
        <ele>34.7449</ele>
        <time>2013-04-01T18:20:53Z</time>
      </trkpt>
      <trkpt lat="59.9767273" lon="17.7393502">
        <ele>34.7449</ele>
        <time>2013-04-01T18:20:54Z</time>
      </trkpt>
      <trkpt lat="59.9767372" lon="17.7393512">
        <ele>34.7449</ele>
        <time>2013-04-01T18:20:55Z</time>
      </trkpt>
      <trkpt lat="59.9767479" lon="17.7393511">
        <ele>35.2255</ele>
        <time>2013-04-01T18:20:56Z</time>
      </trkpt>
      <trkpt lat="59.9767577" lon="17.7393465">
        <ele>35.2255</ele>
        <time>2013-04-01T18:20:57Z</time>
      </trkpt>
      <trkpt lat="59.9767666" lon="17.7393403">
        <ele>35.2255</ele>
        <time>2013-04-01T18:20:58Z</time>
      </trkpt>
      <trkpt lat="59.9767765" lon="17.739334">
        <ele>35.7061</ele>
        <time>2013-04-01T18:20:59Z</time>
      </trkpt>
      <trkpt lat="59.9767863" lon="17.739329">
        <ele>35.7061</ele>
        <time>2013-04-01T18:21:00Z</time>
      </trkpt>
      <trkpt lat="59.9767991" lon="17.7393227">
        <ele>35.7061</ele>
        <time>2013-04-01T18:21:01Z</time>
      </trkpt>
      <trkpt lat="59.9768105" lon="17.7393225">
        <ele>36.1868</ele>
        <time>2013-04-01T18:21:02Z</time>
      </trkpt>
      <trkpt lat="59.9768203" lon="17.7393147">
        <ele>36.6675</ele>
        <time>2013-04-01T18:21:03Z</time>
      </trkpt>
      <trkpt lat="59.9768335" lon="17.7393112">
        <ele>36.1868</ele>
        <time>2013-04-01T18:21:04Z</time>
      </trkpt>
      <trkpt lat="59.9768457" lon="17.7393056">
        <ele>36.6675</ele>
        <time>2013-04-01T18:21:05Z</time>
      </trkpt>
      <trkpt lat="59.976859" lon="17.7393041">
        <ele>37.1481</ele>
        <time>2013-04-01T18:21:06Z</time>
      </trkpt>
      <trkpt lat="59.9768733" lon="17.7393075">
        <ele>37.1481</ele>
        <time>2013-04-01T18:21:07Z</time>
      </trkpt>
      <trkpt lat="59.9768866" lon="17.739304">
        <ele>37.1481</ele>
        <time>2013-04-01T18:21:08Z</time>
      </trkpt>
      <trkpt lat="59.9768967" lon="17.7392964">
        <ele>38.1094</ele>
        <time>2013-04-01T18:21:09Z</time>
      </trkpt>
      <trkpt lat="59.976907" lon="17.7392888">
        <ele>38.5901</ele>
        <time>2013-04-01T18:21:10Z</time>
      </trkpt>
      <trkpt lat="59.9769179" lon="17.7392883">
        <ele>38.5901</ele>
        <time>2013-04-01T18:21:11Z</time>
      </trkpt>
      <trkpt lat="59.9769297" lon="17.7392833">
        <ele>39.0707</ele>
        <time>2013-04-01T18:21:12Z</time>
      </trkpt>
      <trkpt lat="59.9769398" lon="17.7392786">
        <ele>39.0707</ele>
        <time>2013-04-01T18:21:13Z</time>
      </trkpt>
      <trkpt lat="59.9769527" lon="17.7392676">
        <ele>39.0707</ele>
        <time>2013-04-01T18:21:14Z</time>
      </trkpt>
      <trkpt lat="59.9769659" lon="17.7392555">
        <ele>39.0707</ele>
        <time>2013-04-01T18:21:15Z</time>
      </trkpt>
      <trkpt lat="59.9769789" lon="17.7392474">
        <ele>39.5513</ele>
        <time>2013-04-01T18:21:16Z</time>
      </trkpt>
      <trkpt lat="59.9769904" lon="17.7392314">
        <ele>39.0707</ele>
        <time>2013-04-01T18:21:17Z</time>
      </trkpt>
      <trkpt lat="59.9770007" lon="17.7392199">
        <ele>39.0707</ele>
        <time>2013-04-01T18:21:18Z</time>
      </trkpt>
      <trkpt lat="59.977013" lon="17.7392196">
        <ele>39.0707</ele>
        <time>2013-04-01T18:21:19Z</time>
      </trkpt>
      <trkpt lat="59.9770215" lon="17.7392139">
        <ele>39.0707</ele>
        <time>2013-04-01T18:21:20Z</time>
      </trkpt>
      <trkpt lat="59.9770338" lon="17.7392139">
        <ele>39.0707</ele>
        <time>2013-04-01T18:21:21Z</time>
      </trkpt>
      <trkpt lat="59.9770462" lon="17.7392029">
        <ele>39.0707</ele>
        <time>2013-04-01T18:21:22Z</time>
      </trkpt>
      <trkpt lat="59.9770596" lon="17.7391953">
        <ele>39.5513</ele>
        <time>2013-04-01T18:21:23Z</time>
      </trkpt>
      <trkpt lat="59.9770723" lon="17.7391911">
        <ele>39.5513</ele>
        <time>2013-04-01T18:21:24Z</time>
      </trkpt>
      <trkpt lat="59.9770852" lon="17.7391892">
        <ele>39.0707</ele>
        <time>2013-04-01T18:21:25Z</time>
      </trkpt>
      <trkpt lat="59.9770961" lon="17.7391855">
        <ele>39.0707</ele>
        <time>2013-04-01T18:21:26Z</time>
      </trkpt>
      <trkpt lat="59.9771047" lon="17.7391808">
        <ele>38.5901</ele>
        <time>2013-04-01T18:21:27Z</time>
      </trkpt>
      <trkpt lat="59.9771142" lon="17.7391745">
        <ele>38.5901</ele>
        <time>2013-04-01T18:21:28Z</time>
      </trkpt>
      <trkpt lat="59.9771255" lon="17.7391679">
        <ele>39.0707</ele>
        <time>2013-04-01T18:21:29Z</time>
      </trkpt>
      <trkpt lat="59.9771391" lon="17.7391707">
        <ele>39.0707</ele>
        <time>2013-04-01T18:21:30Z</time>
      </trkpt>
      <trkpt lat="59.977152" lon="17.7391684">
        <ele>39.0707</ele>
        <time>2013-04-01T18:21:31Z</time>
      </trkpt>
      <trkpt lat="59.9771646" lon="17.739165">
        <ele>39.0707</ele>
        <time>2013-04-01T18:21:32Z</time>
      </trkpt>
      <trkpt lat="59.9771764" lon="17.7391574">
        <ele>39.0707</ele>
        <time>2013-04-01T18:21:33Z</time>
      </trkpt>
      <trkpt lat="59.9771874" lon="17.7391502">
        <ele>39.5513</ele>
        <time>2013-04-01T18:21:34Z</time>
      </trkpt>
      <trkpt lat="59.9771971" lon="17.739144">
        <ele>39.5513</ele>
        <time>2013-04-01T18:21:35Z</time>
      </trkpt>
      <trkpt lat="59.9772045" lon="17.7391369">
        <ele>39.5513</ele>
        <time>2013-04-01T18:21:36Z</time>
      </trkpt>
      <trkpt lat="59.9772116" lon="17.7391324">
        <ele>39.5513</ele>
        <time>2013-04-01T18:21:37Z</time>
      </trkpt>
      <trkpt lat="59.9772194" lon="17.7391253">
        <ele>40.0321</ele>
        <time>2013-04-01T18:21:38Z</time>
      </trkpt>
      <trkpt lat="59.9772287" lon="17.7391176">
        <ele>40.0321</ele>
        <time>2013-04-01T18:21:39Z</time>
      </trkpt>
      <trkpt lat="59.9772402" lon="17.7391089">
        <ele>40.0321</ele>
        <time>2013-04-01T18:21:40Z</time>
      </trkpt>
      <trkpt lat="59.9772503" lon="17.7391021">
        <ele>40.5128</ele>
        <time>2013-04-01T18:21:41Z</time>
      </trkpt>
      <trkpt lat="59.9772596" lon="17.7390957">
        <ele>40.5128</ele>
        <time>2013-04-01T18:21:42Z</time>
      </trkpt>
      <trkpt lat="59.977268" lon="17.7390891">
        <ele>40.9934</ele>
        <time>2013-04-01T18:21:43Z</time>
      </trkpt>
      <trkpt lat="59.9772789" lon="17.7390904">
        <ele>40.5128</ele>
        <time>2013-04-01T18:21:44Z</time>
      </trkpt>
      <trkpt lat="59.9772871" lon="17.7390845">
        <ele>40.5128</ele>
        <time>2013-04-01T18:21:45Z</time>
      </trkpt>
      <trkpt lat="59.9772975" lon="17.7390832">
        <ele>40.5128</ele>
        <time>2013-04-01T18:21:46Z</time>
      </trkpt>
      <trkpt lat="59.9773073" lon="17.7390825">
        <ele>40.9934</ele>
        <time>2013-04-01T18:21:47Z</time>
      </trkpt>
      <trkpt lat="59.9773162" lon="17.7390761">
        <ele>40.9934</ele>
        <time>2013-04-01T18:21:48Z</time>
      </trkpt>
      <trkpt lat="59.9773262" lon="17.7390725">
        <ele>40.9934</ele>
        <time>2013-04-01T18:21:49Z</time>
      </trkpt>
      <trkpt lat="59.9773362" lon="17.7390703">
        <ele>40.9934</ele>
        <time>2013-04-01T18:21:50Z</time>
      </trkpt>
      <trkpt lat="59.9773448" lon="17.7390619">
        <ele>41.474</ele>
        <time>2013-04-01T18:21:51Z</time>
      </trkpt>
      <trkpt lat="59.9773541" lon="17.7390575">
        <ele>41.474</ele>
        <time>2013-04-01T18:21:52Z</time>
      </trkpt>
      <trkpt lat="59.9773625" lon="17.7390554">
        <ele>41.474</ele>
        <time>2013-04-01T18:21:53Z</time>
      </trkpt>
      <trkpt lat="59.9773713" lon="17.7390549">
        <ele>41.9547</ele>
        <time>2013-04-01T18:21:54Z</time>
      </trkpt>
      <trkpt lat="59.9773806" lon="17.739056">
        <ele>41.474</ele>
        <time>2013-04-01T18:21:55Z</time>
      </trkpt>
      <trkpt lat="59.9773898" lon="17.7390557">
        <ele>41.474</ele>
        <time>2013-04-01T18:21:56Z</time>
      </trkpt>
      <trkpt lat="59.9773992" lon="17.7390532">
        <ele>41.474</ele>
        <time>2013-04-01T18:21:57Z</time>
      </trkpt>
      <trkpt lat="59.9774095" lon="17.7390492">
        <ele>40.9934</ele>
        <time>2013-04-01T18:21:58Z</time>
      </trkpt>
      <trkpt lat="59.9774196" lon="17.7390447">
        <ele>40.9934</ele>
        <time>2013-04-01T18:21:59Z</time>
      </trkpt>
      <trkpt lat="59.97743" lon="17.7390402">
        <ele>40.9934</ele>
        <time>2013-04-01T18:22:00Z</time>
      </trkpt>
      <trkpt lat="59.9774406" lon="17.7390351">
        <ele>40.9934</ele>
        <time>2013-04-01T18:22:01Z</time>
      </trkpt>
      <trkpt lat="59.9774518" lon="17.73903">
        <ele>41.474</ele>
        <time>2013-04-01T18:22:02Z</time>
      </trkpt>
      <trkpt lat="59.9774628" lon="17.7390233">
        <ele>41.474</ele>
        <time>2013-04-01T18:22:03Z</time>
      </trkpt>
      <trkpt lat="59.9774746" lon="17.7390169">
        <ele>41.474</ele>
        <time>2013-04-01T18:22:04Z</time>
      </trkpt>
      <trkpt lat="59.977483" lon="17.7390113">
        <ele>41.474</ele>
        <time>2013-04-01T18:22:05Z</time>
      </trkpt>
      <trkpt lat="59.9774959" lon="17.7390067">
        <ele>40.9934</ele>
        <time>2013-04-01T18:22:06Z</time>
      </trkpt>
      <trkpt lat="59.9775104" lon="17.7390017">
        <ele>40.9934</ele>
        <time>2013-04-01T18:22:07Z</time>
      </trkpt>
      <trkpt lat="59.9775204" lon="17.7389967">
        <ele>40.9934</ele>
        <time>2013-04-01T18:22:08Z</time>
      </trkpt>
      <trkpt lat="59.9775297" lon="17.738992">
        <ele>40.9934</ele>
        <time>2013-04-01T18:22:09Z</time>
      </trkpt>
      <trkpt lat="59.9775415" lon="17.7389894">
        <ele>40.9934</ele>
        <time>2013-04-01T18:22:10Z</time>
      </trkpt>
      <trkpt lat="59.9775524" lon="17.7389876">
        <ele>40.9934</ele>
        <time>2013-04-01T18:22:11Z</time>
      </trkpt>
      <trkpt lat="59.9775642" lon="17.7389851">
        <ele>40.9934</ele>
        <time>2013-04-01T18:22:12Z</time>
      </trkpt>
      <trkpt lat="59.9775763" lon="17.7389833">
        <ele>40.9934</ele>
        <time>2013-04-01T18:22:13Z</time>
      </trkpt>
      <trkpt lat="59.9775872" lon="17.7389822">
        <ele>40.9934</ele>
        <time>2013-04-01T18:22:14Z</time>
      </trkpt>
      <trkpt lat="59.9775974" lon="17.7389823">
        <ele>40.9934</ele>
        <time>2013-04-01T18:22:15Z</time>
      </trkpt>
      <trkpt lat="59.9776074" lon="17.738984">
        <ele>41.474</ele>
        <time>2013-04-01T18:22:16Z</time>
      </trkpt>
      <trkpt lat="59.9776183" lon="17.7389856">
        <ele>41.474</ele>
        <time>2013-04-01T18:22:17Z</time>
      </trkpt>
      <trkpt lat="59.9776301" lon="17.7389866">
        <ele>41.474</ele>
        <time>2013-04-01T18:22:18Z</time>
      </trkpt>
      <trkpt lat="59.9776415" lon="17.7389881">
        <ele>41.474</ele>
        <time>2013-04-01T18:22:19Z</time>
      </trkpt>
      <trkpt lat="59.9776526" lon="17.7389891">
        <ele>41.474</ele>
        <time>2013-04-01T18:22:20Z</time>
      </trkpt>
      <trkpt lat="59.9776645" lon="17.7389902">
        <ele>41.9547</ele>
        <time>2013-04-01T18:22:21Z</time>
      </trkpt>
      <trkpt lat="59.9776763" lon="17.7389926">
        <ele>41.9547</ele>
        <time>2013-04-01T18:22:22Z</time>
      </trkpt>
      <trkpt lat="59.977689" lon="17.7389915">
        <ele>41.9547</ele>
        <time>2013-04-01T18:22:23Z</time>
      </trkpt>
      <trkpt lat="59.9777043" lon="17.7389917">
        <ele>42.4354</ele>
        <time>2013-04-01T18:22:24Z</time>
      </trkpt>
      <trkpt lat="59.977716" lon="17.7389903">
        <ele>41.9547</ele>
        <time>2013-04-01T18:22:25Z</time>
      </trkpt>
      <trkpt lat="59.9777251" lon="17.7389907">
        <ele>41.9547</ele>
        <time>2013-04-01T18:22:26Z</time>
      </trkpt>
      <trkpt lat="59.9777353" lon="17.7389926">
        <ele>42.4354</ele>
        <time>2013-04-01T18:22:27Z</time>
      </trkpt>
      <trkpt lat="59.9777458" lon="17.7389953">
        <ele>41.9547</ele>
        <time>2013-04-01T18:22:28Z</time>
      </trkpt>
      <trkpt lat="59.9777555" lon="17.7389991">
        <ele>41.9547</ele>
        <time>2013-04-01T18:22:29Z</time>
      </trkpt>
      <trkpt lat="59.9777659" lon="17.7390042">
        <ele>41.9547</ele>
        <time>2013-04-01T18:22:30Z</time>
      </trkpt>
      <trkpt lat="59.9777737" lon="17.7390091">
        <ele>41.9547</ele>
        <time>2013-04-01T18:22:31Z</time>
      </trkpt>
      <trkpt lat="59.9777852" lon="17.7390123">
        <ele>42.4354</ele>
        <time>2013-04-01T18:22:32Z</time>
      </trkpt>
      <trkpt lat="59.9777988" lon="17.7390164">
        <ele>42.4354</ele>
        <time>2013-04-01T18:22:33Z</time>
      </trkpt>
      <trkpt lat="59.9778116" lon="17.7390208">
        <ele>42.916</ele>
        <time>2013-04-01T18:22:34Z</time>
      </trkpt>
      <trkpt lat="59.9778229" lon="17.7390259">
        <ele>42.916</ele>
        <time>2013-04-01T18:22:35Z</time>
      </trkpt>
      <trkpt lat="59.9778349" lon="17.7390294">
        <ele>43.3966</ele>
        <time>2013-04-01T18:22:36Z</time>
      </trkpt>
      <trkpt lat="59.9778446" lon="17.7390369">
        <ele>43.3966</ele>
        <time>2013-04-01T18:22:37Z</time>
      </trkpt>
      <trkpt lat="59.9778571" lon="17.7390462">
        <ele>43.3966</ele>
        <time>2013-04-01T18:22:38Z</time>
      </trkpt>
      <trkpt lat="59.9778695" lon="17.7390548">
        <ele>43.3966</ele>
        <time>2013-04-01T18:22:39Z</time>
      </trkpt>
      <trkpt lat="59.9778805" lon="17.7390602">
        <ele>43.3966</ele>
        <time>2013-04-01T18:22:40Z</time>
      </trkpt>
      <trkpt lat="59.9778897" lon="17.7390663">
        <ele>44.358</ele>
        <time>2013-04-01T18:22:41Z</time>
      </trkpt>
      <trkpt lat="59.9779005" lon="17.7390754">
        <ele>44.8386</ele>
        <time>2013-04-01T18:22:42Z</time>
      </trkpt>
      <trkpt lat="59.9779119" lon="17.7390813">
        <ele>44.8386</ele>
        <time>2013-04-01T18:22:43Z</time>
      </trkpt>
      <trkpt lat="59.9779211" lon="17.7390823">
        <ele>44.358</ele>
        <time>2013-04-01T18:22:44Z</time>
      </trkpt>
      <trkpt lat="59.9779323" lon="17.7390834">
        <ele>43.8773</ele>
        <time>2013-04-01T18:22:45Z</time>
      </trkpt>
      <trkpt lat="59.9779416" lon="17.7390832">
        <ele>43.8773</ele>
        <time>2013-04-01T18:22:46Z</time>
      </trkpt>
      <trkpt lat="59.977947" lon="17.7390783">
        <ele>42.4354</ele>
        <time>2013-04-01T18:22:47Z</time>
      </trkpt>
      <trkpt lat="59.9779617" lon="17.7390697">
        <ele>43.8773</ele>
        <time>2013-04-01T18:22:48Z</time>
      </trkpt>
      <trkpt lat="59.9779745" lon="17.7390763">
        <ele>43.8773</ele>
        <time>2013-04-01T18:22:49Z</time>
      </trkpt>
      <trkpt lat="59.9779848" lon="17.7390854">
        <ele>42.916</ele>
        <time>2013-04-01T18:22:50Z</time>
      </trkpt>
      <trkpt lat="59.9779983" lon="17.7390956">
        <ele>42.4354</ele>
        <time>2013-04-01T18:22:51Z</time>
      </trkpt>
      <trkpt lat="59.9780087" lon="17.7391029">
        <ele>42.4354</ele>
        <time>2013-04-01T18:22:52Z</time>
      </trkpt>
      <trkpt lat="59.978015" lon="17.7391117">
        <ele>42.4354</ele>
        <time>2013-04-01T18:22:53Z</time>
      </trkpt>
      <trkpt lat="59.9780223" lon="17.7391279">
        <ele>43.3966</ele>
        <time>2013-04-01T18:22:54Z</time>
      </trkpt>
      <trkpt lat="59.9780353" lon="17.7391338">
        <ele>43.3966</ele>
        <time>2013-04-01T18:22:55Z</time>
      </trkpt>
      <trkpt lat="59.9780464" lon="17.7391352">
        <ele>43.3966</ele>
        <time>2013-04-01T18:22:56Z</time>
      </trkpt>
      <trkpt lat="59.9780617" lon="17.7391404">
        <ele>43.3966</ele>
        <time>2013-04-01T18:22:57Z</time>
      </trkpt>
      <trkpt lat="59.9780701" lon="17.7391424">
        <ele>43.8773</ele>
        <time>2013-04-01T18:22:58Z</time>
      </trkpt>
      <trkpt lat="59.9780762" lon="17.7391486">
        <ele>43.8773</ele>
        <time>2013-04-01T18:22:59Z</time>
      </trkpt>
      <trkpt lat="59.9780871" lon="17.7391476">
        <ele>43.8773</ele>
        <time>2013-04-01T18:23:00Z</time>
      </trkpt>
      <trkpt lat="59.9780972" lon="17.7391559">
        <ele>42.916</ele>
        <time>2013-04-01T18:23:01Z</time>
      </trkpt>
      <trkpt lat="59.9781131" lon="17.7391668">
        <ele>42.4354</ele>
        <time>2013-04-01T18:23:02Z</time>
      </trkpt>
      <trkpt lat="59.9781254" lon="17.7391669">
        <ele>42.4354</ele>
        <time>2013-04-01T18:23:03Z</time>
      </trkpt>
      <trkpt lat="59.9781398" lon="17.7391683">
        <ele>42.916</ele>
        <time>2013-04-01T18:23:04Z</time>
      </trkpt>
      <trkpt lat="59.9781544" lon="17.7391708">
        <ele>42.4354</ele>
        <time>2013-04-01T18:23:05Z</time>
      </trkpt>
      <trkpt lat="59.9781714" lon="17.7391804">
        <ele>42.4354</ele>
        <time>2013-04-01T18:23:06Z</time>
      </trkpt>
      <trkpt lat="59.9781819" lon="17.7391823">
        <ele>42.916</ele>
        <time>2013-04-01T18:23:07Z</time>
      </trkpt>
      <trkpt lat="59.9781926" lon="17.7391814">
        <ele>42.916</ele>
        <time>2013-04-01T18:23:08Z</time>
      </trkpt>
      <trkpt lat="59.9782055" lon="17.7391845">
        <ele>42.4354</ele>
        <time>2013-04-01T18:23:09Z</time>
      </trkpt>
      <trkpt lat="59.9782182" lon="17.7391883">
        <ele>42.4354</ele>
        <time>2013-04-01T18:23:10Z</time>
      </trkpt>
      <trkpt lat="59.9782314" lon="17.7391944">
        <ele>41.9547</ele>
        <time>2013-04-01T18:23:11Z</time>
      </trkpt>
      <trkpt lat="59.9782454" lon="17.7392005">
        <ele>41.9547</ele>
        <time>2013-04-01T18:23:12Z</time>
      </trkpt>
      <trkpt lat="59.9782586" lon="17.7392067">
        <ele>41.9547</ele>
        <time>2013-04-01T18:23:13Z</time>
      </trkpt>
      <trkpt lat="59.978272" lon="17.7392139">
        <ele>41.474</ele>
        <time>2013-04-01T18:23:14Z</time>
      </trkpt>
      <trkpt lat="59.9782844" lon="17.7392186">
        <ele>41.474</ele>
        <time>2013-04-01T18:23:15Z</time>
      </trkpt>
      <trkpt lat="59.9782963" lon="17.7392192">
        <ele>41.474</ele>
        <time>2013-04-01T18:23:16Z</time>
      </trkpt>
      <trkpt lat="59.9783089" lon="17.7392248">
        <ele>41.9547</ele>
        <time>2013-04-01T18:23:17Z</time>
      </trkpt>
      <trkpt lat="59.9783223" lon="17.7392296">
        <ele>42.4354</ele>
        <time>2013-04-01T18:23:18Z</time>
      </trkpt>
      <trkpt lat="59.9783374" lon="17.7392336">
        <ele>42.916</ele>
        <time>2013-04-01T18:23:19Z</time>
      </trkpt>
      <trkpt lat="59.9783519" lon="17.739228">
        <ele>42.916</ele>
        <time>2013-04-01T18:23:20Z</time>
      </trkpt>
      <trkpt lat="59.9783667" lon="17.73923">
        <ele>42.916</ele>
        <time>2013-04-01T18:23:21Z</time>
      </trkpt>
      <trkpt lat="59.9783804" lon="17.7392342">
        <ele>42.916</ele>
        <time>2013-04-01T18:23:22Z</time>
      </trkpt>
      <trkpt lat="59.9783938" lon="17.7392351">
        <ele>42.916</ele>
        <time>2013-04-01T18:23:23Z</time>
      </trkpt>
      <trkpt lat="59.9784045" lon="17.7392351">
        <ele>42.4354</ele>
        <time>2013-04-01T18:23:24Z</time>
      </trkpt>
      <trkpt lat="59.9784134" lon="17.7392357">
        <ele>41.9547</ele>
        <time>2013-04-01T18:23:25Z</time>
      </trkpt>
      <trkpt lat="59.9784225" lon="17.7392356">
        <ele>41.474</ele>
        <time>2013-04-01T18:23:26Z</time>
      </trkpt>
      <trkpt lat="59.9784315" lon="17.7392376">
        <ele>40.9934</ele>
        <time>2013-04-01T18:23:27Z</time>
      </trkpt>
      <trkpt lat="59.9784412" lon="17.7392403">
        <ele>40.9934</ele>
        <time>2013-04-01T18:23:28Z</time>
      </trkpt>
      <trkpt lat="59.978449" lon="17.7392422">
        <ele>40.5128</ele>
        <time>2013-04-01T18:23:29Z</time>
      </trkpt>
      <trkpt lat="59.9784564" lon="17.7392471">
        <ele>40.5128</ele>
        <time>2013-04-01T18:23:30Z</time>
      </trkpt>
      <trkpt lat="59.9784678" lon="17.739244">
        <ele>40.5128</ele>
        <time>2013-04-01T18:23:31Z</time>
      </trkpt>
      <trkpt lat="59.9784808" lon="17.7392543">
        <ele>40.0321</ele>
        <time>2013-04-01T18:23:32Z</time>
      </trkpt>
      <trkpt lat="59.9784932" lon="17.7392614">
        <ele>40.0321</ele>
        <time>2013-04-01T18:23:33Z</time>
      </trkpt>
      <trkpt lat="59.978506" lon="17.7392698">
        <ele>39.5513</ele>
        <time>2013-04-01T18:23:34Z</time>
      </trkpt>
      <trkpt lat="59.9785197" lon="17.7392771">
        <ele>39.5513</ele>
        <time>2013-04-01T18:23:35Z</time>
      </trkpt>
      <trkpt lat="59.978533" lon="17.7392839">
        <ele>39.0707</ele>
        <time>2013-04-01T18:23:36Z</time>
      </trkpt>
      <trkpt lat="59.9785403" lon="17.7392829">
        <ele>39.0707</ele>
        <time>2013-04-01T18:23:37Z</time>
      </trkpt>
      <trkpt lat="59.9785522" lon="17.7392839">
        <ele>39.0707</ele>
        <time>2013-04-01T18:23:38Z</time>
      </trkpt>
      <trkpt lat="59.978565" lon="17.7392855">
        <ele>39.0707</ele>
        <time>2013-04-01T18:23:39Z</time>
      </trkpt>
      <trkpt lat="59.9785786" lon="17.7392897">
        <ele>38.5901</ele>
        <time>2013-04-01T18:23:40Z</time>
      </trkpt>
      <trkpt lat="59.9785868" lon="17.7392926">
        <ele>38.5901</ele>
        <time>2013-04-01T18:23:41Z</time>
      </trkpt>
      <trkpt lat="59.9785968" lon="17.7392968">
        <ele>38.5901</ele>
        <time>2013-04-01T18:23:42Z</time>
      </trkpt>
      <trkpt lat="59.9786056" lon="17.7393004">
        <ele>39.0707</ele>
        <time>2013-04-01T18:23:43Z</time>
      </trkpt>
      <trkpt lat="59.9786165" lon="17.7393037">
        <ele>39.5513</ele>
        <time>2013-04-01T18:23:44Z</time>
      </trkpt>
      <trkpt lat="59.9786303" lon="17.7393086">
        <ele>40.0321</ele>
        <time>2013-04-01T18:23:45Z</time>
      </trkpt>
      <trkpt lat="59.9786429" lon="17.7393035">
        <ele>41.474</ele>
        <time>2013-04-01T18:23:46Z</time>
      </trkpt>
      <trkpt lat="59.9786527" lon="17.7393044">
        <ele>40.5128</ele>
        <time>2013-04-01T18:23:47Z</time>
      </trkpt>
      <trkpt lat="59.9786687" lon="17.7392927">
        <ele>38.5901</ele>
        <time>2013-04-01T18:23:48Z</time>
      </trkpt>
      <trkpt lat="59.9786787" lon="17.7392985">
        <ele>39.0707</ele>
        <time>2013-04-01T18:23:49Z</time>
      </trkpt>
      <trkpt lat="59.978691" lon="17.7392968">
        <ele>38.1094</ele>
        <time>2013-04-01T18:23:50Z</time>
      </trkpt>
      <trkpt lat="59.9787077" lon="17.7392997">
        <ele>38.1094</ele>
        <time>2013-04-01T18:23:51Z</time>
      </trkpt>
      <trkpt lat="59.9787167" lon="17.7393046">
        <ele>36.6675</ele>
        <time>2013-04-01T18:23:52Z</time>
      </trkpt>
      <trkpt lat="59.978732" lon="17.7393103">
        <ele>36.1868</ele>
        <time>2013-04-01T18:23:53Z</time>
      </trkpt>
      <trkpt lat="59.9787486" lon="17.7393127">
        <ele>36.6675</ele>
        <time>2013-04-01T18:23:54Z</time>
      </trkpt>
      <trkpt lat="59.9787629" lon="17.739315">
        <ele>36.6675</ele>
        <time>2013-04-01T18:23:55Z</time>
      </trkpt>
      <trkpt lat="59.9787748" lon="17.7393178">
        <ele>36.6675</ele>
        <time>2013-04-01T18:23:56Z</time>
      </trkpt>
      <trkpt lat="59.9787893" lon="17.7393143">
        <ele>38.1094</ele>
        <time>2013-04-01T18:23:57Z</time>
      </trkpt>
      <trkpt lat="59.9787983" lon="17.7393101">
        <ele>38.5901</ele>
        <time>2013-04-01T18:23:58Z</time>
      </trkpt>
      <trkpt lat="59.9788118" lon="17.7393059">
        <ele>39.0707</ele>
        <time>2013-04-01T18:23:59Z</time>
      </trkpt>
      <trkpt lat="59.9788236" lon="17.739304">
        <ele>38.5901</ele>
        <time>2013-04-01T18:24:00Z</time>
      </trkpt>
      <trkpt lat="59.9788339" lon="17.7393028">
        <ele>38.1094</ele>
        <time>2013-04-01T18:24:01Z</time>
      </trkpt>
      <trkpt lat="59.9788404" lon="17.7393023">
        <ele>37.6287</ele>
        <time>2013-04-01T18:24:02Z</time>
      </trkpt>
      <trkpt lat="59.9788522" lon="17.739303">
        <ele>37.1481</ele>
        <time>2013-04-01T18:24:03Z</time>
      </trkpt>
      <trkpt lat="59.9788651" lon="17.7393039">
        <ele>37.1481</ele>
        <time>2013-04-01T18:24:04Z</time>
      </trkpt>
      <trkpt lat="59.9788784" lon="17.7393052">
        <ele>37.1481</ele>
        <time>2013-04-01T18:24:05Z</time>
      </trkpt>
      <trkpt lat="59.978892" lon="17.7393072">
        <ele>37.6287</ele>
        <time>2013-04-01T18:24:06Z</time>
      </trkpt>
      <trkpt lat="59.9789035" lon="17.7393093">
        <ele>37.6287</ele>
        <time>2013-04-01T18:24:07Z</time>
      </trkpt>
      <trkpt lat="59.9789183" lon="17.7393097">
        <ele>37.6287</ele>
        <time>2013-04-01T18:24:08Z</time>
      </trkpt>
      <trkpt lat="59.978931" lon="17.7393114">
        <ele>37.6287</ele>
        <time>2013-04-01T18:24:09Z</time>
      </trkpt>
      <trkpt lat="59.9789431" lon="17.7393118">
        <ele>37.6287</ele>
        <time>2013-04-01T18:24:10Z</time>
      </trkpt>
      <trkpt lat="59.9789542" lon="17.7393085">
        <ele>37.6287</ele>
        <time>2013-04-01T18:24:11Z</time>
      </trkpt>
      <trkpt lat="59.9789673" lon="17.7393021">
        <ele>38.1094</ele>
        <time>2013-04-01T18:24:12Z</time>
      </trkpt>
      <trkpt lat="59.9789775" lon="17.739294">
        <ele>38.1094</ele>
        <time>2013-04-01T18:24:13Z</time>
      </trkpt>
      <trkpt lat="59.9789915" lon="17.7392922">
        <ele>38.5901</ele>
        <time>2013-04-01T18:24:14Z</time>
      </trkpt>
      <trkpt lat="59.9790037" lon="17.73929">
        <ele>38.5901</ele>
        <time>2013-04-01T18:24:15Z</time>
      </trkpt>
      <trkpt lat="59.9790158" lon="17.7392849">
        <ele>39.0707</ele>
        <time>2013-04-01T18:24:16Z</time>
      </trkpt>
      <trkpt lat="59.9790278" lon="17.7392787">
        <ele>39.0707</ele>
        <time>2013-04-01T18:24:17Z</time>
      </trkpt>
      <trkpt lat="59.9790401" lon="17.7392749">
        <ele>39.5513</ele>
        <time>2013-04-01T18:24:18Z</time>
      </trkpt>
      <trkpt lat="59.9790519" lon="17.7392714">
        <ele>39.5513</ele>
        <time>2013-04-01T18:24:19Z</time>
      </trkpt>
      <trkpt lat="59.979065" lon="17.7392674">
        <ele>40.0321</ele>
        <time>2013-04-01T18:24:20Z</time>
      </trkpt>
      <trkpt lat="59.9790774" lon="17.7392635">
        <ele>40.0321</ele>
        <time>2013-04-01T18:24:21Z</time>
      </trkpt>
      <trkpt lat="59.9790894" lon="17.7392572">
        <ele>40.5128</ele>
        <time>2013-04-01T18:24:22Z</time>
      </trkpt>
      <trkpt lat="59.9791016" lon="17.7392523">
        <ele>40.9934</ele>
        <time>2013-04-01T18:24:23Z</time>
      </trkpt>
      <trkpt lat="59.9791143" lon="17.7392526">
        <ele>40.9934</ele>
        <time>2013-04-01T18:24:24Z</time>
      </trkpt>
      <trkpt lat="59.9791263" lon="17.7392516">
        <ele>41.474</ele>
        <time>2013-04-01T18:24:25Z</time>
      </trkpt>
      <trkpt lat="59.9791398" lon="17.7392467">
        <ele>41.474</ele>
        <time>2013-04-01T18:24:26Z</time>
      </trkpt>
      <trkpt lat="59.9791521" lon="17.7392397">
        <ele>41.9547</ele>
        <time>2013-04-01T18:24:27Z</time>
      </trkpt>
      <trkpt lat="59.9791636" lon="17.739234">
        <ele>41.9547</ele>
        <time>2013-04-01T18:24:28Z</time>
      </trkpt>
      <trkpt lat="59.9791749" lon="17.7392285">
        <ele>41.9547</ele>
        <time>2013-04-01T18:24:29Z</time>
      </trkpt>
      <trkpt lat="59.9791868" lon="17.7392211">
        <ele>42.4354</ele>
        <time>2013-04-01T18:24:30Z</time>
      </trkpt>
      <trkpt lat="59.9791987" lon="17.7392129">
        <ele>42.4354</ele>
        <time>2013-04-01T18:24:31Z</time>
      </trkpt>
      <trkpt lat="59.9792109" lon="17.7392058">
        <ele>42.916</ele>
        <time>2013-04-01T18:24:32Z</time>
      </trkpt>
      <trkpt lat="59.9792232" lon="17.7391989">
        <ele>42.916</ele>
        <time>2013-04-01T18:24:33Z</time>
      </trkpt>
      <trkpt lat="59.9792358" lon="17.7391923">
        <ele>42.916</ele>
        <time>2013-04-01T18:24:34Z</time>
      </trkpt>
      <trkpt lat="59.9792488" lon="17.7391865">
        <ele>43.3966</ele>
        <time>2013-04-01T18:24:35Z</time>
      </trkpt>
      <trkpt lat="59.9792617" lon="17.7391818">
        <ele>43.3966</ele>
        <time>2013-04-01T18:24:36Z</time>
      </trkpt>
      <trkpt lat="59.9792741" lon="17.7391778">
        <ele>43.3966</ele>
        <time>2013-04-01T18:24:37Z</time>
      </trkpt>
      <trkpt lat="59.9792852" lon="17.7391735">
        <ele>43.3966</ele>
        <time>2013-04-01T18:24:38Z</time>
      </trkpt>
      <trkpt lat="59.9792961" lon="17.7391676">
        <ele>43.3966</ele>
        <time>2013-04-01T18:24:39Z</time>
      </trkpt>
      <trkpt lat="59.9793076" lon="17.7391594">
        <ele>43.3966</ele>
        <time>2013-04-01T18:24:40Z</time>
      </trkpt>
      <trkpt lat="59.979319" lon="17.7391511">
        <ele>43.8773</ele>
        <time>2013-04-01T18:24:41Z</time>
      </trkpt>
      <trkpt lat="59.9793312" lon="17.7391444">
        <ele>43.8773</ele>
        <time>2013-04-01T18:24:42Z</time>
      </trkpt>
      <trkpt lat="59.9793427" lon="17.7391399">
        <ele>43.8773</ele>
        <time>2013-04-01T18:24:43Z</time>
      </trkpt>
      <trkpt lat="59.9793534" lon="17.7391402">
        <ele>43.8773</ele>
        <time>2013-04-01T18:24:44Z</time>
      </trkpt>
      <trkpt lat="59.9793624" lon="17.7391428">
        <ele>43.8773</ele>
        <time>2013-04-01T18:24:45Z</time>
      </trkpt>
      <trkpt lat="59.9793637" lon="17.7391448">
        <ele>43.3966</ele>
        <time>2013-04-01T18:24:46Z</time>
      </trkpt>
      <trkpt lat="59.979354" lon="17.7391444">
        <ele>42.916</ele>
        <time>2013-04-01T18:24:47Z</time>
      </trkpt>
      <trkpt lat="59.9793402" lon="17.7391435">
        <ele>41.9547</ele>
        <time>2013-04-01T18:24:48Z</time>
      </trkpt>
      <trkpt lat="59.9793268" lon="17.7391464">
        <ele>41.9547</ele>
        <time>2013-04-01T18:24:49Z</time>
      </trkpt>
      <trkpt lat="59.9793148" lon="17.7391538">
        <ele>41.474</ele>
        <time>2013-04-01T18:24:50Z</time>
      </trkpt>
      <trkpt lat="59.9793033" lon="17.7391617">
        <ele>41.474</ele>
        <time>2013-04-01T18:24:51Z</time>
      </trkpt>
      <trkpt lat="59.9792929" lon="17.7391668">
        <ele>41.474</ele>
        <time>2013-04-01T18:24:52Z</time>
      </trkpt>
      <trkpt lat="59.9792811" lon="17.7391725">
        <ele>40.9934</ele>
        <time>2013-04-01T18:24:53Z</time>
      </trkpt>
      <trkpt lat="59.9792681" lon="17.7391782">
        <ele>40.9934</ele>
        <time>2013-04-01T18:24:54Z</time>
      </trkpt>
      <trkpt lat="59.9792552" lon="17.7391817">
        <ele>40.9934</ele>
        <time>2013-04-01T18:24:55Z</time>
      </trkpt>
      <trkpt lat="59.9792418" lon="17.739186">
        <ele>40.5128</ele>
        <time>2013-04-01T18:24:56Z</time>
      </trkpt>
      <trkpt lat="59.9792303" lon="17.7391889">
        <ele>40.5128</ele>
        <time>2013-04-01T18:24:57Z</time>
      </trkpt>
      <trkpt lat="59.9792194" lon="17.7391902">
        <ele>40.5128</ele>
        <time>2013-04-01T18:24:58Z</time>
      </trkpt>
      <trkpt lat="59.9792081" lon="17.73919">
        <ele>40.0321</ele>
        <time>2013-04-01T18:24:59Z</time>
      </trkpt>
      <trkpt lat="59.9791972" lon="17.7391899">
        <ele>40.5128</ele>
        <time>2013-04-01T18:25:00Z</time>
      </trkpt>
      <trkpt lat="59.9791874" lon="17.7391943">
        <ele>40.0321</ele>
        <time>2013-04-01T18:25:01Z</time>
      </trkpt>
      <trkpt lat="59.9791768" lon="17.7391987">
        <ele>40.0321</ele>
        <time>2013-04-01T18:25:02Z</time>
      </trkpt>
      <trkpt lat="59.9791655" lon="17.7392031">
        <ele>40.0321</ele>
        <time>2013-04-01T18:25:03Z</time>
      </trkpt>
      <trkpt lat="59.9791547" lon="17.7392085">
        <ele>40.0321</ele>
        <time>2013-04-01T18:25:04Z</time>
      </trkpt>
      <trkpt lat="59.9791429" lon="17.7392111">
        <ele>39.5513</ele>
        <time>2013-04-01T18:25:05Z</time>
      </trkpt>
      <trkpt lat="59.9791319" lon="17.7392171">
        <ele>39.5513</ele>
        <time>2013-04-01T18:25:06Z</time>
      </trkpt>
      <trkpt lat="59.9791205" lon="17.7392248">
        <ele>39.0707</ele>
        <time>2013-04-01T18:25:07Z</time>
      </trkpt>
      <trkpt lat="59.979109" lon="17.7392335">
        <ele>39.0707</ele>
        <time>2013-04-01T18:25:08Z</time>
      </trkpt>
      <trkpt lat="59.9790987" lon="17.7392383">
        <ele>39.0707</ele>
        <time>2013-04-01T18:25:09Z</time>
      </trkpt>
      <trkpt lat="59.9790894" lon="17.7392423">
        <ele>38.5901</ele>
        <time>2013-04-01T18:25:10Z</time>
      </trkpt>
      <trkpt lat="59.9790801" lon="17.7392474">
        <ele>38.1094</ele>
        <time>2013-04-01T18:25:11Z</time>
      </trkpt>
      <trkpt lat="59.9790712" lon="17.7392508">
        <ele>38.1094</ele>
        <time>2013-04-01T18:25:12Z</time>
      </trkpt>
      <trkpt lat="59.9790618" lon="17.7392528">
        <ele>38.1094</ele>
        <time>2013-04-01T18:25:13Z</time>
      </trkpt>
      <trkpt lat="59.9790515" lon="17.7392569">
        <ele>38.1094</ele>
        <time>2013-04-01T18:25:14Z</time>
      </trkpt>
      <trkpt lat="59.9790402" lon="17.7392614">
        <ele>37.6287</ele>
        <time>2013-04-01T18:25:15Z</time>
      </trkpt>
      <trkpt lat="59.9790278" lon="17.7392611">
        <ele>38.1094</ele>
        <time>2013-04-01T18:25:16Z</time>
      </trkpt>
      <trkpt lat="59.9790169" lon="17.7392601">
        <ele>37.6287</ele>
        <time>2013-04-01T18:25:17Z</time>
      </trkpt>
      <trkpt lat="59.9790068" lon="17.7392601">
        <ele>37.6287</ele>
        <time>2013-04-01T18:25:18Z</time>
      </trkpt>
      <trkpt lat="59.9789977" lon="17.739265">
        <ele>37.6287</ele>
        <time>2013-04-01T18:25:19Z</time>
      </trkpt>
      <trkpt lat="59.9789905" lon="17.7392668">
        <ele>37.6287</ele>
        <time>2013-04-01T18:25:20Z</time>
      </trkpt>
      <trkpt lat="59.9789809" lon="17.7392703">
        <ele>37.6287</ele>
        <time>2013-04-01T18:25:21Z</time>
      </trkpt>
      <trkpt lat="59.9789708" lon="17.7392756">
        <ele>37.1481</ele>
        <time>2013-04-01T18:25:22Z</time>
      </trkpt>
      <trkpt lat="59.9789608" lon="17.7392795">
        <ele>37.1481</ele>
        <time>2013-04-01T18:25:23Z</time>
      </trkpt>
      <trkpt lat="59.9789505" lon="17.7392873">
        <ele>36.6675</ele>
        <time>2013-04-01T18:25:24Z</time>
      </trkpt>
      <trkpt lat="59.9789418" lon="17.7392922">
        <ele>36.1868</ele>
        <time>2013-04-01T18:25:25Z</time>
      </trkpt>
      <trkpt lat="59.9789356" lon="17.7393134">
        <ele>35.2255</ele>
        <time>2013-04-01T18:25:26Z</time>
      </trkpt>
      <trkpt lat="59.9789371" lon="17.7393357">
        <ele>34.7449</ele>
        <time>2013-04-01T18:25:27Z</time>
      </trkpt>
      <trkpt lat="59.978935" lon="17.739362">
        <ele>34.7449</ele>
        <time>2013-04-01T18:25:28Z</time>
      </trkpt>
      <trkpt lat="59.9789341" lon="17.7393901">
        <ele>34.7449</ele>
        <time>2013-04-01T18:25:29Z</time>
      </trkpt>
      <trkpt lat="59.9789354" lon="17.7394108">
        <ele>34.7449</ele>
        <time>2013-04-01T18:25:30Z</time>
      </trkpt>
      <trkpt lat="59.9789395" lon="17.7394321">
        <ele>34.2642</ele>
        <time>2013-04-01T18:25:31Z</time>
      </trkpt>
      <trkpt lat="59.9789453" lon="17.7394542">
        <ele>34.2642</ele>
        <time>2013-04-01T18:25:32Z</time>
      </trkpt>
      <trkpt lat="59.9789497" lon="17.7394754">
        <ele>34.2642</ele>
        <time>2013-04-01T18:25:33Z</time>
      </trkpt>
      <trkpt lat="59.9789541" lon="17.7394962">
        <ele>34.2642</ele>
        <time>2013-04-01T18:25:34Z</time>
      </trkpt>
      <trkpt lat="59.9789609" lon="17.7395132">
        <ele>34.2642</ele>
        <time>2013-04-01T18:25:35Z</time>
      </trkpt>
      <trkpt lat="59.9789692" lon="17.7395259">
        <ele>34.2642</ele>
        <time>2013-04-01T18:25:36Z</time>
      </trkpt>
      <trkpt lat="59.9789754" lon="17.7395445">
        <ele>34.2642</ele>
        <time>2013-04-01T18:25:37Z</time>
      </trkpt>
      <trkpt lat="59.9789807" lon="17.7395672">
        <ele>34.7449</ele>
        <time>2013-04-01T18:25:38Z</time>
      </trkpt>
      <trkpt lat="59.9789806" lon="17.7395885">
        <ele>34.7449</ele>
        <time>2013-04-01T18:25:39Z</time>
      </trkpt>
      <trkpt lat="59.9789792" lon="17.7396091">
        <ele>34.2642</ele>
        <time>2013-04-01T18:25:40Z</time>
      </trkpt>
      <trkpt lat="59.9789763" lon="17.7396284">
        <ele>34.2642</ele>
        <time>2013-04-01T18:25:41Z</time>
      </trkpt>
      <trkpt lat="59.9789706" lon="17.7396521">
        <ele>33.3029</ele>
        <time>2013-04-01T18:25:42Z</time>
      </trkpt>
      <trkpt lat="59.9789699" lon="17.7396692">
        <ele>33.7834</ele>
        <time>2013-04-01T18:25:43Z</time>
      </trkpt>
      <trkpt lat="59.9789686" lon="17.7396813">
        <ele>34.2642</ele>
        <time>2013-04-01T18:25:44Z</time>
      </trkpt>
      <trkpt lat="59.9789671" lon="17.7396952">
        <ele>34.2642</ele>
        <time>2013-04-01T18:25:45Z</time>
      </trkpt>
      <trkpt lat="59.9789686" lon="17.7397117">
        <ele>35.2255</ele>
        <time>2013-04-01T18:25:46Z</time>
      </trkpt>
      <trkpt lat="59.978965" lon="17.739736">
        <ele>35.7061</ele>
        <time>2013-04-01T18:25:47Z</time>
      </trkpt>
      <trkpt lat="59.978961" lon="17.7397592">
        <ele>35.7061</ele>
        <time>2013-04-01T18:25:48Z</time>
      </trkpt>
      <trkpt lat="59.9789579" lon="17.7397795">
        <ele>35.7061</ele>
        <time>2013-04-01T18:25:49Z</time>
      </trkpt>
      <trkpt lat="59.9789571" lon="17.7397991">
        <ele>36.1868</ele>
        <time>2013-04-01T18:25:50Z</time>
      </trkpt>
      <trkpt lat="59.9789569" lon="17.7398216">
        <ele>36.1868</ele>
        <time>2013-04-01T18:25:51Z</time>
      </trkpt>
      <trkpt lat="59.9789556" lon="17.7398463">
        <ele>36.6675</ele>
        <time>2013-04-01T18:25:52Z</time>
      </trkpt>
      <trkpt lat="59.9789488" lon="17.7398552">
        <ele>36.1868</ele>
        <time>2013-04-01T18:25:53Z</time>
      </trkpt>
      <trkpt lat="59.9789408" lon="17.7398602">
        <ele>36.6675</ele>
        <time>2013-04-01T18:25:54Z</time>
      </trkpt>
      <trkpt lat="59.9789315" lon="17.739864">
        <ele>36.6675</ele>
        <time>2013-04-01T18:25:55Z</time>
      </trkpt>
      <trkpt lat="59.9789242" lon="17.7398661">
        <ele>36.6675</ele>
        <time>2013-04-01T18:25:56Z</time>
      </trkpt>
      <trkpt lat="59.9789201" lon="17.7398675">
        <ele>37.1481</ele>
        <time>2013-04-01T18:25:57Z</time>
      </trkpt>
      <trkpt lat="59.9789137" lon="17.7398768">
        <ele>36.6675</ele>
        <time>2013-04-01T18:25:58Z</time>
      </trkpt>
      <trkpt lat="59.9789075" lon="17.7398814">
        <ele>37.1481</ele>
        <time>2013-04-01T18:25:59Z</time>
      </trkpt>
    </trkseg>
  </trk>
</gpx>